<?xml version="1.0" encoding="UTF-8" standalone="no" ?>
<gpx xmlns="http://www.topografix.com/GPX/1/1" xmlns:xsi="http://www.w3.org/2001/XMLSchema-instance" xsi:schemaLocation="http://www.topografix.com/GPX/1/1 http://www.topografix.com/GPX/1/1/gpx.xsd" version="1.1" creator="VisuGPX - https://www.visugpx.com">
  <metadata>
    <name>Reculet par la rivière</name>
    <desc><![CDATA[Trace AlpineQuest 17/12/2017 11:15:02]]></desc>
  </metadata>
  <trk>
    <name><![CDATA[reculet]]></name>
    <trkseg>
      <trkpt lat="46.24099" lon="5.89636">
        <ele>716.29998779297</ele>
        <time>2017-12-17T10:15:02Z</time>
      </trkpt>
      <trkpt lat="46.24099" lon="5.89636">
        <ele>716.29998779297</ele>
        <time>2017-12-17T10:15:07Z</time>
      </trkpt>
      <trkpt lat="46.24099" lon="5.89636">
        <ele>716.29998779297</ele>
        <time>2017-12-17T10:15:12Z</time>
      </trkpt>
      <trkpt lat="46.24099" lon="5.89636">
        <ele>716.29998779297</ele>
        <time>2017-12-17T10:15:17Z</time>
      </trkpt>
      <trkpt lat="46.24099" lon="5.89636">
        <ele>716.29998779297</ele>
        <time>2017-12-17T10:15:22Z</time>
      </trkpt>
      <trkpt lat="46.24099" lon="5.89636">
        <ele>716.29998779297</ele>
        <time>2017-12-17T10:15:27Z</time>
      </trkpt>
      <trkpt lat="46.24099" lon="5.89636">
        <ele>716.29998779297</ele>
        <time>2017-12-17T10:15:32Z</time>
      </trkpt>
      <trkpt lat="46.24099" lon="5.89636">
        <ele>716.29998779297</ele>
        <time>2017-12-17T10:15:37Z</time>
      </trkpt>
      <trkpt lat="46.24099" lon="5.89636">
        <ele>716.29998779297</ele>
        <time>2017-12-17T10:15:42Z</time>
      </trkpt>
      <trkpt lat="46.24099" lon="5.89636">
        <ele>716.29998779297</ele>
        <time>2017-12-17T10:15:47Z</time>
      </trkpt>
      <trkpt lat="46.24099" lon="5.89636">
        <ele>716.29998779297</ele>
        <time>2017-12-17T10:15:52Z</time>
      </trkpt>
      <trkpt lat="46.24099" lon="5.89636">
        <ele>716.29998779297</ele>
        <time>2017-12-17T10:15:57Z</time>
      </trkpt>
      <trkpt lat="46.24099" lon="5.89636">
        <ele>716.29998779297</ele>
        <time>2017-12-17T10:16:02Z</time>
      </trkpt>
      <trkpt lat="46.24099" lon="5.89636">
        <ele>716.29998779297</ele>
        <time>2017-12-17T10:16:07Z</time>
      </trkpt>
      <trkpt lat="46.24099" lon="5.89636">
        <ele>716.29998779297</ele>
        <time>2017-12-17T10:16:12Z</time>
      </trkpt>
      <trkpt lat="46.24099" lon="5.89636">
        <ele>716.29998779297</ele>
        <time>2017-12-17T10:16:17Z</time>
      </trkpt>
      <trkpt lat="46.24099" lon="5.89636">
        <ele>716.29998779297</ele>
        <time>2017-12-17T10:16:22Z</time>
      </trkpt>
      <trkpt lat="46.24099" lon="5.89636">
        <ele>716.29998779297</ele>
        <time>2017-12-17T10:16:27Z</time>
      </trkpt>
      <trkpt lat="46.24099" lon="5.89636">
        <ele>716.29998779297</ele>
        <time>2017-12-17T10:16:32Z</time>
      </trkpt>
      <trkpt lat="46.24099" lon="5.89636">
        <ele>716.29998779297</ele>
        <time>2017-12-17T10:16:37Z</time>
      </trkpt>
      <trkpt lat="46.24103" lon="5.89652">
        <ele>717.20001220703</ele>
        <time>2017-12-17T10:16:42Z</time>
      </trkpt>
      <trkpt lat="46.24103" lon="5.89652">
        <ele>717.20001220703</ele>
        <time>2017-12-17T10:16:47Z</time>
      </trkpt>
      <trkpt lat="46.24103" lon="5.89667">
        <ele>718.40002441406</ele>
        <time>2017-12-17T10:16:52Z</time>
      </trkpt>
      <trkpt lat="46.24103" lon="5.89669">
        <ele>718.59997558594</ele>
        <time>2017-12-17T10:16:57Z</time>
      </trkpt>
      <trkpt lat="46.24103" lon="5.89669">
        <ele>718.59997558594</ele>
        <time>2017-12-17T10:17:02Z</time>
      </trkpt>
      <trkpt lat="46.24103" lon="5.89683">
        <ele>720</ele>
        <time>2017-12-17T10:17:07Z</time>
      </trkpt>
      <trkpt lat="46.24104" lon="5.89687">
        <ele>720.40002441406</ele>
        <time>2017-12-17T10:17:12Z</time>
      </trkpt>
      <trkpt lat="46.24108" lon="5.89696">
        <ele>721.29998779297</ele>
        <time>2017-12-17T10:17:17Z</time>
      </trkpt>
      <trkpt lat="46.24109" lon="5.89699">
        <ele>721.59997558594</ele>
        <time>2017-12-17T10:17:22Z</time>
      </trkpt>
      <trkpt lat="46.24109" lon="5.89699">
        <ele>721.59997558594</ele>
        <time>2017-12-17T10:17:27Z</time>
      </trkpt>
      <trkpt lat="46.2411" lon="5.89715">
        <ele>723.29998779297</ele>
        <time>2017-12-17T10:17:32Z</time>
      </trkpt>
      <trkpt lat="46.2411" lon="5.89716">
        <ele>723.40002441406</ele>
        <time>2017-12-17T10:17:37Z</time>
      </trkpt>
      <trkpt lat="46.2411" lon="5.89716">
        <ele>723.40002441406</ele>
        <time>2017-12-17T10:17:42Z</time>
      </trkpt>
      <trkpt lat="46.24108" lon="5.89733">
        <ele>724.90002441406</ele>
        <time>2017-12-17T10:17:47Z</time>
      </trkpt>
      <trkpt lat="46.24108" lon="5.89733">
        <ele>724.90002441406</ele>
        <time>2017-12-17T10:17:51Z</time>
      </trkpt>
      <trkpt lat="46.24108" lon="5.89733">
        <ele>724.90002441406</ele>
        <time>2017-12-17T10:17:56Z</time>
      </trkpt>
      <trkpt lat="46.24108" lon="5.89733">
        <ele>724.90002441406</ele>
        <time>2017-12-17T10:18:01Z</time>
      </trkpt>
      <trkpt lat="46.24108" lon="5.89733">
        <ele>724.90002441406</ele>
        <time>2017-12-17T10:18:06Z</time>
      </trkpt>
      <trkpt lat="46.24108" lon="5.89733">
        <ele>724.90002441406</ele>
        <time>2017-12-17T10:18:11Z</time>
      </trkpt>
      <trkpt lat="46.24108" lon="5.89733">
        <ele>724.90002441406</ele>
        <time>2017-12-17T10:18:16Z</time>
      </trkpt>
      <trkpt lat="46.24108" lon="5.89733">
        <ele>724.90002441406</ele>
        <time>2017-12-17T10:18:21Z</time>
      </trkpt>
      <trkpt lat="46.24108" lon="5.89733">
        <ele>724.90002441406</ele>
        <time>2017-12-17T10:18:26Z</time>
      </trkpt>
      <trkpt lat="46.24108" lon="5.89733">
        <ele>724.90002441406</ele>
        <time>2017-12-17T10:18:31Z</time>
      </trkpt>
      <trkpt lat="46.24108" lon="5.89733">
        <ele>724.90002441406</ele>
        <time>2017-12-17T10:18:36Z</time>
      </trkpt>
      <trkpt lat="46.24108" lon="5.89733">
        <ele>724.90002441406</ele>
        <time>2017-12-17T10:18:37Z</time>
      </trkpt>
      <trkpt lat="46.24108" lon="5.89733">
        <ele>724.90002441406</ele>
        <time>2017-12-17T10:18:42Z</time>
      </trkpt>
      <trkpt lat="46.24108" lon="5.89733">
        <ele>724.90002441406</ele>
        <time>2017-12-17T10:18:47Z</time>
      </trkpt>
      <trkpt lat="46.24108" lon="5.89733">
        <ele>724.90002441406</ele>
        <time>2017-12-17T10:18:52Z</time>
      </trkpt>
      <trkpt lat="46.24108" lon="5.89733">
        <ele>724.90002441406</ele>
        <time>2017-12-17T10:18:53Z</time>
      </trkpt>
      <trkpt lat="46.24108" lon="5.89733">
        <ele>724.90002441406</ele>
        <time>2017-12-17T10:18:58Z</time>
      </trkpt>
      <trkpt lat="46.24108" lon="5.89733">
        <ele>724.90002441406</ele>
        <time>2017-12-17T10:19:03Z</time>
      </trkpt>
      <trkpt lat="46.24108" lon="5.89733">
        <ele>724.90002441406</ele>
        <time>2017-12-17T10:19:04Z</time>
      </trkpt>
      <trkpt lat="46.24108" lon="5.89733">
        <ele>724.90002441406</ele>
        <time>2017-12-17T10:19:09Z</time>
      </trkpt>
      <trkpt lat="46.24108" lon="5.89733">
        <ele>724.90002441406</ele>
        <time>2017-12-17T10:19:10Z</time>
      </trkpt>
      <trkpt lat="46.24108" lon="5.89733">
        <ele>724.90002441406</ele>
        <time>2017-12-17T10:19:15Z</time>
      </trkpt>
      <trkpt lat="46.24108" lon="5.89733">
        <ele>724.90002441406</ele>
        <time>2017-12-17T10:19:16Z</time>
      </trkpt>
      <trkpt lat="46.24108" lon="5.89733">
        <ele>724.90002441406</ele>
        <time>2017-12-17T10:19:21Z</time>
      </trkpt>
      <trkpt lat="46.24108" lon="5.89733">
        <ele>724.90002441406</ele>
        <time>2017-12-17T10:19:26Z</time>
      </trkpt>
      <trkpt lat="46.24108" lon="5.89733">
        <ele>724.90002441406</ele>
        <time>2017-12-17T10:19:31Z</time>
      </trkpt>
      <trkpt lat="46.24108" lon="5.89733">
        <ele>724.90002441406</ele>
        <time>2017-12-17T10:19:36Z</time>
      </trkpt>
      <trkpt lat="46.24112" lon="5.89745">
        <ele>725.79998779297</ele>
        <time>2017-12-17T10:19:41Z</time>
      </trkpt>
      <trkpt lat="46.24112" lon="5.89745">
        <ele>725.79998779297</ele>
        <time>2017-12-17T10:19:46Z</time>
      </trkpt>
      <trkpt lat="46.24112" lon="5.89745">
        <ele>725.79998779297</ele>
        <time>2017-12-17T10:19:49Z</time>
      </trkpt>
      <trkpt lat="46.24112" lon="5.89745">
        <ele>725.79998779297</ele>
        <time>2017-12-17T10:19:54Z</time>
      </trkpt>
      <trkpt lat="46.24112" lon="5.89745">
        <ele>725.79998779297</ele>
        <time>2017-12-17T10:19:56Z</time>
      </trkpt>
      <trkpt lat="46.24112" lon="5.89745">
        <ele>725.79998779297</ele>
        <time>2017-12-17T10:20:01Z</time>
      </trkpt>
      <trkpt lat="46.24112" lon="5.89745">
        <ele>725.79998779297</ele>
        <time>2017-12-17T10:20:03Z</time>
      </trkpt>
      <trkpt lat="46.24112" lon="5.89745">
        <ele>725.79998779297</ele>
        <time>2017-12-17T10:20:08Z</time>
      </trkpt>
      <trkpt lat="46.24112" lon="5.89745">
        <ele>725.79998779297</ele>
        <time>2017-12-17T10:20:13Z</time>
      </trkpt>
      <trkpt lat="46.24112" lon="5.89745">
        <ele>725.79998779297</ele>
        <time>2017-12-17T10:20:16Z</time>
      </trkpt>
      <trkpt lat="46.24112" lon="5.89745">
        <ele>725.79998779297</ele>
        <time>2017-12-17T10:20:21Z</time>
      </trkpt>
      <trkpt lat="46.24112" lon="5.89745">
        <ele>725.79998779297</ele>
        <time>2017-12-17T10:20:25Z</time>
      </trkpt>
      <trkpt lat="46.24112" lon="5.89745">
        <ele>725.79998779297</ele>
        <time>2017-12-17T10:20:30Z</time>
      </trkpt>
      <trkpt lat="46.24112" lon="5.89745">
        <ele>725.79998779297</ele>
        <time>2017-12-17T10:20:34Z</time>
      </trkpt>
      <trkpt lat="46.24112" lon="5.89745">
        <ele>725.79998779297</ele>
        <time>2017-12-17T10:20:39Z</time>
      </trkpt>
      <trkpt lat="46.24112" lon="5.89745">
        <ele>725.79998779297</ele>
        <time>2017-12-17T10:20:44Z</time>
      </trkpt>
      <trkpt lat="46.24112" lon="5.89745">
        <ele>725.79998779297</ele>
        <time>2017-12-17T10:20:49Z</time>
      </trkpt>
      <trkpt lat="46.2411" lon="5.8976">
        <ele>726.09997558594</ele>
        <time>2017-12-17T10:20:54Z</time>
      </trkpt>
      <trkpt lat="46.2411" lon="5.89762">
        <ele>726.09997558594</ele>
        <time>2017-12-17T10:20:59Z</time>
      </trkpt>
      <trkpt lat="46.2411" lon="5.89762">
        <ele>726.09997558594</ele>
        <time>2017-12-17T10:21:04Z</time>
      </trkpt>
      <trkpt lat="46.24118" lon="5.89778">
        <ele>726.09997558594</ele>
        <time>2017-12-17T10:21:09Z</time>
      </trkpt>
      <trkpt lat="46.24118" lon="5.89778">
        <ele>726.09997558594</ele>
        <time>2017-12-17T10:21:14Z</time>
      </trkpt>
      <trkpt lat="46.24124" lon="5.89793">
        <ele>725.70001220703</ele>
        <time>2017-12-17T10:21:19Z</time>
      </trkpt>
      <trkpt lat="46.24124" lon="5.89796">
        <ele>725.70001220703</ele>
        <time>2017-12-17T10:21:24Z</time>
      </trkpt>
      <trkpt lat="46.24129" lon="5.89809">
        <ele>725.70001220703</ele>
        <time>2017-12-17T10:21:29Z</time>
      </trkpt>
      <trkpt lat="46.2413" lon="5.89811">
        <ele>725.70001220703</ele>
        <time>2017-12-17T10:21:34Z</time>
      </trkpt>
      <trkpt lat="46.24135" lon="5.89826">
        <ele>725.40002441406</ele>
        <time>2017-12-17T10:21:39Z</time>
      </trkpt>
      <trkpt lat="46.2414" lon="5.89834">
        <ele>725.29998779297</ele>
        <time>2017-12-17T10:21:44Z</time>
      </trkpt>
      <trkpt lat="46.24147" lon="5.89837">
        <ele>725.20001220703</ele>
        <time>2017-12-17T10:21:49Z</time>
      </trkpt>
      <trkpt lat="46.24153" lon="5.89838">
        <ele>725.5</ele>
        <time>2017-12-17T10:21:54Z</time>
      </trkpt>
      <trkpt lat="46.24163" lon="5.89838">
        <ele>726.40002441406</ele>
        <time>2017-12-17T10:21:59Z</time>
      </trkpt>
      <trkpt lat="46.24168" lon="5.89841">
        <ele>727.20001220703</ele>
        <time>2017-12-17T10:22:04Z</time>
      </trkpt>
      <trkpt lat="46.24173" lon="5.89844">
        <ele>728</ele>
        <time>2017-12-17T10:22:09Z</time>
      </trkpt>
      <trkpt lat="46.24179" lon="5.89847">
        <ele>728.90002441406</ele>
        <time>2017-12-17T10:22:14Z</time>
      </trkpt>
      <trkpt lat="46.24181" lon="5.89848">
        <ele>729.20001220703</ele>
        <time>2017-12-17T10:22:19Z</time>
      </trkpt>
      <trkpt lat="46.24191" lon="5.89853">
        <ele>730.09997558594</ele>
        <time>2017-12-17T10:22:24Z</time>
      </trkpt>
      <trkpt lat="46.24194" lon="5.89854">
        <ele>730.70001220703</ele>
        <time>2017-12-17T10:22:29Z</time>
      </trkpt>
      <trkpt lat="46.24194" lon="5.89854">
        <ele>730.70001220703</ele>
        <time>2017-12-17T10:22:34Z</time>
      </trkpt>
      <trkpt lat="46.24213" lon="5.89863">
        <ele>732.70001220703</ele>
        <time>2017-12-17T10:22:39Z</time>
      </trkpt>
      <trkpt lat="46.2422" lon="5.89867">
        <ele>732.20001220703</ele>
        <time>2017-12-17T10:22:44Z</time>
      </trkpt>
      <trkpt lat="46.24225" lon="5.89868">
        <ele>733</ele>
        <time>2017-12-17T10:22:49Z</time>
      </trkpt>
      <trkpt lat="46.2423" lon="5.89875">
        <ele>733.09997558594</ele>
        <time>2017-12-17T10:22:54Z</time>
      </trkpt>
      <trkpt lat="46.24233" lon="5.89875">
        <ele>733.5</ele>
        <time>2017-12-17T10:22:59Z</time>
      </trkpt>
      <trkpt lat="46.24233" lon="5.89875">
        <ele>733.5</ele>
        <time>2017-12-17T10:23:04Z</time>
      </trkpt>
      <trkpt lat="46.24233" lon="5.89875">
        <ele>733.5</ele>
        <time>2017-12-17T10:23:09Z</time>
      </trkpt>
      <trkpt lat="46.2424" lon="5.89886">
        <ele>735.40002441406</ele>
        <time>2017-12-17T10:23:14Z</time>
      </trkpt>
      <trkpt lat="46.2424" lon="5.89886">
        <ele>735.40002441406</ele>
        <time>2017-12-17T10:23:17Z</time>
      </trkpt>
      <trkpt lat="46.2424" lon="5.89886">
        <ele>735.40002441406</ele>
        <time>2017-12-17T10:23:22Z</time>
      </trkpt>
      <trkpt lat="46.2424" lon="5.89886">
        <ele>735.40002441406</ele>
        <time>2017-12-17T10:23:23Z</time>
      </trkpt>
      <trkpt lat="46.2424" lon="5.89886">
        <ele>735.40002441406</ele>
        <time>2017-12-17T10:23:28Z</time>
      </trkpt>
      <trkpt lat="46.2424" lon="5.89886">
        <ele>735.40002441406</ele>
        <time>2017-12-17T10:23:33Z</time>
      </trkpt>
      <trkpt lat="46.2424" lon="5.89886">
        <ele>735.40002441406</ele>
        <time>2017-12-17T10:23:38Z</time>
      </trkpt>
      <trkpt lat="46.2424" lon="5.89886">
        <ele>735.40002441406</ele>
        <time>2017-12-17T10:23:43Z</time>
      </trkpt>
      <trkpt lat="46.2424" lon="5.89886">
        <ele>735.40002441406</ele>
        <time>2017-12-17T10:23:46Z</time>
      </trkpt>
      <trkpt lat="46.2424" lon="5.89886">
        <ele>735.40002441406</ele>
        <time>2017-12-17T10:23:51Z</time>
      </trkpt>
      <trkpt lat="46.2424" lon="5.89886">
        <ele>735.40002441406</ele>
        <time>2017-12-17T10:23:52Z</time>
      </trkpt>
      <trkpt lat="46.2424" lon="5.89886">
        <ele>735.40002441406</ele>
        <time>2017-12-17T10:23:57Z</time>
      </trkpt>
      <trkpt lat="46.2424" lon="5.89886">
        <ele>735.40002441406</ele>
        <time>2017-12-17T10:24:02Z</time>
      </trkpt>
      <trkpt lat="46.2424" lon="5.89886">
        <ele>735.40002441406</ele>
        <time>2017-12-17T10:24:07Z</time>
      </trkpt>
      <trkpt lat="46.2424" lon="5.89886">
        <ele>735.40002441406</ele>
        <time>2017-12-17T10:24:12Z</time>
      </trkpt>
      <trkpt lat="46.2424" lon="5.89886">
        <ele>735.40002441406</ele>
        <time>2017-12-17T10:24:17Z</time>
      </trkpt>
      <trkpt lat="46.2424" lon="5.89886">
        <ele>735.40002441406</ele>
        <time>2017-12-17T10:24:22Z</time>
      </trkpt>
      <trkpt lat="46.2424" lon="5.89886">
        <ele>735.40002441406</ele>
        <time>2017-12-17T10:24:27Z</time>
      </trkpt>
      <trkpt lat="46.2424" lon="5.89886">
        <ele>735.40002441406</ele>
        <time>2017-12-17T10:24:32Z</time>
      </trkpt>
      <trkpt lat="46.2424" lon="5.89886">
        <ele>735.40002441406</ele>
        <time>2017-12-17T10:24:35Z</time>
      </trkpt>
      <trkpt lat="46.2424" lon="5.89886">
        <ele>735.40002441406</ele>
        <time>2017-12-17T10:24:40Z</time>
      </trkpt>
      <trkpt lat="46.2424" lon="5.89886">
        <ele>735.40002441406</ele>
        <time>2017-12-17T10:24:45Z</time>
      </trkpt>
      <trkpt lat="46.2424" lon="5.89886">
        <ele>735.40002441406</ele>
        <time>2017-12-17T10:24:50Z</time>
      </trkpt>
      <trkpt lat="46.24249" lon="5.89884">
        <ele>734.70001220703</ele>
        <time>2017-12-17T10:24:55Z</time>
      </trkpt>
      <trkpt lat="46.2425" lon="5.89884">
        <ele>734.79998779297</ele>
        <time>2017-12-17T10:25:00Z</time>
      </trkpt>
      <trkpt lat="46.2425" lon="5.89884">
        <ele>734.79998779297</ele>
        <time>2017-12-17T10:25:03Z</time>
      </trkpt>
      <trkpt lat="46.2425" lon="5.89884">
        <ele>734.79998779297</ele>
        <time>2017-12-17T10:25:08Z</time>
      </trkpt>
      <trkpt lat="46.2425" lon="5.89884">
        <ele>734.79998779297</ele>
        <time>2017-12-17T10:25:13Z</time>
      </trkpt>
      <trkpt lat="46.2425" lon="5.89884">
        <ele>734.79998779297</ele>
        <time>2017-12-17T10:25:14Z</time>
      </trkpt>
      <trkpt lat="46.2425" lon="5.89884">
        <ele>734.79998779297</ele>
        <time>2017-12-17T10:25:19Z</time>
      </trkpt>
      <trkpt lat="46.2425" lon="5.89884">
        <ele>734.79998779297</ele>
        <time>2017-12-17T10:25:24Z</time>
      </trkpt>
      <trkpt lat="46.2425" lon="5.89884">
        <ele>734.79998779297</ele>
        <time>2017-12-17T10:25:29Z</time>
      </trkpt>
      <trkpt lat="46.2425" lon="5.89884">
        <ele>734.79998779297</ele>
        <time>2017-12-17T10:25:34Z</time>
      </trkpt>
      <trkpt lat="46.2425" lon="5.89884">
        <ele>734.79998779297</ele>
        <time>2017-12-17T10:25:39Z</time>
      </trkpt>
      <trkpt lat="46.2425" lon="5.89884">
        <ele>734.79998779297</ele>
        <time>2017-12-17T10:25:44Z</time>
      </trkpt>
      <trkpt lat="46.2425" lon="5.89884">
        <ele>734.79998779297</ele>
        <time>2017-12-17T10:25:49Z</time>
      </trkpt>
      <trkpt lat="46.24261" lon="5.89881">
        <ele>735.09997558594</ele>
        <time>2017-12-17T10:25:54Z</time>
      </trkpt>
      <trkpt lat="46.24262" lon="5.89881">
        <ele>735.20001220703</ele>
        <time>2017-12-17T10:25:59Z</time>
      </trkpt>
      <trkpt lat="46.24262" lon="5.89881">
        <ele>735.20001220703</ele>
        <time>2017-12-17T10:26:04Z</time>
      </trkpt>
      <trkpt lat="46.24273" lon="5.89876">
        <ele>735.79998779297</ele>
        <time>2017-12-17T10:26:09Z</time>
      </trkpt>
      <trkpt lat="46.24273" lon="5.89876">
        <ele>735.79998779297</ele>
        <time>2017-12-17T10:26:14Z</time>
      </trkpt>
      <trkpt lat="46.24284" lon="5.89872">
        <ele>736.70001220703</ele>
        <time>2017-12-17T10:26:19Z</time>
      </trkpt>
      <trkpt lat="46.24289" lon="5.89869">
        <ele>737.09997558594</ele>
        <time>2017-12-17T10:26:24Z</time>
      </trkpt>
      <trkpt lat="46.24297" lon="5.89864">
        <ele>737.70001220703</ele>
        <time>2017-12-17T10:26:29Z</time>
      </trkpt>
      <trkpt lat="46.24302" lon="5.8986">
        <ele>738.5</ele>
        <time>2017-12-17T10:26:34Z</time>
      </trkpt>
      <trkpt lat="46.2431" lon="5.89855">
        <ele>739.70001220703</ele>
        <time>2017-12-17T10:26:39Z</time>
      </trkpt>
      <trkpt lat="46.24317" lon="5.89852">
        <ele>740.70001220703</ele>
        <time>2017-12-17T10:26:44Z</time>
      </trkpt>
      <trkpt lat="46.24322" lon="5.89849">
        <ele>741.59997558594</ele>
        <time>2017-12-17T10:26:49Z</time>
      </trkpt>
      <trkpt lat="46.24327" lon="5.89846">
        <ele>742.59997558594</ele>
        <time>2017-12-17T10:26:54Z</time>
      </trkpt>
      <trkpt lat="46.24332" lon="5.89842">
        <ele>743.5</ele>
        <time>2017-12-17T10:26:59Z</time>
      </trkpt>
      <trkpt lat="46.24334" lon="5.89841">
        <ele>744.20001220703</ele>
        <time>2017-12-17T10:27:04Z</time>
      </trkpt>
      <trkpt lat="46.24341" lon="5.89842">
        <ele>745.70001220703</ele>
        <time>2017-12-17T10:27:09Z</time>
      </trkpt>
      <trkpt lat="46.24346" lon="5.89842">
        <ele>747.09997558594</ele>
        <time>2017-12-17T10:27:14Z</time>
      </trkpt>
      <trkpt lat="46.2435" lon="5.89844">
        <ele>748.09997558594</ele>
        <time>2017-12-17T10:27:19Z</time>
      </trkpt>
      <trkpt lat="46.2435" lon="5.89844">
        <ele>748.09997558594</ele>
        <time>2017-12-17T10:27:24Z</time>
      </trkpt>
      <trkpt lat="46.24359" lon="5.89849">
        <ele>750.5</ele>
        <time>2017-12-17T10:27:29Z</time>
      </trkpt>
      <trkpt lat="46.24362" lon="5.89851">
        <ele>751.70001220703</ele>
        <time>2017-12-17T10:27:34Z</time>
      </trkpt>
      <trkpt lat="46.24362" lon="5.89851">
        <ele>751.70001220703</ele>
        <time>2017-12-17T10:27:39Z</time>
      </trkpt>
      <trkpt lat="46.24371" lon="5.89859">
        <ele>755.20001220703</ele>
        <time>2017-12-17T10:27:44Z</time>
      </trkpt>
      <trkpt lat="46.24377" lon="5.89863">
        <ele>757</ele>
        <time>2017-12-17T10:27:49Z</time>
      </trkpt>
      <trkpt lat="46.24384" lon="5.89865">
        <ele>758.70001220703</ele>
        <time>2017-12-17T10:27:54Z</time>
      </trkpt>
      <trkpt lat="46.24389" lon="5.89865">
        <ele>760.29998779297</ele>
        <time>2017-12-17T10:27:59Z</time>
      </trkpt>
      <trkpt lat="46.24391" lon="5.89864">
        <ele>760.90002441406</ele>
        <time>2017-12-17T10:28:04Z</time>
      </trkpt>
      <trkpt lat="46.24397" lon="5.89866">
        <ele>760</ele>
        <time>2017-12-17T10:28:09Z</time>
      </trkpt>
      <trkpt lat="46.24404" lon="5.89866">
        <ele>759.59997558594</ele>
        <time>2017-12-17T10:28:14Z</time>
      </trkpt>
      <trkpt lat="46.2441" lon="5.89865">
        <ele>759.40002441406</ele>
        <time>2017-12-17T10:28:19Z</time>
      </trkpt>
      <trkpt lat="46.24416" lon="5.89866">
        <ele>759.09997558594</ele>
        <time>2017-12-17T10:28:24Z</time>
      </trkpt>
      <trkpt lat="46.24422" lon="5.89866">
        <ele>759.09997558594</ele>
        <time>2017-12-17T10:28:29Z</time>
      </trkpt>
      <trkpt lat="46.24427" lon="5.89866">
        <ele>759.29998779297</ele>
        <time>2017-12-17T10:28:34Z</time>
      </trkpt>
      <trkpt lat="46.2443" lon="5.89865">
        <ele>759.20001220703</ele>
        <time>2017-12-17T10:28:39Z</time>
      </trkpt>
      <trkpt lat="46.24436" lon="5.89865">
        <ele>759.70001220703</ele>
        <time>2017-12-17T10:28:44Z</time>
      </trkpt>
      <trkpt lat="46.24436" lon="5.89865">
        <ele>759.70001220703</ele>
        <time>2017-12-17T10:28:49Z</time>
      </trkpt>
      <trkpt lat="46.24446" lon="5.89861">
        <ele>761.20001220703</ele>
        <time>2017-12-17T10:28:54Z</time>
      </trkpt>
      <trkpt lat="46.24448" lon="5.89861">
        <ele>761.59997558594</ele>
        <time>2017-12-17T10:28:59Z</time>
      </trkpt>
      <trkpt lat="46.24456" lon="5.89861">
        <ele>762.29998779297</ele>
        <time>2017-12-17T10:29:04Z</time>
      </trkpt>
      <trkpt lat="46.24458" lon="5.89861">
        <ele>762.5</ele>
        <time>2017-12-17T10:29:09Z</time>
      </trkpt>
      <trkpt lat="46.24463" lon="5.89862">
        <ele>762.79998779297</ele>
        <time>2017-12-17T10:29:10Z</time>
      </trkpt>
      <trkpt lat="46.24467" lon="5.89863">
        <ele>763.29998779297</ele>
        <time>2017-12-17T10:29:15Z</time>
      </trkpt>
      <trkpt lat="46.24471" lon="5.89863">
        <ele>763.79998779297</ele>
        <time>2017-12-17T10:29:20Z</time>
      </trkpt>
      <trkpt lat="46.24476" lon="5.89864">
        <ele>764.40002441406</ele>
        <time>2017-12-17T10:29:25Z</time>
      </trkpt>
      <trkpt lat="46.24477" lon="5.89864">
        <ele>764.5</ele>
        <time>2017-12-17T10:29:30Z</time>
      </trkpt>
      <trkpt lat="46.24477" lon="5.89864">
        <ele>764.5</ele>
        <time>2017-12-17T10:29:35Z</time>
      </trkpt>
      <trkpt lat="46.24486" lon="5.89863">
        <ele>766.90002441406</ele>
        <time>2017-12-17T10:29:40Z</time>
      </trkpt>
      <trkpt lat="46.24486" lon="5.89863">
        <ele>766.90002441406</ele>
        <time>2017-12-17T10:29:43Z</time>
      </trkpt>
      <trkpt lat="46.24486" lon="5.89863">
        <ele>766.90002441406</ele>
        <time>2017-12-17T10:29:48Z</time>
      </trkpt>
      <trkpt lat="46.24486" lon="5.89863">
        <ele>766.90002441406</ele>
        <time>2017-12-17T10:29:53Z</time>
      </trkpt>
      <trkpt lat="46.24486" lon="5.89863">
        <ele>766.90002441406</ele>
        <time>2017-12-17T10:29:58Z</time>
      </trkpt>
      <trkpt lat="46.24486" lon="5.89863">
        <ele>766.90002441406</ele>
        <time>2017-12-17T10:30:03Z</time>
      </trkpt>
      <trkpt lat="46.24486" lon="5.89863">
        <ele>766.90002441406</ele>
        <time>2017-12-17T10:30:08Z</time>
      </trkpt>
      <trkpt lat="46.24495" lon="5.89864">
        <ele>766.5</ele>
        <time>2017-12-17T10:30:13Z</time>
      </trkpt>
      <trkpt lat="46.245" lon="5.89866">
        <ele>766.59997558594</ele>
        <time>2017-12-17T10:30:18Z</time>
      </trkpt>
      <trkpt lat="46.24501" lon="5.89866">
        <ele>766.59997558594</ele>
        <time>2017-12-17T10:30:23Z</time>
      </trkpt>
      <trkpt lat="46.2451" lon="5.89867">
        <ele>767</ele>
        <time>2017-12-17T10:30:28Z</time>
      </trkpt>
      <trkpt lat="46.24515" lon="5.8987">
        <ele>767.90002441406</ele>
        <time>2017-12-17T10:30:33Z</time>
      </trkpt>
      <trkpt lat="46.2452" lon="5.89872">
        <ele>768.90002441406</ele>
        <time>2017-12-17T10:30:38Z</time>
      </trkpt>
      <trkpt lat="46.24524" lon="5.89874">
        <ele>769.90002441406</ele>
        <time>2017-12-17T10:30:43Z</time>
      </trkpt>
      <trkpt lat="46.24529" lon="5.89876">
        <ele>771.20001220703</ele>
        <time>2017-12-17T10:30:48Z</time>
      </trkpt>
      <trkpt lat="46.24529" lon="5.89876">
        <ele>771.20001220703</ele>
        <time>2017-12-17T10:30:53Z</time>
      </trkpt>
      <trkpt lat="46.24529" lon="5.89876">
        <ele>771.20001220703</ele>
        <time>2017-12-17T10:30:58Z</time>
      </trkpt>
      <trkpt lat="46.24541" lon="5.89882">
        <ele>774</ele>
        <time>2017-12-17T10:31:03Z</time>
      </trkpt>
      <trkpt lat="46.24546" lon="5.89883">
        <ele>775.20001220703</ele>
        <time>2017-12-17T10:31:08Z</time>
      </trkpt>
      <trkpt lat="46.24549" lon="5.89885">
        <ele>776</ele>
        <time>2017-12-17T10:31:13Z</time>
      </trkpt>
      <trkpt lat="46.24549" lon="5.89885">
        <ele>776</ele>
        <time>2017-12-17T10:31:18Z</time>
      </trkpt>
      <trkpt lat="46.2456" lon="5.89886">
        <ele>780</ele>
        <time>2017-12-17T10:31:23Z</time>
      </trkpt>
      <trkpt lat="46.24565" lon="5.89886">
        <ele>781.70001220703</ele>
        <time>2017-12-17T10:31:28Z</time>
      </trkpt>
      <trkpt lat="46.24568" lon="5.89887">
        <ele>782.59997558594</ele>
        <time>2017-12-17T10:31:33Z</time>
      </trkpt>
      <trkpt lat="46.24576" lon="5.89887">
        <ele>784.79998779297</ele>
        <time>2017-12-17T10:31:38Z</time>
      </trkpt>
      <trkpt lat="46.2458" lon="5.89887">
        <ele>786.20001220703</ele>
        <time>2017-12-17T10:31:43Z</time>
      </trkpt>
      <trkpt lat="46.24585" lon="5.89887">
        <ele>787.5</ele>
        <time>2017-12-17T10:31:48Z</time>
      </trkpt>
      <trkpt lat="46.24586" lon="5.89887">
        <ele>787.79998779297</ele>
        <time>2017-12-17T10:31:53Z</time>
      </trkpt>
      <trkpt lat="46.24586" lon="5.89887">
        <ele>787.79998779297</ele>
        <time>2017-12-17T10:31:58Z</time>
      </trkpt>
      <trkpt lat="46.24598" lon="5.89883">
        <ele>791.5</ele>
        <time>2017-12-17T10:32:03Z</time>
      </trkpt>
      <trkpt lat="46.246" lon="5.89883">
        <ele>792.29998779297</ele>
        <time>2017-12-17T10:32:08Z</time>
      </trkpt>
      <trkpt lat="46.246" lon="5.89883">
        <ele>792.29998779297</ele>
        <time>2017-12-17T10:32:13Z</time>
      </trkpt>
      <trkpt lat="46.2461" lon="5.89883">
        <ele>795.29998779297</ele>
        <time>2017-12-17T10:32:18Z</time>
      </trkpt>
      <trkpt lat="46.24612" lon="5.89884">
        <ele>796.09997558594</ele>
        <time>2017-12-17T10:32:23Z</time>
      </trkpt>
      <trkpt lat="46.24612" lon="5.89884">
        <ele>796.09997558594</ele>
        <time>2017-12-17T10:32:28Z</time>
      </trkpt>
      <trkpt lat="46.24621" lon="5.89882">
        <ele>798.70001220703</ele>
        <time>2017-12-17T10:32:33Z</time>
      </trkpt>
      <trkpt lat="46.24623" lon="5.89881">
        <ele>799.5</ele>
        <time>2017-12-17T10:32:38Z</time>
      </trkpt>
      <trkpt lat="46.24623" lon="5.89881">
        <ele>799.5</ele>
        <time>2017-12-17T10:32:43Z</time>
      </trkpt>
      <trkpt lat="46.24632" lon="5.89876">
        <ele>802.20001220703</ele>
        <time>2017-12-17T10:32:48Z</time>
      </trkpt>
      <trkpt lat="46.24633" lon="5.89875">
        <ele>802.79998779297</ele>
        <time>2017-12-17T10:32:53Z</time>
      </trkpt>
      <trkpt lat="46.24633" lon="5.89875">
        <ele>802.79998779297</ele>
        <time>2017-12-17T10:32:58Z</time>
      </trkpt>
      <trkpt lat="46.24645" lon="5.89871">
        <ele>805.20001220703</ele>
        <time>2017-12-17T10:33:03Z</time>
      </trkpt>
      <trkpt lat="46.24647" lon="5.89872">
        <ele>805.90002441406</ele>
        <time>2017-12-17T10:33:08Z</time>
      </trkpt>
      <trkpt lat="46.24654" lon="5.89871">
        <ele>807.29998779297</ele>
        <time>2017-12-17T10:33:13Z</time>
      </trkpt>
      <trkpt lat="46.24655" lon="5.89871">
        <ele>807.59997558594</ele>
        <time>2017-12-17T10:33:18Z</time>
      </trkpt>
      <trkpt lat="46.24655" lon="5.89871">
        <ele>807.59997558594</ele>
        <time>2017-12-17T10:33:23Z</time>
      </trkpt>
      <trkpt lat="46.24667" lon="5.89872">
        <ele>810.79998779297</ele>
        <time>2017-12-17T10:33:28Z</time>
      </trkpt>
      <trkpt lat="46.24667" lon="5.89872">
        <ele>810.79998779297</ele>
        <time>2017-12-17T10:33:33Z</time>
      </trkpt>
      <trkpt lat="46.24667" lon="5.89872">
        <ele>810.79998779297</ele>
        <time>2017-12-17T10:33:38Z</time>
      </trkpt>
      <trkpt lat="46.2468" lon="5.89873">
        <ele>813.40002441406</ele>
        <time>2017-12-17T10:33:43Z</time>
      </trkpt>
      <trkpt lat="46.24685" lon="5.89874">
        <ele>814.5</ele>
        <time>2017-12-17T10:33:48Z</time>
      </trkpt>
      <trkpt lat="46.24688" lon="5.89874">
        <ele>815.90002441406</ele>
        <time>2017-12-17T10:33:53Z</time>
      </trkpt>
      <trkpt lat="46.24688" lon="5.89874">
        <ele>815.90002441406</ele>
        <time>2017-12-17T10:33:58Z</time>
      </trkpt>
      <trkpt lat="46.24688" lon="5.89874">
        <ele>815.90002441406</ele>
        <time>2017-12-17T10:34:03Z</time>
      </trkpt>
      <trkpt lat="46.24703" lon="5.89874">
        <ele>821</ele>
        <time>2017-12-17T10:34:08Z</time>
      </trkpt>
      <trkpt lat="46.24708" lon="5.89874">
        <ele>822.59997558594</ele>
        <time>2017-12-17T10:34:13Z</time>
      </trkpt>
      <trkpt lat="46.24713" lon="5.89874">
        <ele>824.20001220703</ele>
        <time>2017-12-17T10:34:18Z</time>
      </trkpt>
      <trkpt lat="46.24714" lon="5.89874">
        <ele>824.79998779297</ele>
        <time>2017-12-17T10:34:23Z</time>
      </trkpt>
      <trkpt lat="46.24714" lon="5.89874">
        <ele>824.79998779297</ele>
        <time>2017-12-17T10:34:28Z</time>
      </trkpt>
      <trkpt lat="46.24724" lon="5.89874">
        <ele>828</ele>
        <time>2017-12-17T10:34:33Z</time>
      </trkpt>
      <trkpt lat="46.24727" lon="5.89875">
        <ele>828.79998779297</ele>
        <time>2017-12-17T10:34:38Z</time>
      </trkpt>
      <trkpt lat="46.24727" lon="5.89875">
        <ele>828.79998779297</ele>
        <time>2017-12-17T10:34:43Z</time>
      </trkpt>
      <trkpt lat="46.24737" lon="5.89874">
        <ele>831.70001220703</ele>
        <time>2017-12-17T10:34:48Z</time>
      </trkpt>
      <trkpt lat="46.24739" lon="5.89873">
        <ele>832.29998779297</ele>
        <time>2017-12-17T10:34:53Z</time>
      </trkpt>
      <trkpt lat="46.24739" lon="5.89873">
        <ele>832.29998779297</ele>
        <time>2017-12-17T10:34:58Z</time>
      </trkpt>
      <trkpt lat="46.24749" lon="5.89871">
        <ele>834.90002441406</ele>
        <time>2017-12-17T10:35:03Z</time>
      </trkpt>
      <trkpt lat="46.24751" lon="5.8987">
        <ele>835.40002441406</ele>
        <time>2017-12-17T10:35:08Z</time>
      </trkpt>
      <trkpt lat="46.24751" lon="5.8987">
        <ele>835.40002441406</ele>
        <time>2017-12-17T10:35:13Z</time>
      </trkpt>
      <trkpt lat="46.24759" lon="5.89876">
        <ele>835</ele>
        <time>2017-12-17T10:35:18Z</time>
      </trkpt>
      <trkpt lat="46.24761" lon="5.89878">
        <ele>834.70001220703</ele>
        <time>2017-12-17T10:35:23Z</time>
      </trkpt>
      <trkpt lat="46.24761" lon="5.89878">
        <ele>834.70001220703</ele>
        <time>2017-12-17T10:35:28Z</time>
      </trkpt>
      <trkpt lat="46.24772" lon="5.89885">
        <ele>834.29998779297</ele>
        <time>2017-12-17T10:35:33Z</time>
      </trkpt>
      <trkpt lat="46.24773" lon="5.89885">
        <ele>834.20001220703</ele>
        <time>2017-12-17T10:35:38Z</time>
      </trkpt>
      <trkpt lat="46.24773" lon="5.89885">
        <ele>834.20001220703</ele>
        <time>2017-12-17T10:35:42Z</time>
      </trkpt>
      <trkpt lat="46.24773" lon="5.89885">
        <ele>834.20001220703</ele>
        <time>2017-12-17T10:35:47Z</time>
      </trkpt>
      <trkpt lat="46.24773" lon="5.89885">
        <ele>834.20001220703</ele>
        <time>2017-12-17T10:35:52Z</time>
      </trkpt>
      <trkpt lat="46.24773" lon="5.89885">
        <ele>834.20001220703</ele>
        <time>2017-12-17T10:35:57Z</time>
      </trkpt>
      <trkpt lat="46.24773" lon="5.89885">
        <ele>834.20001220703</ele>
        <time>2017-12-17T10:36:02Z</time>
      </trkpt>
      <trkpt lat="46.24773" lon="5.89885">
        <ele>834.20001220703</ele>
        <time>2017-12-17T10:36:07Z</time>
      </trkpt>
      <trkpt lat="46.24773" lon="5.89885">
        <ele>834.20001220703</ele>
        <time>2017-12-17T10:36:12Z</time>
      </trkpt>
      <trkpt lat="46.24773" lon="5.89885">
        <ele>834.20001220703</ele>
        <time>2017-12-17T10:36:17Z</time>
      </trkpt>
      <trkpt lat="46.24773" lon="5.89885">
        <ele>834.20001220703</ele>
        <time>2017-12-17T10:36:22Z</time>
      </trkpt>
      <trkpt lat="46.24773" lon="5.89885">
        <ele>834.20001220703</ele>
        <time>2017-12-17T10:36:27Z</time>
      </trkpt>
      <trkpt lat="46.24773" lon="5.89885">
        <ele>834.20001220703</ele>
        <time>2017-12-17T10:36:32Z</time>
      </trkpt>
      <trkpt lat="46.24773" lon="5.89885">
        <ele>834.20001220703</ele>
        <time>2017-12-17T10:36:37Z</time>
      </trkpt>
      <trkpt lat="46.24773" lon="5.89885">
        <ele>834.20001220703</ele>
        <time>2017-12-17T10:36:42Z</time>
      </trkpt>
      <trkpt lat="46.24773" lon="5.89885">
        <ele>834.20001220703</ele>
        <time>2017-12-17T10:36:47Z</time>
      </trkpt>
      <trkpt lat="46.24773" lon="5.89885">
        <ele>834.20001220703</ele>
        <time>2017-12-17T10:36:52Z</time>
      </trkpt>
      <trkpt lat="46.24773" lon="5.89885">
        <ele>834.20001220703</ele>
        <time>2017-12-17T10:36:57Z</time>
      </trkpt>
      <trkpt lat="46.24773" lon="5.89885">
        <ele>834.20001220703</ele>
        <time>2017-12-17T10:37:03Z</time>
      </trkpt>
      <trkpt lat="46.24773" lon="5.89885">
        <ele>834.20001220703</ele>
        <time>2017-12-17T10:37:08Z</time>
      </trkpt>
      <trkpt lat="46.24773" lon="5.89885">
        <ele>834.20001220703</ele>
        <time>2017-12-17T10:37:10Z</time>
      </trkpt>
      <trkpt lat="46.24773" lon="5.89885">
        <ele>834.20001220703</ele>
        <time>2017-12-17T10:37:15Z</time>
      </trkpt>
      <trkpt lat="46.24773" lon="5.89885">
        <ele>834.20001220703</ele>
        <time>2017-12-17T10:37:20Z</time>
      </trkpt>
      <trkpt lat="46.24773" lon="5.89885">
        <ele>834.20001220703</ele>
        <time>2017-12-17T10:37:25Z</time>
      </trkpt>
      <trkpt lat="46.24773" lon="5.89885">
        <ele>834.20001220703</ele>
        <time>2017-12-17T10:37:30Z</time>
      </trkpt>
      <trkpt lat="46.24773" lon="5.89885">
        <ele>834.20001220703</ele>
        <time>2017-12-17T10:37:35Z</time>
      </trkpt>
      <trkpt lat="46.24773" lon="5.89885">
        <ele>834.20001220703</ele>
        <time>2017-12-17T10:37:40Z</time>
      </trkpt>
      <trkpt lat="46.24773" lon="5.89885">
        <ele>834.20001220703</ele>
        <time>2017-12-17T10:37:45Z</time>
      </trkpt>
      <trkpt lat="46.24773" lon="5.89885">
        <ele>834.20001220703</ele>
        <time>2017-12-17T10:37:50Z</time>
      </trkpt>
      <trkpt lat="46.24773" lon="5.89885">
        <ele>834.20001220703</ele>
        <time>2017-12-17T10:37:55Z</time>
      </trkpt>
      <trkpt lat="46.24773" lon="5.89885">
        <ele>834.20001220703</ele>
        <time>2017-12-17T10:38:00Z</time>
      </trkpt>
      <trkpt lat="46.24773" lon="5.89885">
        <ele>834.20001220703</ele>
        <time>2017-12-17T10:38:05Z</time>
      </trkpt>
      <trkpt lat="46.24773" lon="5.89885">
        <ele>834.20001220703</ele>
        <time>2017-12-17T10:38:10Z</time>
      </trkpt>
      <trkpt lat="46.24784" lon="5.89887">
        <ele>829.90002441406</ele>
        <time>2017-12-17T10:38:15Z</time>
      </trkpt>
      <trkpt lat="46.24785" lon="5.89887">
        <ele>830</ele>
        <time>2017-12-17T10:38:20Z</time>
      </trkpt>
      <trkpt lat="46.24785" lon="5.89887">
        <ele>830</ele>
        <time>2017-12-17T10:38:25Z</time>
      </trkpt>
      <trkpt lat="46.24795" lon="5.89892">
        <ele>830.90002441406</ele>
        <time>2017-12-17T10:38:30Z</time>
      </trkpt>
      <trkpt lat="46.24797" lon="5.89894">
        <ele>831.09997558594</ele>
        <time>2017-12-17T10:38:35Z</time>
      </trkpt>
      <trkpt lat="46.24803" lon="5.89898">
        <ele>831.70001220703</ele>
        <time>2017-12-17T10:38:40Z</time>
      </trkpt>
      <trkpt lat="46.24808" lon="5.89901">
        <ele>832.09997558594</ele>
        <time>2017-12-17T10:38:45Z</time>
      </trkpt>
      <trkpt lat="46.24809" lon="5.89901">
        <ele>832.20001220703</ele>
        <time>2017-12-17T10:38:50Z</time>
      </trkpt>
      <trkpt lat="46.24809" lon="5.89901">
        <ele>832.20001220703</ele>
        <time>2017-12-17T10:38:55Z</time>
      </trkpt>
      <trkpt lat="46.24809" lon="5.89901">
        <ele>832.20001220703</ele>
        <time>2017-12-17T10:38:56Z</time>
      </trkpt>
      <trkpt lat="46.24809" lon="5.89901">
        <ele>832.20001220703</ele>
        <time>2017-12-17T10:39:01Z</time>
      </trkpt>
      <trkpt lat="46.24809" lon="5.89901">
        <ele>832.20001220703</ele>
        <time>2017-12-17T10:39:02Z</time>
      </trkpt>
      <trkpt lat="46.24809" lon="5.89901">
        <ele>832.20001220703</ele>
        <time>2017-12-17T10:39:07Z</time>
      </trkpt>
      <trkpt lat="46.24816" lon="5.89913">
        <ele>833.20001220703</ele>
        <time>2017-12-17T10:39:12Z</time>
      </trkpt>
      <trkpt lat="46.24816" lon="5.89914">
        <ele>833.29998779297</ele>
        <time>2017-12-17T10:39:17Z</time>
      </trkpt>
      <trkpt lat="46.24816" lon="5.89914">
        <ele>833.29998779297</ele>
        <time>2017-12-17T10:39:22Z</time>
      </trkpt>
      <trkpt lat="46.24821" lon="5.89926">
        <ele>833.70001220703</ele>
        <time>2017-12-17T10:39:27Z</time>
      </trkpt>
      <trkpt lat="46.24822" lon="5.89928">
        <ele>833.79998779297</ele>
        <time>2017-12-17T10:39:32Z</time>
      </trkpt>
      <trkpt lat="46.24822" lon="5.89928">
        <ele>833.79998779297</ele>
        <time>2017-12-17T10:39:37Z</time>
      </trkpt>
      <trkpt lat="46.24829" lon="5.89941">
        <ele>834.40002441406</ele>
        <time>2017-12-17T10:39:42Z</time>
      </trkpt>
      <trkpt lat="46.24829" lon="5.89941">
        <ele>834.40002441406</ele>
        <time>2017-12-17T10:39:47Z</time>
      </trkpt>
      <trkpt lat="46.24829" lon="5.89941">
        <ele>834.40002441406</ele>
        <time>2017-12-17T10:39:52Z</time>
      </trkpt>
      <trkpt lat="46.24838" lon="5.89954">
        <ele>834.70001220703</ele>
        <time>2017-12-17T10:39:57Z</time>
      </trkpt>
      <trkpt lat="46.24838" lon="5.89954">
        <ele>834.70001220703</ele>
        <time>2017-12-17T10:40:02Z</time>
      </trkpt>
      <trkpt lat="46.24844" lon="5.89964">
        <ele>834.5</ele>
        <time>2017-12-17T10:40:07Z</time>
      </trkpt>
      <trkpt lat="46.24845" lon="5.89966">
        <ele>834.40002441406</ele>
        <time>2017-12-17T10:40:12Z</time>
      </trkpt>
      <trkpt lat="46.24845" lon="5.89966">
        <ele>834.40002441406</ele>
        <time>2017-12-17T10:40:17Z</time>
      </trkpt>
      <trkpt lat="46.24853" lon="5.89975">
        <ele>834.09997558594</ele>
        <time>2017-12-17T10:40:22Z</time>
      </trkpt>
      <trkpt lat="46.24855" lon="5.89976">
        <ele>834.09997558594</ele>
        <time>2017-12-17T10:40:27Z</time>
      </trkpt>
      <trkpt lat="46.24855" lon="5.89976">
        <ele>834.09997558594</ele>
        <time>2017-12-17T10:40:32Z</time>
      </trkpt>
      <trkpt lat="46.24863" lon="5.89984">
        <ele>833.90002441406</ele>
        <time>2017-12-17T10:40:37Z</time>
      </trkpt>
      <trkpt lat="46.24865" lon="5.89985">
        <ele>833.79998779297</ele>
        <time>2017-12-17T10:40:42Z</time>
      </trkpt>
      <trkpt lat="46.24865" lon="5.89985">
        <ele>833.79998779297</ele>
        <time>2017-12-17T10:40:47Z</time>
      </trkpt>
      <trkpt lat="46.24876" lon="5.8999">
        <ele>833.5</ele>
        <time>2017-12-17T10:40:52Z</time>
      </trkpt>
      <trkpt lat="46.24876" lon="5.8999">
        <ele>833.40002441406</ele>
        <time>2017-12-17T10:40:57Z</time>
      </trkpt>
      <trkpt lat="46.24876" lon="5.8999">
        <ele>833.40002441406</ele>
        <time>2017-12-17T10:41:02Z</time>
      </trkpt>
      <trkpt lat="46.24888" lon="5.89996">
        <ele>833.59997558594</ele>
        <time>2017-12-17T10:41:07Z</time>
      </trkpt>
      <trkpt lat="46.24888" lon="5.89996">
        <ele>833.59997558594</ele>
        <time>2017-12-17T10:41:12Z</time>
      </trkpt>
      <trkpt lat="46.24899" lon="5.89997">
        <ele>834</ele>
        <time>2017-12-17T10:41:17Z</time>
      </trkpt>
      <trkpt lat="46.24901" lon="5.89997">
        <ele>834.09997558594</ele>
        <time>2017-12-17T10:41:22Z</time>
      </trkpt>
      <trkpt lat="46.24901" lon="5.89997">
        <ele>834.09997558594</ele>
        <time>2017-12-17T10:41:27Z</time>
      </trkpt>
      <trkpt lat="46.24912" lon="5.89998">
        <ele>834.40002441406</ele>
        <time>2017-12-17T10:41:32Z</time>
      </trkpt>
      <trkpt lat="46.24912" lon="5.89998">
        <ele>834.40002441406</ele>
        <time>2017-12-17T10:41:37Z</time>
      </trkpt>
      <trkpt lat="46.24912" lon="5.89998">
        <ele>834.40002441406</ele>
        <time>2017-12-17T10:41:42Z</time>
      </trkpt>
      <trkpt lat="46.24924" lon="5.89999">
        <ele>834.79998779297</ele>
        <time>2017-12-17T10:41:47Z</time>
      </trkpt>
      <trkpt lat="46.24925" lon="5.89999">
        <ele>834.90002441406</ele>
        <time>2017-12-17T10:41:52Z</time>
      </trkpt>
      <trkpt lat="46.24925" lon="5.89999">
        <ele>834.90002441406</ele>
        <time>2017-12-17T10:41:57Z</time>
      </trkpt>
      <trkpt lat="46.24936" lon="5.89998">
        <ele>835.5</ele>
        <time>2017-12-17T10:42:02Z</time>
      </trkpt>
      <trkpt lat="46.24936" lon="5.89998">
        <ele>835.5</ele>
        <time>2017-12-17T10:42:07Z</time>
      </trkpt>
      <trkpt lat="46.24936" lon="5.89998">
        <ele>835.5</ele>
        <time>2017-12-17T10:42:12Z</time>
      </trkpt>
      <trkpt lat="46.24948" lon="5.90001">
        <ele>836.79998779297</ele>
        <time>2017-12-17T10:42:17Z</time>
      </trkpt>
      <trkpt lat="46.24948" lon="5.90001">
        <ele>836.79998779297</ele>
        <time>2017-12-17T10:42:22Z</time>
      </trkpt>
      <trkpt lat="46.24957" lon="5.90004">
        <ele>838.09997558594</ele>
        <time>2017-12-17T10:42:27Z</time>
      </trkpt>
      <trkpt lat="46.2496" lon="5.90004">
        <ele>838.40002441406</ele>
        <time>2017-12-17T10:42:32Z</time>
      </trkpt>
      <trkpt lat="46.2496" lon="5.90004">
        <ele>838.40002441406</ele>
        <time>2017-12-17T10:42:37Z</time>
      </trkpt>
      <trkpt lat="46.24972" lon="5.90006">
        <ele>840.09997558594</ele>
        <time>2017-12-17T10:42:42Z</time>
      </trkpt>
      <trkpt lat="46.24972" lon="5.90006">
        <ele>840.09997558594</ele>
        <time>2017-12-17T10:42:47Z</time>
      </trkpt>
      <trkpt lat="46.24981" lon="5.9001">
        <ele>841.5</ele>
        <time>2017-12-17T10:42:52Z</time>
      </trkpt>
      <trkpt lat="46.24984" lon="5.90011">
        <ele>841.90002441406</ele>
        <time>2017-12-17T10:42:57Z</time>
      </trkpt>
      <trkpt lat="46.24984" lon="5.90011">
        <ele>841.90002441406</ele>
        <time>2017-12-17T10:43:02Z</time>
      </trkpt>
      <trkpt lat="46.24994" lon="5.90012">
        <ele>843.70001220703</ele>
        <time>2017-12-17T10:43:07Z</time>
      </trkpt>
      <trkpt lat="46.24995" lon="5.90012">
        <ele>844.20001220703</ele>
        <time>2017-12-17T10:43:12Z</time>
      </trkpt>
      <trkpt lat="46.24995" lon="5.90012">
        <ele>844.20001220703</ele>
        <time>2017-12-17T10:43:17Z</time>
      </trkpt>
      <trkpt lat="46.25004" lon="5.90011">
        <ele>846.70001220703</ele>
        <time>2017-12-17T10:43:22Z</time>
      </trkpt>
      <trkpt lat="46.25006" lon="5.90011">
        <ele>847.20001220703</ele>
        <time>2017-12-17T10:43:27Z</time>
      </trkpt>
      <trkpt lat="46.25006" lon="5.90011">
        <ele>847.20001220703</ele>
        <time>2017-12-17T10:43:32Z</time>
      </trkpt>
      <trkpt lat="46.25006" lon="5.90011">
        <ele>847.20001220703</ele>
        <time>2017-12-17T10:43:37Z</time>
      </trkpt>
      <trkpt lat="46.25006" lon="5.90011">
        <ele>847.20001220703</ele>
        <time>2017-12-17T10:43:42Z</time>
      </trkpt>
      <trkpt lat="46.25018" lon="5.90012">
        <ele>850.20001220703</ele>
        <time>2017-12-17T10:43:47Z</time>
      </trkpt>
      <trkpt lat="46.25018" lon="5.90012">
        <ele>850.20001220703</ele>
        <time>2017-12-17T10:43:52Z</time>
      </trkpt>
      <trkpt lat="46.25027" lon="5.90015">
        <ele>852.5</ele>
        <time>2017-12-17T10:43:57Z</time>
      </trkpt>
      <trkpt lat="46.25028" lon="5.90015">
        <ele>852.90002441406</ele>
        <time>2017-12-17T10:44:02Z</time>
      </trkpt>
      <trkpt lat="46.25028" lon="5.90015">
        <ele>852.90002441406</ele>
        <time>2017-12-17T10:44:07Z</time>
      </trkpt>
      <trkpt lat="46.25028" lon="5.90015">
        <ele>852.90002441406</ele>
        <time>2017-12-17T10:44:12Z</time>
      </trkpt>
      <trkpt lat="46.25039" lon="5.90023">
        <ele>856.90002441406</ele>
        <time>2017-12-17T10:44:17Z</time>
      </trkpt>
      <trkpt lat="46.25039" lon="5.90023">
        <ele>856.90002441406</ele>
        <time>2017-12-17T10:44:22Z</time>
      </trkpt>
      <trkpt lat="46.25047" lon="5.90026">
        <ele>858.70001220703</ele>
        <time>2017-12-17T10:44:27Z</time>
      </trkpt>
      <trkpt lat="46.25049" lon="5.90028">
        <ele>859.40002441406</ele>
        <time>2017-12-17T10:44:32Z</time>
      </trkpt>
      <trkpt lat="46.25049" lon="5.90028">
        <ele>859.40002441406</ele>
        <time>2017-12-17T10:44:37Z</time>
      </trkpt>
      <trkpt lat="46.25054" lon="5.90039">
        <ele>861.90002441406</ele>
        <time>2017-12-17T10:44:42Z</time>
      </trkpt>
      <trkpt lat="46.25055" lon="5.90042">
        <ele>862.40002441406</ele>
        <time>2017-12-17T10:44:47Z</time>
      </trkpt>
      <trkpt lat="46.25055" lon="5.90042">
        <ele>862.40002441406</ele>
        <time>2017-12-17T10:44:52Z</time>
      </trkpt>
      <trkpt lat="46.25059" lon="5.90055">
        <ele>865</ele>
        <time>2017-12-17T10:44:57Z</time>
      </trkpt>
      <trkpt lat="46.25059" lon="5.90058">
        <ele>865.59997558594</ele>
        <time>2017-12-17T10:45:02Z</time>
      </trkpt>
      <trkpt lat="46.25059" lon="5.90058">
        <ele>865.59997558594</ele>
        <time>2017-12-17T10:45:07Z</time>
      </trkpt>
      <trkpt lat="46.25059" lon="5.90058">
        <ele>865.59997558594</ele>
        <time>2017-12-17T10:45:12Z</time>
      </trkpt>
      <trkpt lat="46.25063" lon="5.90073">
        <ele>869.90002441406</ele>
        <time>2017-12-17T10:45:17Z</time>
      </trkpt>
      <trkpt lat="46.25063" lon="5.90073">
        <ele>869.90002441406</ele>
        <time>2017-12-17T10:45:22Z</time>
      </trkpt>
      <trkpt lat="46.25063" lon="5.90073">
        <ele>869.90002441406</ele>
        <time>2017-12-17T10:45:27Z</time>
      </trkpt>
      <trkpt lat="46.25063" lon="5.90073">
        <ele>869.90002441406</ele>
        <time>2017-12-17T10:45:32Z</time>
      </trkpt>
      <trkpt lat="46.25063" lon="5.90088">
        <ele>874.79998779297</ele>
        <time>2017-12-17T10:45:37Z</time>
      </trkpt>
      <trkpt lat="46.25063" lon="5.90089">
        <ele>875.09997558594</ele>
        <time>2017-12-17T10:45:42Z</time>
      </trkpt>
      <trkpt lat="46.25063" lon="5.90089">
        <ele>875.09997558594</ele>
        <time>2017-12-17T10:45:47Z</time>
      </trkpt>
      <trkpt lat="46.25063" lon="5.90089">
        <ele>875.09997558594</ele>
        <time>2017-12-17T10:45:52Z</time>
      </trkpt>
      <trkpt lat="46.25062" lon="5.90102">
        <ele>881.29998779297</ele>
        <time>2017-12-17T10:45:57Z</time>
      </trkpt>
      <trkpt lat="46.25063" lon="5.90103">
        <ele>881.59997558594</ele>
        <time>2017-12-17T10:46:02Z</time>
      </trkpt>
      <trkpt lat="46.25063" lon="5.90103">
        <ele>881.59997558594</ele>
        <time>2017-12-17T10:46:07Z</time>
      </trkpt>
      <trkpt lat="46.25061" lon="5.90117">
        <ele>886.79998779297</ele>
        <time>2017-12-17T10:46:12Z</time>
      </trkpt>
      <trkpt lat="46.25059" lon="5.9012">
        <ele>887.5</ele>
        <time>2017-12-17T10:46:17Z</time>
      </trkpt>
      <trkpt lat="46.25059" lon="5.9012">
        <ele>887.5</ele>
        <time>2017-12-17T10:46:22Z</time>
      </trkpt>
      <trkpt lat="46.25053" lon="5.90133">
        <ele>892</ele>
        <time>2017-12-17T10:46:27Z</time>
      </trkpt>
      <trkpt lat="46.25052" lon="5.90133">
        <ele>892.29998779297</ele>
        <time>2017-12-17T10:46:32Z</time>
      </trkpt>
      <trkpt lat="46.25052" lon="5.90133">
        <ele>892.29998779297</ele>
        <time>2017-12-17T10:46:37Z</time>
      </trkpt>
      <trkpt lat="46.25048" lon="5.90148">
        <ele>896.5</ele>
        <time>2017-12-17T10:46:42Z</time>
      </trkpt>
      <trkpt lat="46.25048" lon="5.90148">
        <ele>896.5</ele>
        <time>2017-12-17T10:46:47Z</time>
      </trkpt>
      <trkpt lat="46.25048" lon="5.90148">
        <ele>896.5</ele>
        <time>2017-12-17T10:46:52Z</time>
      </trkpt>
      <trkpt lat="46.25051" lon="5.90162">
        <ele>901.29998779297</ele>
        <time>2017-12-17T10:46:57Z</time>
      </trkpt>
      <trkpt lat="46.25052" lon="5.90163">
        <ele>901.59997558594</ele>
        <time>2017-12-17T10:47:02Z</time>
      </trkpt>
      <trkpt lat="46.25052" lon="5.90163">
        <ele>901.59997558594</ele>
        <time>2017-12-17T10:47:07Z</time>
      </trkpt>
      <trkpt lat="46.25055" lon="5.90177">
        <ele>905</ele>
        <time>2017-12-17T10:47:12Z</time>
      </trkpt>
      <trkpt lat="46.25055" lon="5.90179">
        <ele>905.70001220703</ele>
        <time>2017-12-17T10:47:17Z</time>
      </trkpt>
      <trkpt lat="46.25055" lon="5.90179">
        <ele>905.70001220703</ele>
        <time>2017-12-17T10:47:22Z</time>
      </trkpt>
      <trkpt lat="46.25055" lon="5.90179">
        <ele>905.70001220703</ele>
        <time>2017-12-17T10:47:25Z</time>
      </trkpt>
      <trkpt lat="46.25055" lon="5.90179">
        <ele>905.70001220703</ele>
        <time>2017-12-17T10:47:30Z</time>
      </trkpt>
      <trkpt lat="46.25062" lon="5.90188">
        <ele>907.29998779297</ele>
        <time>2017-12-17T10:47:35Z</time>
      </trkpt>
      <trkpt lat="46.25064" lon="5.90189">
        <ele>907.40002441406</ele>
        <time>2017-12-17T10:47:40Z</time>
      </trkpt>
      <trkpt lat="46.25064" lon="5.90189">
        <ele>907.40002441406</ele>
        <time>2017-12-17T10:47:45Z</time>
      </trkpt>
      <trkpt lat="46.25072" lon="5.90198">
        <ele>908.29998779297</ele>
        <time>2017-12-17T10:47:50Z</time>
      </trkpt>
      <trkpt lat="46.25073" lon="5.90199">
        <ele>908.40002441406</ele>
        <time>2017-12-17T10:47:55Z</time>
      </trkpt>
      <trkpt lat="46.25073" lon="5.90199">
        <ele>908.40002441406</ele>
        <time>2017-12-17T10:48:00Z</time>
      </trkpt>
      <trkpt lat="46.25086" lon="5.90204">
        <ele>908.70001220703</ele>
        <time>2017-12-17T10:48:05Z</time>
      </trkpt>
      <trkpt lat="46.25086" lon="5.90204">
        <ele>908.70001220703</ele>
        <time>2017-12-17T10:48:10Z</time>
      </trkpt>
      <trkpt lat="46.25096" lon="5.90205">
        <ele>908.79998779297</ele>
        <time>2017-12-17T10:48:15Z</time>
      </trkpt>
      <trkpt lat="46.25097" lon="5.90205">
        <ele>908.79998779297</ele>
        <time>2017-12-17T10:48:20Z</time>
      </trkpt>
      <trkpt lat="46.25097" lon="5.90205">
        <ele>908.79998779297</ele>
        <time>2017-12-17T10:48:25Z</time>
      </trkpt>
      <trkpt lat="46.25108" lon="5.90202">
        <ele>909.09997558594</ele>
        <time>2017-12-17T10:48:30Z</time>
      </trkpt>
      <trkpt lat="46.2511" lon="5.90202">
        <ele>909.20001220703</ele>
        <time>2017-12-17T10:48:35Z</time>
      </trkpt>
      <trkpt lat="46.2511" lon="5.90202">
        <ele>909.20001220703</ele>
        <time>2017-12-17T10:48:40Z</time>
      </trkpt>
      <trkpt lat="46.25121" lon="5.90201">
        <ele>909.79998779297</ele>
        <time>2017-12-17T10:48:45Z</time>
      </trkpt>
      <trkpt lat="46.25122" lon="5.90201">
        <ele>909.79998779297</ele>
        <time>2017-12-17T10:48:50Z</time>
      </trkpt>
      <trkpt lat="46.25131" lon="5.902">
        <ele>910.79998779297</ele>
        <time>2017-12-17T10:48:55Z</time>
      </trkpt>
      <trkpt lat="46.25132" lon="5.902">
        <ele>911.09997558594</ele>
        <time>2017-12-17T10:48:58Z</time>
      </trkpt>
      <trkpt lat="46.25132" lon="5.902">
        <ele>911.09997558594</ele>
        <time>2017-12-17T10:49:03Z</time>
      </trkpt>
      <trkpt lat="46.25132" lon="5.902">
        <ele>911.09997558594</ele>
        <time>2017-12-17T10:49:08Z</time>
      </trkpt>
      <trkpt lat="46.25132" lon="5.902">
        <ele>911.09997558594</ele>
        <time>2017-12-17T10:49:13Z</time>
      </trkpt>
      <trkpt lat="46.25132" lon="5.902">
        <ele>911.09997558594</ele>
        <time>2017-12-17T10:49:18Z</time>
      </trkpt>
      <trkpt lat="46.25132" lon="5.902">
        <ele>911.09997558594</ele>
        <time>2017-12-17T10:49:23Z</time>
      </trkpt>
      <trkpt lat="46.25132" lon="5.902">
        <ele>911.09997558594</ele>
        <time>2017-12-17T10:49:28Z</time>
      </trkpt>
      <trkpt lat="46.25132" lon="5.902">
        <ele>911.09997558594</ele>
        <time>2017-12-17T10:49:33Z</time>
      </trkpt>
      <trkpt lat="46.25132" lon="5.902">
        <ele>911.09997558594</ele>
        <time>2017-12-17T10:49:38Z</time>
      </trkpt>
      <trkpt lat="46.25132" lon="5.902">
        <ele>911.09997558594</ele>
        <time>2017-12-17T10:49:43Z</time>
      </trkpt>
      <trkpt lat="46.25132" lon="5.902">
        <ele>911.09997558594</ele>
        <time>2017-12-17T10:49:48Z</time>
      </trkpt>
      <trkpt lat="46.25132" lon="5.902">
        <ele>911.09997558594</ele>
        <time>2017-12-17T10:49:53Z</time>
      </trkpt>
      <trkpt lat="46.25132" lon="5.902">
        <ele>911.09997558594</ele>
        <time>2017-12-17T10:49:58Z</time>
      </trkpt>
      <trkpt lat="46.25132" lon="5.902">
        <ele>911.09997558594</ele>
        <time>2017-12-17T10:50:03Z</time>
      </trkpt>
      <trkpt lat="46.25132" lon="5.902">
        <ele>911.09997558594</ele>
        <time>2017-12-17T10:50:08Z</time>
      </trkpt>
      <trkpt lat="46.25132" lon="5.902">
        <ele>911.09997558594</ele>
        <time>2017-12-17T10:50:10Z</time>
      </trkpt>
      <trkpt lat="46.25132" lon="5.902">
        <ele>911.09997558594</ele>
        <time>2017-12-17T10:50:15Z</time>
      </trkpt>
      <trkpt lat="46.25132" lon="5.902">
        <ele>911.09997558594</ele>
        <time>2017-12-17T10:50:20Z</time>
      </trkpt>
      <trkpt lat="46.25132" lon="5.902">
        <ele>911.09997558594</ele>
        <time>2017-12-17T10:50:25Z</time>
      </trkpt>
      <trkpt lat="46.25132" lon="5.902">
        <ele>911.09997558594</ele>
        <time>2017-12-17T10:50:30Z</time>
      </trkpt>
      <trkpt lat="46.25132" lon="5.902">
        <ele>911.09997558594</ele>
        <time>2017-12-17T10:50:35Z</time>
      </trkpt>
      <trkpt lat="46.25132" lon="5.902">
        <ele>911.09997558594</ele>
        <time>2017-12-17T10:50:40Z</time>
      </trkpt>
      <trkpt lat="46.25132" lon="5.902">
        <ele>911.09997558594</ele>
        <time>2017-12-17T10:50:45Z</time>
      </trkpt>
      <trkpt lat="46.25132" lon="5.902">
        <ele>911.09997558594</ele>
        <time>2017-12-17T10:50:50Z</time>
      </trkpt>
      <trkpt lat="46.25132" lon="5.902">
        <ele>911.09997558594</ele>
        <time>2017-12-17T10:50:52Z</time>
      </trkpt>
      <trkpt lat="46.25132" lon="5.902">
        <ele>911.09997558594</ele>
        <time>2017-12-17T10:50:57Z</time>
      </trkpt>
      <trkpt lat="46.25132" lon="5.902">
        <ele>911.09997558594</ele>
        <time>2017-12-17T10:50:58Z</time>
      </trkpt>
      <trkpt lat="46.25132" lon="5.902">
        <ele>911.09997558594</ele>
        <time>2017-12-17T10:51:03Z</time>
      </trkpt>
      <trkpt lat="46.25132" lon="5.902">
        <ele>911.09997558594</ele>
        <time>2017-12-17T10:51:08Z</time>
      </trkpt>
      <trkpt lat="46.25132" lon="5.902">
        <ele>911.09997558594</ele>
        <time>2017-12-17T10:51:10Z</time>
      </trkpt>
      <trkpt lat="46.25132" lon="5.902">
        <ele>911.09997558594</ele>
        <time>2017-12-17T10:51:15Z</time>
      </trkpt>
      <trkpt lat="46.25132" lon="5.902">
        <ele>911.09997558594</ele>
        <time>2017-12-17T10:51:16Z</time>
      </trkpt>
      <trkpt lat="46.25132" lon="5.902">
        <ele>911.09997558594</ele>
        <time>2017-12-17T10:51:21Z</time>
      </trkpt>
      <trkpt lat="46.25132" lon="5.902">
        <ele>911.09997558594</ele>
        <time>2017-12-17T10:51:26Z</time>
      </trkpt>
      <trkpt lat="46.25132" lon="5.902">
        <ele>911.09997558594</ele>
        <time>2017-12-17T10:51:31Z</time>
      </trkpt>
      <trkpt lat="46.25137" lon="5.90213">
        <ele>912.70001220703</ele>
        <time>2017-12-17T10:51:36Z</time>
      </trkpt>
      <trkpt lat="46.25138" lon="5.90215">
        <ele>912.79998779297</ele>
        <time>2017-12-17T10:51:41Z</time>
      </trkpt>
      <trkpt lat="46.25138" lon="5.90215">
        <ele>912.79998779297</ele>
        <time>2017-12-17T10:51:46Z</time>
      </trkpt>
      <trkpt lat="46.25146" lon="5.90225">
        <ele>914</ele>
        <time>2017-12-17T10:51:51Z</time>
      </trkpt>
      <trkpt lat="46.25152" lon="5.9023">
        <ele>914.59997558594</ele>
        <time>2017-12-17T10:51:56Z</time>
      </trkpt>
      <trkpt lat="46.25156" lon="5.90235">
        <ele>915.5</ele>
        <time>2017-12-17T10:52:01Z</time>
      </trkpt>
      <trkpt lat="46.25157" lon="5.90235">
        <ele>915.59997558594</ele>
        <time>2017-12-17T10:52:06Z</time>
      </trkpt>
      <trkpt lat="46.25157" lon="5.90235">
        <ele>915.59997558594</ele>
        <time>2017-12-17T10:52:11Z</time>
      </trkpt>
      <trkpt lat="46.25166" lon="5.90242">
        <ele>917.40002441406</ele>
        <time>2017-12-17T10:52:16Z</time>
      </trkpt>
      <trkpt lat="46.25168" lon="5.90243">
        <ele>917.70001220703</ele>
        <time>2017-12-17T10:52:21Z</time>
      </trkpt>
      <trkpt lat="46.25168" lon="5.90243">
        <ele>917.70001220703</ele>
        <time>2017-12-17T10:52:26Z</time>
      </trkpt>
      <trkpt lat="46.25176" lon="5.9025">
        <ele>919.70001220703</ele>
        <time>2017-12-17T10:52:31Z</time>
      </trkpt>
      <trkpt lat="46.25177" lon="5.90251">
        <ele>919.79998779297</ele>
        <time>2017-12-17T10:52:36Z</time>
      </trkpt>
      <trkpt lat="46.25177" lon="5.90251">
        <ele>919.79998779297</ele>
        <time>2017-12-17T10:52:41Z</time>
      </trkpt>
      <trkpt lat="46.25177" lon="5.90251">
        <ele>919.79998779297</ele>
        <time>2017-12-17T10:52:46Z</time>
      </trkpt>
      <trkpt lat="46.25186" lon="5.90263">
        <ele>921.20001220703</ele>
        <time>2017-12-17T10:52:51Z</time>
      </trkpt>
      <trkpt lat="46.25186" lon="5.90263">
        <ele>921.20001220703</ele>
        <time>2017-12-17T10:52:56Z</time>
      </trkpt>
      <trkpt lat="46.25194" lon="5.90273">
        <ele>922.5</ele>
        <time>2017-12-17T10:53:01Z</time>
      </trkpt>
      <trkpt lat="46.25197" lon="5.90274">
        <ele>923</ele>
        <time>2017-12-17T10:53:06Z</time>
      </trkpt>
      <trkpt lat="46.25197" lon="5.90274">
        <ele>923</ele>
        <time>2017-12-17T10:53:11Z</time>
      </trkpt>
      <trkpt lat="46.25197" lon="5.90274">
        <ele>923</ele>
        <time>2017-12-17T10:53:16Z</time>
      </trkpt>
      <trkpt lat="46.25207" lon="5.90281">
        <ele>924.90002441406</ele>
        <time>2017-12-17T10:53:21Z</time>
      </trkpt>
      <trkpt lat="46.25207" lon="5.90281">
        <ele>924.90002441406</ele>
        <time>2017-12-17T10:53:26Z</time>
      </trkpt>
      <trkpt lat="46.25207" lon="5.90281">
        <ele>924.90002441406</ele>
        <time>2017-12-17T10:53:31Z</time>
      </trkpt>
      <trkpt lat="46.25216" lon="5.90288">
        <ele>926.79998779297</ele>
        <time>2017-12-17T10:53:36Z</time>
      </trkpt>
      <trkpt lat="46.25217" lon="5.90289">
        <ele>927.09997558594</ele>
        <time>2017-12-17T10:53:41Z</time>
      </trkpt>
      <trkpt lat="46.25217" lon="5.90289">
        <ele>927.09997558594</ele>
        <time>2017-12-17T10:53:46Z</time>
      </trkpt>
      <trkpt lat="46.25228" lon="5.90292">
        <ele>929.5</ele>
        <time>2017-12-17T10:53:51Z</time>
      </trkpt>
      <trkpt lat="46.25228" lon="5.90292">
        <ele>929.5</ele>
        <time>2017-12-17T10:53:56Z</time>
      </trkpt>
      <trkpt lat="46.25239" lon="5.9029">
        <ele>931.29998779297</ele>
        <time>2017-12-17T10:54:01Z</time>
      </trkpt>
      <trkpt lat="46.25241" lon="5.90288">
        <ele>931.79998779297</ele>
        <time>2017-12-17T10:54:06Z</time>
      </trkpt>
      <trkpt lat="46.25241" lon="5.90288">
        <ele>931.79998779297</ele>
        <time>2017-12-17T10:54:11Z</time>
      </trkpt>
      <trkpt lat="46.25241" lon="5.90288">
        <ele>931.79998779297</ele>
        <time>2017-12-17T10:54:16Z</time>
      </trkpt>
      <trkpt lat="46.25247" lon="5.90276">
        <ele>935.20001220703</ele>
        <time>2017-12-17T10:54:21Z</time>
      </trkpt>
      <trkpt lat="46.25248" lon="5.90274">
        <ele>935.40002441406</ele>
        <time>2017-12-17T10:54:26Z</time>
      </trkpt>
      <trkpt lat="46.25248" lon="5.90274">
        <ele>935.40002441406</ele>
        <time>2017-12-17T10:54:31Z</time>
      </trkpt>
      <trkpt lat="46.25254" lon="5.9026">
        <ele>937.90002441406</ele>
        <time>2017-12-17T10:54:36Z</time>
      </trkpt>
      <trkpt lat="46.25254" lon="5.90259">
        <ele>938</ele>
        <time>2017-12-17T10:54:41Z</time>
      </trkpt>
      <trkpt lat="46.25254" lon="5.90259">
        <ele>938</ele>
        <time>2017-12-17T10:54:46Z</time>
      </trkpt>
      <trkpt lat="46.25254" lon="5.90259">
        <ele>938</ele>
        <time>2017-12-17T10:54:51Z</time>
      </trkpt>
      <trkpt lat="46.25258" lon="5.90247">
        <ele>940.90002441406</ele>
        <time>2017-12-17T10:54:54Z</time>
      </trkpt>
      <trkpt lat="46.25258" lon="5.90247">
        <ele>941.09997558594</ele>
        <time>2017-12-17T10:54:59Z</time>
      </trkpt>
      <trkpt lat="46.25258" lon="5.90247">
        <ele>941.09997558594</ele>
        <time>2017-12-17T10:55:00Z</time>
      </trkpt>
      <trkpt lat="46.25258" lon="5.90247">
        <ele>941.09997558594</ele>
        <time>2017-12-17T10:55:05Z</time>
      </trkpt>
      <trkpt lat="46.25258" lon="5.90247">
        <ele>941.09997558594</ele>
        <time>2017-12-17T10:55:10Z</time>
      </trkpt>
      <trkpt lat="46.25266" lon="5.9024">
        <ele>942.70001220703</ele>
        <time>2017-12-17T10:55:15Z</time>
      </trkpt>
      <trkpt lat="46.25267" lon="5.9024">
        <ele>942.90002441406</ele>
        <time>2017-12-17T10:55:20Z</time>
      </trkpt>
      <trkpt lat="46.25267" lon="5.9024">
        <ele>942.90002441406</ele>
        <time>2017-12-17T10:55:25Z</time>
      </trkpt>
      <trkpt lat="46.25276" lon="5.90233">
        <ele>944.70001220703</ele>
        <time>2017-12-17T10:55:30Z</time>
      </trkpt>
      <trkpt lat="46.25277" lon="5.90232">
        <ele>945</ele>
        <time>2017-12-17T10:55:35Z</time>
      </trkpt>
      <trkpt lat="46.25277" lon="5.90232">
        <ele>945</ele>
        <time>2017-12-17T10:55:40Z</time>
      </trkpt>
      <trkpt lat="46.25277" lon="5.90232">
        <ele>945</ele>
        <time>2017-12-17T10:55:45Z</time>
      </trkpt>
      <trkpt lat="46.25288" lon="5.90227">
        <ele>946.79998779297</ele>
        <time>2017-12-17T10:55:50Z</time>
      </trkpt>
      <trkpt lat="46.25288" lon="5.90227">
        <ele>946.79998779297</ele>
        <time>2017-12-17T10:55:55Z</time>
      </trkpt>
      <trkpt lat="46.25298" lon="5.90223">
        <ele>947.90002441406</ele>
        <time>2017-12-17T10:56:00Z</time>
      </trkpt>
      <trkpt lat="46.25302" lon="5.90222">
        <ele>948.29998779297</ele>
        <time>2017-12-17T10:56:05Z</time>
      </trkpt>
      <trkpt lat="46.25302" lon="5.90222">
        <ele>948.29998779297</ele>
        <time>2017-12-17T10:56:10Z</time>
      </trkpt>
      <trkpt lat="46.25311" lon="5.90214">
        <ele>949.59997558594</ele>
        <time>2017-12-17T10:56:15Z</time>
      </trkpt>
      <trkpt lat="46.25311" lon="5.90213">
        <ele>949.79998779297</ele>
        <time>2017-12-17T10:56:20Z</time>
      </trkpt>
      <trkpt lat="46.25311" lon="5.90213">
        <ele>949.79998779297</ele>
        <time>2017-12-17T10:56:25Z</time>
      </trkpt>
      <trkpt lat="46.25317" lon="5.90201">
        <ele>951.59997558594</ele>
        <time>2017-12-17T10:56:30Z</time>
      </trkpt>
      <trkpt lat="46.25317" lon="5.90199">
        <ele>951.79998779297</ele>
        <time>2017-12-17T10:56:35Z</time>
      </trkpt>
      <trkpt lat="46.25317" lon="5.90199">
        <ele>951.79998779297</ele>
        <time>2017-12-17T10:56:40Z</time>
      </trkpt>
      <trkpt lat="46.25317" lon="5.90199">
        <ele>951.79998779297</ele>
        <time>2017-12-17T10:56:45Z</time>
      </trkpt>
      <trkpt lat="46.25322" lon="5.90183">
        <ele>953</ele>
        <time>2017-12-17T10:56:50Z</time>
      </trkpt>
      <trkpt lat="46.25322" lon="5.90183">
        <ele>953</ele>
        <time>2017-12-17T10:56:55Z</time>
      </trkpt>
      <trkpt lat="46.25322" lon="5.90183">
        <ele>953</ele>
        <time>2017-12-17T10:57:00Z</time>
      </trkpt>
      <trkpt lat="46.25331" lon="5.90175">
        <ele>952.5</ele>
        <time>2017-12-17T10:57:05Z</time>
      </trkpt>
      <trkpt lat="46.25331" lon="5.90173">
        <ele>952.5</ele>
        <time>2017-12-17T10:57:10Z</time>
      </trkpt>
      <trkpt lat="46.25331" lon="5.90173">
        <ele>952.5</ele>
        <time>2017-12-17T10:57:12Z</time>
      </trkpt>
      <trkpt lat="46.25331" lon="5.90173">
        <ele>952.5</ele>
        <time>2017-12-17T10:57:17Z</time>
      </trkpt>
      <trkpt lat="46.25331" lon="5.90173">
        <ele>952.5</ele>
        <time>2017-12-17T10:57:22Z</time>
      </trkpt>
      <trkpt lat="46.25331" lon="5.90173">
        <ele>952.5</ele>
        <time>2017-12-17T10:57:27Z</time>
      </trkpt>
      <trkpt lat="46.25338" lon="5.90161">
        <ele>953.20001220703</ele>
        <time>2017-12-17T10:57:32Z</time>
      </trkpt>
      <trkpt lat="46.25338" lon="5.90161">
        <ele>953.20001220703</ele>
        <time>2017-12-17T10:57:37Z</time>
      </trkpt>
      <trkpt lat="46.25338" lon="5.90161">
        <ele>953.20001220703</ele>
        <time>2017-12-17T10:57:42Z</time>
      </trkpt>
      <trkpt lat="46.25347" lon="5.90152">
        <ele>954.29998779297</ele>
        <time>2017-12-17T10:57:47Z</time>
      </trkpt>
      <trkpt lat="46.25347" lon="5.90152">
        <ele>954.40002441406</ele>
        <time>2017-12-17T10:57:52Z</time>
      </trkpt>
      <trkpt lat="46.25347" lon="5.90152">
        <ele>954.40002441406</ele>
        <time>2017-12-17T10:57:57Z</time>
      </trkpt>
      <trkpt lat="46.25355" lon="5.90138">
        <ele>955.79998779297</ele>
        <time>2017-12-17T10:58:02Z</time>
      </trkpt>
      <trkpt lat="46.25355" lon="5.90138">
        <ele>955.79998779297</ele>
        <time>2017-12-17T10:58:07Z</time>
      </trkpt>
      <trkpt lat="46.25355" lon="5.90138">
        <ele>955.79998779297</ele>
        <time>2017-12-17T10:58:12Z</time>
      </trkpt>
      <trkpt lat="46.25368" lon="5.90132">
        <ele>957</ele>
        <time>2017-12-17T10:58:17Z</time>
      </trkpt>
      <trkpt lat="46.25368" lon="5.90132">
        <ele>957</ele>
        <time>2017-12-17T10:58:22Z</time>
      </trkpt>
      <trkpt lat="46.25376" lon="5.90134">
        <ele>958.20001220703</ele>
        <time>2017-12-17T10:58:23Z</time>
      </trkpt>
      <trkpt lat="46.25384" lon="5.90139">
        <ele>961.29998779297</ele>
        <time>2017-12-17T10:58:28Z</time>
      </trkpt>
      <trkpt lat="46.25385" lon="5.9014">
        <ele>961.29998779297</ele>
        <time>2017-12-17T10:58:33Z</time>
      </trkpt>
      <trkpt lat="46.25384" lon="5.90154">
        <ele>962.09997558594</ele>
        <time>2017-12-17T10:58:38Z</time>
      </trkpt>
      <trkpt lat="46.25383" lon="5.90158">
        <ele>962.29998779297</ele>
        <time>2017-12-17T10:58:43Z</time>
      </trkpt>
      <trkpt lat="46.25383" lon="5.90158">
        <ele>962.29998779297</ele>
        <time>2017-12-17T10:58:48Z</time>
      </trkpt>
      <trkpt lat="46.25379" lon="5.90174">
        <ele>963.70001220703</ele>
        <time>2017-12-17T10:58:53Z</time>
      </trkpt>
      <trkpt lat="46.2538" lon="5.90175">
        <ele>963.70001220703</ele>
        <time>2017-12-17T10:58:58Z</time>
      </trkpt>
      <trkpt lat="46.2538" lon="5.90175">
        <ele>963.70001220703</ele>
        <time>2017-12-17T10:59:03Z</time>
      </trkpt>
      <trkpt lat="46.2538" lon="5.90175">
        <ele>963.70001220703</ele>
        <time>2017-12-17T10:59:08Z</time>
      </trkpt>
      <trkpt lat="46.25377" lon="5.90191">
        <ele>965.79998779297</ele>
        <time>2017-12-17T10:59:13Z</time>
      </trkpt>
      <trkpt lat="46.25377" lon="5.90191">
        <ele>965.79998779297</ele>
        <time>2017-12-17T10:59:18Z</time>
      </trkpt>
      <trkpt lat="46.25377" lon="5.90204">
        <ele>966.79998779297</ele>
        <time>2017-12-17T10:59:23Z</time>
      </trkpt>
      <trkpt lat="46.25379" lon="5.90208">
        <ele>967.20001220703</ele>
        <time>2017-12-17T10:59:28Z</time>
      </trkpt>
      <trkpt lat="46.25379" lon="5.90208">
        <ele>967.20001220703</ele>
        <time>2017-12-17T10:59:33Z</time>
      </trkpt>
      <trkpt lat="46.25379" lon="5.90208">
        <ele>967.20001220703</ele>
        <time>2017-12-17T10:59:38Z</time>
      </trkpt>
      <trkpt lat="46.25387" lon="5.90218">
        <ele>969.59997558594</ele>
        <time>2017-12-17T10:59:43Z</time>
      </trkpt>
      <trkpt lat="46.25387" lon="5.90217">
        <ele>969.70001220703</ele>
        <time>2017-12-17T10:59:48Z</time>
      </trkpt>
      <trkpt lat="46.25387" lon="5.90217">
        <ele>969.70001220703</ele>
        <time>2017-12-17T10:59:53Z</time>
      </trkpt>
      <trkpt lat="46.25387" lon="5.90217">
        <ele>969.70001220703</ele>
        <time>2017-12-17T10:59:58Z</time>
      </trkpt>
      <trkpt lat="46.25396" lon="5.90224">
        <ele>972.5</ele>
        <time>2017-12-17T11:00:03Z</time>
      </trkpt>
      <trkpt lat="46.25396" lon="5.90224">
        <ele>972.5</ele>
        <time>2017-12-17T11:00:08Z</time>
      </trkpt>
      <trkpt lat="46.25396" lon="5.90224">
        <ele>972.5</ele>
        <time>2017-12-17T11:00:13Z</time>
      </trkpt>
      <trkpt lat="46.25405" lon="5.90231">
        <ele>973.70001220703</ele>
        <time>2017-12-17T11:00:18Z</time>
      </trkpt>
      <trkpt lat="46.25406" lon="5.90232">
        <ele>973.90002441406</ele>
        <time>2017-12-17T11:00:23Z</time>
      </trkpt>
      <trkpt lat="46.25406" lon="5.90232">
        <ele>973.90002441406</ele>
        <time>2017-12-17T11:00:28Z</time>
      </trkpt>
      <trkpt lat="46.25416" lon="5.90236">
        <ele>975.20001220703</ele>
        <time>2017-12-17T11:00:33Z</time>
      </trkpt>
      <trkpt lat="46.25416" lon="5.90237">
        <ele>975.29998779297</ele>
        <time>2017-12-17T11:00:38Z</time>
      </trkpt>
      <trkpt lat="46.25416" lon="5.90237">
        <ele>975.29998779297</ele>
        <time>2017-12-17T11:00:43Z</time>
      </trkpt>
      <trkpt lat="46.25416" lon="5.90237">
        <ele>975.29998779297</ele>
        <time>2017-12-17T11:00:48Z</time>
      </trkpt>
      <trkpt lat="46.25425" lon="5.90243">
        <ele>977.5</ele>
        <time>2017-12-17T11:00:53Z</time>
      </trkpt>
      <trkpt lat="46.25425" lon="5.90243">
        <ele>977.5</ele>
        <time>2017-12-17T11:00:58Z</time>
      </trkpt>
      <trkpt lat="46.25425" lon="5.90243">
        <ele>977.5</ele>
        <time>2017-12-17T11:01:03Z</time>
      </trkpt>
      <trkpt lat="46.25425" lon="5.90243">
        <ele>977.5</ele>
        <time>2017-12-17T11:01:04Z</time>
      </trkpt>
      <trkpt lat="46.25425" lon="5.90243">
        <ele>977.5</ele>
        <time>2017-12-17T11:01:09Z</time>
      </trkpt>
      <trkpt lat="46.25425" lon="5.90243">
        <ele>977.5</ele>
        <time>2017-12-17T11:01:12Z</time>
      </trkpt>
      <trkpt lat="46.25425" lon="5.90243">
        <ele>977.5</ele>
        <time>2017-12-17T11:01:17Z</time>
      </trkpt>
      <trkpt lat="46.25425" lon="5.90243">
        <ele>977.5</ele>
        <time>2017-12-17T11:01:22Z</time>
      </trkpt>
      <trkpt lat="46.25425" lon="5.90243">
        <ele>977.5</ele>
        <time>2017-12-17T11:01:27Z</time>
      </trkpt>
      <trkpt lat="46.25425" lon="5.90243">
        <ele>977.5</ele>
        <time>2017-12-17T11:01:32Z</time>
      </trkpt>
      <trkpt lat="46.25425" lon="5.90243">
        <ele>977.5</ele>
        <time>2017-12-17T11:01:37Z</time>
      </trkpt>
      <trkpt lat="46.25434" lon="5.90249">
        <ele>978.40002441406</ele>
        <time>2017-12-17T11:01:42Z</time>
      </trkpt>
      <trkpt lat="46.25434" lon="5.90249">
        <ele>978.40002441406</ele>
        <time>2017-12-17T11:01:43Z</time>
      </trkpt>
      <trkpt lat="46.25434" lon="5.90249">
        <ele>978.40002441406</ele>
        <time>2017-12-17T11:01:48Z</time>
      </trkpt>
      <trkpt lat="46.25434" lon="5.90249">
        <ele>978.40002441406</ele>
        <time>2017-12-17T11:01:53Z</time>
      </trkpt>
      <trkpt lat="46.25434" lon="5.90249">
        <ele>978.40002441406</ele>
        <time>2017-12-17T11:01:58Z</time>
      </trkpt>
      <trkpt lat="46.25434" lon="5.90249">
        <ele>978.40002441406</ele>
        <time>2017-12-17T11:02:03Z</time>
      </trkpt>
      <trkpt lat="46.25434" lon="5.90249">
        <ele>978.40002441406</ele>
        <time>2017-12-17T11:02:08Z</time>
      </trkpt>
      <trkpt lat="46.25434" lon="5.90249">
        <ele>978.40002441406</ele>
        <time>2017-12-17T11:02:13Z</time>
      </trkpt>
      <trkpt lat="46.25434" lon="5.90249">
        <ele>978.40002441406</ele>
        <time>2017-12-17T11:02:18Z</time>
      </trkpt>
      <trkpt lat="46.25434" lon="5.90249">
        <ele>978.40002441406</ele>
        <time>2017-12-17T11:02:21Z</time>
      </trkpt>
      <trkpt lat="46.25434" lon="5.90249">
        <ele>978.40002441406</ele>
        <time>2017-12-17T11:02:26Z</time>
      </trkpt>
      <trkpt lat="46.25434" lon="5.90249">
        <ele>978.40002441406</ele>
        <time>2017-12-17T11:02:31Z</time>
      </trkpt>
      <trkpt lat="46.25434" lon="5.90249">
        <ele>978.40002441406</ele>
        <time>2017-12-17T11:02:36Z</time>
      </trkpt>
      <trkpt lat="46.25434" lon="5.90249">
        <ele>978.40002441406</ele>
        <time>2017-12-17T11:02:41Z</time>
      </trkpt>
      <trkpt lat="46.25434" lon="5.90249">
        <ele>978.40002441406</ele>
        <time>2017-12-17T11:02:46Z</time>
      </trkpt>
      <trkpt lat="46.25434" lon="5.90249">
        <ele>978.40002441406</ele>
        <time>2017-12-17T11:02:47Z</time>
      </trkpt>
      <trkpt lat="46.25434" lon="5.90249">
        <ele>978.40002441406</ele>
        <time>2017-12-17T11:02:52Z</time>
      </trkpt>
      <trkpt lat="46.25434" lon="5.90249">
        <ele>978.40002441406</ele>
        <time>2017-12-17T11:02:57Z</time>
      </trkpt>
      <trkpt lat="46.25434" lon="5.90249">
        <ele>978.40002441406</ele>
        <time>2017-12-17T11:03:02Z</time>
      </trkpt>
      <trkpt lat="46.25434" lon="5.90249">
        <ele>978.40002441406</ele>
        <time>2017-12-17T11:03:07Z</time>
      </trkpt>
      <trkpt lat="46.25434" lon="5.90249">
        <ele>978.40002441406</ele>
        <time>2017-12-17T11:03:12Z</time>
      </trkpt>
      <trkpt lat="46.25434" lon="5.90249">
        <ele>978.40002441406</ele>
        <time>2017-12-17T11:03:17Z</time>
      </trkpt>
      <trkpt lat="46.25434" lon="5.90249">
        <ele>978.40002441406</ele>
        <time>2017-12-17T11:03:22Z</time>
      </trkpt>
      <trkpt lat="46.25434" lon="5.90249">
        <ele>978.40002441406</ele>
        <time>2017-12-17T11:03:25Z</time>
      </trkpt>
      <trkpt lat="46.25434" lon="5.90249">
        <ele>978.40002441406</ele>
        <time>2017-12-17T11:03:30Z</time>
      </trkpt>
      <trkpt lat="46.25434" lon="5.90249">
        <ele>978.40002441406</ele>
        <time>2017-12-17T11:03:32Z</time>
      </trkpt>
      <trkpt lat="46.25434" lon="5.90249">
        <ele>978.40002441406</ele>
        <time>2017-12-17T11:03:37Z</time>
      </trkpt>
      <trkpt lat="46.25434" lon="5.90249">
        <ele>978.40002441406</ele>
        <time>2017-12-17T11:03:42Z</time>
      </trkpt>
      <trkpt lat="46.25434" lon="5.90249">
        <ele>978.40002441406</ele>
        <time>2017-12-17T11:03:47Z</time>
      </trkpt>
      <trkpt lat="46.25434" lon="5.90249">
        <ele>978.40002441406</ele>
        <time>2017-12-17T11:03:52Z</time>
      </trkpt>
      <trkpt lat="46.25434" lon="5.90249">
        <ele>978.40002441406</ele>
        <time>2017-12-17T11:03:55Z</time>
      </trkpt>
      <trkpt lat="46.25434" lon="5.90249">
        <ele>978.40002441406</ele>
        <time>2017-12-17T11:04:00Z</time>
      </trkpt>
      <trkpt lat="46.25434" lon="5.90249">
        <ele>978.40002441406</ele>
        <time>2017-12-17T11:04:05Z</time>
      </trkpt>
      <trkpt lat="46.25434" lon="5.90249">
        <ele>978.40002441406</ele>
        <time>2017-12-17T11:04:06Z</time>
      </trkpt>
      <trkpt lat="46.25434" lon="5.90249">
        <ele>978.40002441406</ele>
        <time>2017-12-17T11:04:11Z</time>
      </trkpt>
      <trkpt lat="46.25434" lon="5.90249">
        <ele>978.40002441406</ele>
        <time>2017-12-17T11:04:16Z</time>
      </trkpt>
      <trkpt lat="46.25434" lon="5.90249">
        <ele>978.40002441406</ele>
        <time>2017-12-17T11:04:21Z</time>
      </trkpt>
      <trkpt lat="46.25434" lon="5.90249">
        <ele>978.40002441406</ele>
        <time>2017-12-17T11:04:25Z</time>
      </trkpt>
      <trkpt lat="46.25434" lon="5.90249">
        <ele>978.40002441406</ele>
        <time>2017-12-17T11:04:30Z</time>
      </trkpt>
      <trkpt lat="46.25434" lon="5.90249">
        <ele>978.40002441406</ele>
        <time>2017-12-17T11:04:35Z</time>
      </trkpt>
      <trkpt lat="46.25434" lon="5.90249">
        <ele>978.40002441406</ele>
        <time>2017-12-17T11:04:40Z</time>
      </trkpt>
      <trkpt lat="46.25434" lon="5.90249">
        <ele>978.40002441406</ele>
        <time>2017-12-17T11:04:45Z</time>
      </trkpt>
      <trkpt lat="46.25434" lon="5.90249">
        <ele>978.40002441406</ele>
        <time>2017-12-17T11:04:50Z</time>
      </trkpt>
      <trkpt lat="46.25434" lon="5.90249">
        <ele>978.40002441406</ele>
        <time>2017-12-17T11:04:55Z</time>
      </trkpt>
      <trkpt lat="46.25434" lon="5.90249">
        <ele>978.40002441406</ele>
        <time>2017-12-17T11:05:00Z</time>
      </trkpt>
      <trkpt lat="46.25434" lon="5.90249">
        <ele>978.40002441406</ele>
        <time>2017-12-17T11:05:05Z</time>
      </trkpt>
      <trkpt lat="46.25434" lon="5.90249">
        <ele>978.40002441406</ele>
        <time>2017-12-17T11:05:10Z</time>
      </trkpt>
      <trkpt lat="46.25434" lon="5.90249">
        <ele>978.40002441406</ele>
        <time>2017-12-17T11:05:15Z</time>
      </trkpt>
      <trkpt lat="46.25434" lon="5.90249">
        <ele>978.40002441406</ele>
        <time>2017-12-17T11:05:20Z</time>
      </trkpt>
      <trkpt lat="46.25434" lon="5.90249">
        <ele>978.40002441406</ele>
        <time>2017-12-17T11:05:25Z</time>
      </trkpt>
      <trkpt lat="46.25434" lon="5.90249">
        <ele>978.40002441406</ele>
        <time>2017-12-17T11:05:30Z</time>
      </trkpt>
      <trkpt lat="46.25434" lon="5.90249">
        <ele>978.40002441406</ele>
        <time>2017-12-17T11:05:35Z</time>
      </trkpt>
      <trkpt lat="46.25434" lon="5.90249">
        <ele>978.40002441406</ele>
        <time>2017-12-17T11:05:40Z</time>
      </trkpt>
      <trkpt lat="46.25434" lon="5.90249">
        <ele>978.40002441406</ele>
        <time>2017-12-17T11:05:45Z</time>
      </trkpt>
      <trkpt lat="46.25434" lon="5.90249">
        <ele>978.40002441406</ele>
        <time>2017-12-17T11:05:50Z</time>
      </trkpt>
      <trkpt lat="46.25434" lon="5.90249">
        <ele>978.40002441406</ele>
        <time>2017-12-17T11:05:55Z</time>
      </trkpt>
      <trkpt lat="46.25434" lon="5.90249">
        <ele>978.40002441406</ele>
        <time>2017-12-17T11:06:00Z</time>
      </trkpt>
      <trkpt lat="46.25434" lon="5.90249">
        <ele>978.40002441406</ele>
        <time>2017-12-17T11:06:05Z</time>
      </trkpt>
      <trkpt lat="46.25434" lon="5.90249">
        <ele>978.40002441406</ele>
        <time>2017-12-17T11:06:10Z</time>
      </trkpt>
      <trkpt lat="46.25434" lon="5.90249">
        <ele>978.40002441406</ele>
        <time>2017-12-17T11:06:15Z</time>
      </trkpt>
      <trkpt lat="46.25434" lon="5.90249">
        <ele>978.40002441406</ele>
        <time>2017-12-17T11:06:20Z</time>
      </trkpt>
      <trkpt lat="46.25434" lon="5.90249">
        <ele>978.40002441406</ele>
        <time>2017-12-17T11:06:25Z</time>
      </trkpt>
      <trkpt lat="46.25434" lon="5.90249">
        <ele>978.40002441406</ele>
        <time>2017-12-17T11:06:30Z</time>
      </trkpt>
      <trkpt lat="46.25434" lon="5.90249">
        <ele>978.40002441406</ele>
        <time>2017-12-17T11:06:35Z</time>
      </trkpt>
      <trkpt lat="46.25434" lon="5.90249">
        <ele>978.40002441406</ele>
        <time>2017-12-17T11:06:40Z</time>
      </trkpt>
      <trkpt lat="46.25434" lon="5.90249">
        <ele>978.40002441406</ele>
        <time>2017-12-17T11:06:45Z</time>
      </trkpt>
      <trkpt lat="46.25434" lon="5.90249">
        <ele>978.40002441406</ele>
        <time>2017-12-17T11:06:50Z</time>
      </trkpt>
      <trkpt lat="46.25434" lon="5.90249">
        <ele>978.40002441406</ele>
        <time>2017-12-17T11:06:53Z</time>
      </trkpt>
      <trkpt lat="46.25434" lon="5.90249">
        <ele>978.40002441406</ele>
        <time>2017-12-17T11:06:58Z</time>
      </trkpt>
      <trkpt lat="46.25434" lon="5.90249">
        <ele>978.40002441406</ele>
        <time>2017-12-17T11:07:03Z</time>
      </trkpt>
      <trkpt lat="46.25434" lon="5.90249">
        <ele>978.40002441406</ele>
        <time>2017-12-17T11:07:08Z</time>
      </trkpt>
      <trkpt lat="46.25434" lon="5.90249">
        <ele>978.40002441406</ele>
        <time>2017-12-17T11:07:13Z</time>
      </trkpt>
      <trkpt lat="46.25434" lon="5.90249">
        <ele>978.40002441406</ele>
        <time>2017-12-17T11:07:18Z</time>
      </trkpt>
      <trkpt lat="46.25434" lon="5.90249">
        <ele>978.40002441406</ele>
        <time>2017-12-17T11:07:23Z</time>
      </trkpt>
      <trkpt lat="46.25434" lon="5.90249">
        <ele>978.40002441406</ele>
        <time>2017-12-17T11:07:24Z</time>
      </trkpt>
      <trkpt lat="46.25434" lon="5.90249">
        <ele>978.40002441406</ele>
        <time>2017-12-17T11:07:29Z</time>
      </trkpt>
      <trkpt lat="46.25434" lon="5.90249">
        <ele>978.40002441406</ele>
        <time>2017-12-17T11:07:34Z</time>
      </trkpt>
      <trkpt lat="46.25434" lon="5.90249">
        <ele>978.40002441406</ele>
        <time>2017-12-17T11:07:39Z</time>
      </trkpt>
      <trkpt lat="46.25434" lon="5.90249">
        <ele>978.40002441406</ele>
        <time>2017-12-17T11:07:44Z</time>
      </trkpt>
      <trkpt lat="46.25434" lon="5.90249">
        <ele>978.40002441406</ele>
        <time>2017-12-17T11:07:49Z</time>
      </trkpt>
      <trkpt lat="46.25434" lon="5.90249">
        <ele>978.40002441406</ele>
        <time>2017-12-17T11:07:54Z</time>
      </trkpt>
      <trkpt lat="46.25434" lon="5.90249">
        <ele>978.40002441406</ele>
        <time>2017-12-17T11:07:59Z</time>
      </trkpt>
      <trkpt lat="46.25434" lon="5.90249">
        <ele>978.40002441406</ele>
        <time>2017-12-17T11:08:04Z</time>
      </trkpt>
      <trkpt lat="46.25434" lon="5.90249">
        <ele>978.40002441406</ele>
        <time>2017-12-17T11:08:09Z</time>
      </trkpt>
      <trkpt lat="46.25434" lon="5.90249">
        <ele>978.40002441406</ele>
        <time>2017-12-17T11:08:14Z</time>
      </trkpt>
      <trkpt lat="46.25434" lon="5.90249">
        <ele>978.40002441406</ele>
        <time>2017-12-17T11:08:19Z</time>
      </trkpt>
      <trkpt lat="46.25434" lon="5.90249">
        <ele>978.40002441406</ele>
        <time>2017-12-17T11:08:24Z</time>
      </trkpt>
      <trkpt lat="46.25434" lon="5.90249">
        <ele>978.40002441406</ele>
        <time>2017-12-17T11:08:29Z</time>
      </trkpt>
      <trkpt lat="46.25434" lon="5.90249">
        <ele>978.40002441406</ele>
        <time>2017-12-17T11:08:34Z</time>
      </trkpt>
      <trkpt lat="46.25434" lon="5.90249">
        <ele>978.40002441406</ele>
        <time>2017-12-17T11:08:39Z</time>
      </trkpt>
      <trkpt lat="46.25434" lon="5.90249">
        <ele>978.40002441406</ele>
        <time>2017-12-17T11:08:44Z</time>
      </trkpt>
      <trkpt lat="46.25434" lon="5.90249">
        <ele>978.40002441406</ele>
        <time>2017-12-17T11:08:49Z</time>
      </trkpt>
      <trkpt lat="46.25434" lon="5.90249">
        <ele>978.40002441406</ele>
        <time>2017-12-17T11:08:54Z</time>
      </trkpt>
      <trkpt lat="46.25434" lon="5.90249">
        <ele>978.40002441406</ele>
        <time>2017-12-17T11:08:59Z</time>
      </trkpt>
      <trkpt lat="46.25434" lon="5.90249">
        <ele>978.40002441406</ele>
        <time>2017-12-17T11:09:04Z</time>
      </trkpt>
      <trkpt lat="46.25434" lon="5.90249">
        <ele>978.40002441406</ele>
        <time>2017-12-17T11:09:09Z</time>
      </trkpt>
      <trkpt lat="46.25434" lon="5.90249">
        <ele>978.40002441406</ele>
        <time>2017-12-17T11:09:14Z</time>
      </trkpt>
      <trkpt lat="46.25434" lon="5.90249">
        <ele>978.40002441406</ele>
        <time>2017-12-17T11:09:19Z</time>
      </trkpt>
      <trkpt lat="46.25434" lon="5.90249">
        <ele>978.40002441406</ele>
        <time>2017-12-17T11:09:24Z</time>
      </trkpt>
      <trkpt lat="46.25434" lon="5.90249">
        <ele>978.40002441406</ele>
        <time>2017-12-17T11:09:29Z</time>
      </trkpt>
      <trkpt lat="46.25434" lon="5.90249">
        <ele>978.40002441406</ele>
        <time>2017-12-17T11:09:34Z</time>
      </trkpt>
      <trkpt lat="46.25434" lon="5.90249">
        <ele>978.40002441406</ele>
        <time>2017-12-17T11:09:36Z</time>
      </trkpt>
      <trkpt lat="46.25434" lon="5.90249">
        <ele>978.40002441406</ele>
        <time>2017-12-17T11:09:41Z</time>
      </trkpt>
      <trkpt lat="46.25434" lon="5.90249">
        <ele>978.40002441406</ele>
        <time>2017-12-17T11:09:46Z</time>
      </trkpt>
      <trkpt lat="46.25434" lon="5.90249">
        <ele>978.40002441406</ele>
        <time>2017-12-17T11:09:51Z</time>
      </trkpt>
      <trkpt lat="46.25434" lon="5.90249">
        <ele>978.40002441406</ele>
        <time>2017-12-17T11:09:56Z</time>
      </trkpt>
      <trkpt lat="46.25434" lon="5.90249">
        <ele>978.40002441406</ele>
        <time>2017-12-17T11:10:01Z</time>
      </trkpt>
      <trkpt lat="46.25434" lon="5.90249">
        <ele>978.40002441406</ele>
        <time>2017-12-17T11:10:06Z</time>
      </trkpt>
      <trkpt lat="46.25434" lon="5.90249">
        <ele>978.40002441406</ele>
        <time>2017-12-17T11:10:11Z</time>
      </trkpt>
      <trkpt lat="46.25434" lon="5.90249">
        <ele>978.40002441406</ele>
        <time>2017-12-17T11:10:16Z</time>
      </trkpt>
      <trkpt lat="46.25434" lon="5.90249">
        <ele>978.40002441406</ele>
        <time>2017-12-17T11:10:21Z</time>
      </trkpt>
      <trkpt lat="46.25434" lon="5.90249">
        <ele>978.40002441406</ele>
        <time>2017-12-17T11:10:26Z</time>
      </trkpt>
      <trkpt lat="46.25434" lon="5.90249">
        <ele>978.40002441406</ele>
        <time>2017-12-17T11:10:31Z</time>
      </trkpt>
      <trkpt lat="46.25434" lon="5.90249">
        <ele>978.40002441406</ele>
        <time>2017-12-17T11:10:36Z</time>
      </trkpt>
      <trkpt lat="46.25434" lon="5.90249">
        <ele>978.40002441406</ele>
        <time>2017-12-17T11:10:41Z</time>
      </trkpt>
      <trkpt lat="46.25434" lon="5.90249">
        <ele>978.40002441406</ele>
        <time>2017-12-17T11:10:46Z</time>
      </trkpt>
      <trkpt lat="46.25434" lon="5.90249">
        <ele>978.40002441406</ele>
        <time>2017-12-17T11:10:51Z</time>
      </trkpt>
      <trkpt lat="46.25434" lon="5.90249">
        <ele>978.40002441406</ele>
        <time>2017-12-17T11:10:56Z</time>
      </trkpt>
      <trkpt lat="46.25434" lon="5.90249">
        <ele>978.40002441406</ele>
        <time>2017-12-17T11:11:01Z</time>
      </trkpt>
      <trkpt lat="46.25434" lon="5.90249">
        <ele>978.40002441406</ele>
        <time>2017-12-17T11:11:06Z</time>
      </trkpt>
      <trkpt lat="46.25434" lon="5.90249">
        <ele>978.40002441406</ele>
        <time>2017-12-17T11:11:11Z</time>
      </trkpt>
      <trkpt lat="46.25434" lon="5.90249">
        <ele>978.40002441406</ele>
        <time>2017-12-17T11:11:16Z</time>
      </trkpt>
      <trkpt lat="46.25434" lon="5.90249">
        <ele>978.40002441406</ele>
        <time>2017-12-17T11:11:21Z</time>
      </trkpt>
      <trkpt lat="46.25434" lon="5.90249">
        <ele>978.40002441406</ele>
        <time>2017-12-17T11:11:26Z</time>
      </trkpt>
      <trkpt lat="46.25434" lon="5.90249">
        <ele>978.40002441406</ele>
        <time>2017-12-17T11:11:31Z</time>
      </trkpt>
      <trkpt lat="46.25434" lon="5.90249">
        <ele>978.40002441406</ele>
        <time>2017-12-17T11:11:36Z</time>
      </trkpt>
      <trkpt lat="46.25434" lon="5.90249">
        <ele>978.40002441406</ele>
        <time>2017-12-17T11:11:41Z</time>
      </trkpt>
      <trkpt lat="46.25434" lon="5.90249">
        <ele>978.40002441406</ele>
        <time>2017-12-17T11:11:43Z</time>
      </trkpt>
      <trkpt lat="46.25434" lon="5.90249">
        <ele>978.40002441406</ele>
        <time>2017-12-17T11:11:48Z</time>
      </trkpt>
      <trkpt lat="46.25434" lon="5.90249">
        <ele>978.40002441406</ele>
        <time>2017-12-17T11:11:53Z</time>
      </trkpt>
      <trkpt lat="46.25434" lon="5.90249">
        <ele>978.40002441406</ele>
        <time>2017-12-17T11:11:58Z</time>
      </trkpt>
      <trkpt lat="46.25434" lon="5.90249">
        <ele>978.40002441406</ele>
        <time>2017-12-17T11:12:03Z</time>
      </trkpt>
      <trkpt lat="46.25434" lon="5.90249">
        <ele>978.40002441406</ele>
        <time>2017-12-17T11:12:08Z</time>
      </trkpt>
      <trkpt lat="46.25434" lon="5.90249">
        <ele>978.40002441406</ele>
        <time>2017-12-17T11:12:13Z</time>
      </trkpt>
      <trkpt lat="46.25434" lon="5.90249">
        <ele>978.40002441406</ele>
        <time>2017-12-17T11:12:18Z</time>
      </trkpt>
      <trkpt lat="46.25434" lon="5.90249">
        <ele>978.40002441406</ele>
        <time>2017-12-17T11:12:23Z</time>
      </trkpt>
      <trkpt lat="46.25434" lon="5.90249">
        <ele>978.40002441406</ele>
        <time>2017-12-17T11:12:28Z</time>
      </trkpt>
      <trkpt lat="46.25434" lon="5.90249">
        <ele>978.40002441406</ele>
        <time>2017-12-17T11:12:33Z</time>
      </trkpt>
      <trkpt lat="46.25434" lon="5.90249">
        <ele>978.40002441406</ele>
        <time>2017-12-17T11:12:38Z</time>
      </trkpt>
      <trkpt lat="46.25434" lon="5.90249">
        <ele>978.40002441406</ele>
        <time>2017-12-17T11:12:43Z</time>
      </trkpt>
      <trkpt lat="46.25434" lon="5.90249">
        <ele>978.40002441406</ele>
        <time>2017-12-17T11:12:48Z</time>
      </trkpt>
      <trkpt lat="46.25446" lon="5.90248">
        <ele>979</ele>
        <time>2017-12-17T11:12:53Z</time>
      </trkpt>
      <trkpt lat="46.25446" lon="5.90248">
        <ele>979</ele>
        <time>2017-12-17T11:12:58Z</time>
      </trkpt>
      <trkpt lat="46.25455" lon="5.90248">
        <ele>978.79998779297</ele>
        <time>2017-12-17T11:13:03Z</time>
      </trkpt>
      <trkpt lat="46.25458" lon="5.90248">
        <ele>978.90002441406</ele>
        <time>2017-12-17T11:13:08Z</time>
      </trkpt>
      <trkpt lat="46.25458" lon="5.90248">
        <ele>978.90002441406</ele>
        <time>2017-12-17T11:13:13Z</time>
      </trkpt>
      <trkpt lat="46.25468" lon="5.90248">
        <ele>979</ele>
        <time>2017-12-17T11:13:18Z</time>
      </trkpt>
      <trkpt lat="46.25469" lon="5.90248">
        <ele>979</ele>
        <time>2017-12-17T11:13:23Z</time>
      </trkpt>
      <trkpt lat="46.25469" lon="5.90248">
        <ele>979</ele>
        <time>2017-12-17T11:13:28Z</time>
      </trkpt>
      <trkpt lat="46.25481" lon="5.90249">
        <ele>979.90002441406</ele>
        <time>2017-12-17T11:13:33Z</time>
      </trkpt>
      <trkpt lat="46.25481" lon="5.90249">
        <ele>979.90002441406</ele>
        <time>2017-12-17T11:13:38Z</time>
      </trkpt>
      <trkpt lat="46.25481" lon="5.90249">
        <ele>979.90002441406</ele>
        <time>2017-12-17T11:13:43Z</time>
      </trkpt>
      <trkpt lat="46.25492" lon="5.9025">
        <ele>981.70001220703</ele>
        <time>2017-12-17T11:13:48Z</time>
      </trkpt>
      <trkpt lat="46.25493" lon="5.90251">
        <ele>981.70001220703</ele>
        <time>2017-12-17T11:13:53Z</time>
      </trkpt>
      <trkpt lat="46.25493" lon="5.90251">
        <ele>981.70001220703</ele>
        <time>2017-12-17T11:13:58Z</time>
      </trkpt>
      <trkpt lat="46.25493" lon="5.90251">
        <ele>981.70001220703</ele>
        <time>2017-12-17T11:14:03Z</time>
      </trkpt>
      <trkpt lat="46.25502" lon="5.90256">
        <ele>985</ele>
        <time>2017-12-17T11:14:08Z</time>
      </trkpt>
      <trkpt lat="46.25504" lon="5.90256">
        <ele>986</ele>
        <time>2017-12-17T11:14:13Z</time>
      </trkpt>
      <trkpt lat="46.25504" lon="5.90256">
        <ele>986</ele>
        <time>2017-12-17T11:14:18Z</time>
      </trkpt>
      <trkpt lat="46.25504" lon="5.90256">
        <ele>986</ele>
        <time>2017-12-17T11:14:23Z</time>
      </trkpt>
      <trkpt lat="46.25504" lon="5.90256">
        <ele>986</ele>
        <time>2017-12-17T11:14:28Z</time>
      </trkpt>
      <trkpt lat="46.25504" lon="5.90256">
        <ele>986</ele>
        <time>2017-12-17T11:14:33Z</time>
      </trkpt>
      <trkpt lat="46.25504" lon="5.90256">
        <ele>986</ele>
        <time>2017-12-17T11:14:34Z</time>
      </trkpt>
      <trkpt lat="46.25504" lon="5.90256">
        <ele>986</ele>
        <time>2017-12-17T11:14:39Z</time>
      </trkpt>
      <trkpt lat="46.25504" lon="5.90256">
        <ele>986</ele>
        <time>2017-12-17T11:14:44Z</time>
      </trkpt>
      <trkpt lat="46.25504" lon="5.90256">
        <ele>986</ele>
        <time>2017-12-17T11:14:49Z</time>
      </trkpt>
      <trkpt lat="46.25504" lon="5.90256">
        <ele>986</ele>
        <time>2017-12-17T11:14:54Z</time>
      </trkpt>
      <trkpt lat="46.25504" lon="5.90256">
        <ele>986</ele>
        <time>2017-12-17T11:14:59Z</time>
      </trkpt>
      <trkpt lat="46.25504" lon="5.90256">
        <ele>986</ele>
        <time>2017-12-17T11:15:04Z</time>
      </trkpt>
      <trkpt lat="46.25504" lon="5.90256">
        <ele>986</ele>
        <time>2017-12-17T11:15:09Z</time>
      </trkpt>
      <trkpt lat="46.25504" lon="5.90256">
        <ele>986</ele>
        <time>2017-12-17T11:15:14Z</time>
      </trkpt>
      <trkpt lat="46.25504" lon="5.90256">
        <ele>986</ele>
        <time>2017-12-17T11:15:19Z</time>
      </trkpt>
      <trkpt lat="46.25504" lon="5.90256">
        <ele>986</ele>
        <time>2017-12-17T11:15:24Z</time>
      </trkpt>
      <trkpt lat="46.25504" lon="5.90256">
        <ele>986</ele>
        <time>2017-12-17T11:15:29Z</time>
      </trkpt>
      <trkpt lat="46.25504" lon="5.90256">
        <ele>986</ele>
        <time>2017-12-17T11:15:34Z</time>
      </trkpt>
      <trkpt lat="46.25504" lon="5.90256">
        <ele>986</ele>
        <time>2017-12-17T11:15:39Z</time>
      </trkpt>
      <trkpt lat="46.25504" lon="5.90256">
        <ele>986</ele>
        <time>2017-12-17T11:15:44Z</time>
      </trkpt>
      <trkpt lat="46.25504" lon="5.90256">
        <ele>986</ele>
        <time>2017-12-17T11:15:49Z</time>
      </trkpt>
      <trkpt lat="46.25504" lon="5.90256">
        <ele>986</ele>
        <time>2017-12-17T11:15:54Z</time>
      </trkpt>
      <trkpt lat="46.25504" lon="5.90256">
        <ele>986</ele>
        <time>2017-12-17T11:15:59Z</time>
      </trkpt>
      <trkpt lat="46.25504" lon="5.90256">
        <ele>986</ele>
        <time>2017-12-17T11:16:04Z</time>
      </trkpt>
      <trkpt lat="46.25504" lon="5.90256">
        <ele>986</ele>
        <time>2017-12-17T11:16:09Z</time>
      </trkpt>
      <trkpt lat="46.25504" lon="5.90256">
        <ele>986</ele>
        <time>2017-12-17T11:16:14Z</time>
      </trkpt>
      <trkpt lat="46.25504" lon="5.90256">
        <ele>986</ele>
        <time>2017-12-17T11:16:19Z</time>
      </trkpt>
      <trkpt lat="46.25504" lon="5.90256">
        <ele>986</ele>
        <time>2017-12-17T11:16:24Z</time>
      </trkpt>
      <trkpt lat="46.25514" lon="5.90256">
        <ele>994.79998779297</ele>
        <time>2017-12-17T11:16:29Z</time>
      </trkpt>
      <trkpt lat="46.25514" lon="5.90256">
        <ele>995.5</ele>
        <time>2017-12-17T11:16:34Z</time>
      </trkpt>
      <trkpt lat="46.25514" lon="5.90256">
        <ele>995.5</ele>
        <time>2017-12-17T11:16:39Z</time>
      </trkpt>
      <trkpt lat="46.25514" lon="5.90256">
        <ele>995.5</ele>
        <time>2017-12-17T11:16:44Z</time>
      </trkpt>
      <trkpt lat="46.25526" lon="5.90259">
        <ele>1001.200012207</ele>
        <time>2017-12-17T11:16:49Z</time>
      </trkpt>
      <trkpt lat="46.25526" lon="5.90259">
        <ele>1001.200012207</ele>
        <time>2017-12-17T11:16:54Z</time>
      </trkpt>
      <trkpt lat="46.25526" lon="5.90259">
        <ele>1001.200012207</ele>
        <time>2017-12-17T11:16:59Z</time>
      </trkpt>
      <trkpt lat="46.25537" lon="5.90264">
        <ele>1006.299987793</ele>
        <time>2017-12-17T11:17:04Z</time>
      </trkpt>
      <trkpt lat="46.25537" lon="5.90264">
        <ele>1006.299987793</ele>
        <time>2017-12-17T11:17:08Z</time>
      </trkpt>
      <trkpt lat="46.25537" lon="5.90264">
        <ele>1006.299987793</ele>
        <time>2017-12-17T11:17:13Z</time>
      </trkpt>
      <trkpt lat="46.25546" lon="5.90275">
        <ele>1011.700012207</ele>
        <time>2017-12-17T11:17:18Z</time>
      </trkpt>
      <trkpt lat="46.25546" lon="5.90275">
        <ele>1011.700012207</ele>
        <time>2017-12-17T11:17:23Z</time>
      </trkpt>
      <trkpt lat="46.25546" lon="5.90275">
        <ele>1011.700012207</ele>
        <time>2017-12-17T11:17:28Z</time>
      </trkpt>
      <trkpt lat="46.25552" lon="5.90288">
        <ele>1016.700012207</ele>
        <time>2017-12-17T11:17:33Z</time>
      </trkpt>
      <trkpt lat="46.25553" lon="5.90289">
        <ele>1017</ele>
        <time>2017-12-17T11:17:38Z</time>
      </trkpt>
      <trkpt lat="46.25553" lon="5.90289">
        <ele>1017</ele>
        <time>2017-12-17T11:17:43Z</time>
      </trkpt>
      <trkpt lat="46.25558" lon="5.903">
        <ele>1021.5</ele>
        <time>2017-12-17T11:17:48Z</time>
      </trkpt>
      <trkpt lat="46.25559" lon="5.90302">
        <ele>1022.200012207</ele>
        <time>2017-12-17T11:17:50Z</time>
      </trkpt>
      <trkpt lat="46.25559" lon="5.90302">
        <ele>1022.200012207</ele>
        <time>2017-12-17T11:17:55Z</time>
      </trkpt>
      <trkpt lat="46.25559" lon="5.90302">
        <ele>1022.200012207</ele>
        <time>2017-12-17T11:18:00Z</time>
      </trkpt>
      <trkpt lat="46.25566" lon="5.90312">
        <ele>1026.9000244141</ele>
        <time>2017-12-17T11:18:05Z</time>
      </trkpt>
      <trkpt lat="46.25567" lon="5.90313">
        <ele>1027.6999511719</ele>
        <time>2017-12-17T11:18:10Z</time>
      </trkpt>
      <trkpt lat="46.25567" lon="5.90313">
        <ele>1027.6999511719</ele>
        <time>2017-12-17T11:18:15Z</time>
      </trkpt>
      <trkpt lat="46.25573" lon="5.90325">
        <ele>1033.5</ele>
        <time>2017-12-17T11:18:20Z</time>
      </trkpt>
      <trkpt lat="46.25576" lon="5.90331">
        <ele>1034.6999511719</ele>
        <time>2017-12-17T11:18:25Z</time>
      </trkpt>
      <trkpt lat="46.25579" lon="5.90337">
        <ele>1037.0999755859</ele>
        <time>2017-12-17T11:18:30Z</time>
      </trkpt>
      <trkpt lat="46.25579" lon="5.90339">
        <ele>1038.1999511719</ele>
        <time>2017-12-17T11:18:35Z</time>
      </trkpt>
      <trkpt lat="46.25579" lon="5.90339">
        <ele>1038.1999511719</ele>
        <time>2017-12-17T11:18:40Z</time>
      </trkpt>
      <trkpt lat="46.25585" lon="5.9035">
        <ele>1042.0999755859</ele>
        <time>2017-12-17T11:18:45Z</time>
      </trkpt>
      <trkpt lat="46.25586" lon="5.90352">
        <ele>1042.9000244141</ele>
        <time>2017-12-17T11:18:50Z</time>
      </trkpt>
      <trkpt lat="46.25586" lon="5.90352">
        <ele>1042.9000244141</ele>
        <time>2017-12-17T11:18:55Z</time>
      </trkpt>
      <trkpt lat="46.25588" lon="5.90365">
        <ele>1046.3000488281</ele>
        <time>2017-12-17T11:19:00Z</time>
      </trkpt>
      <trkpt lat="46.25589" lon="5.90368">
        <ele>1047.1999511719</ele>
        <time>2017-12-17T11:19:05Z</time>
      </trkpt>
      <trkpt lat="46.25589" lon="5.90368">
        <ele>1047.1999511719</ele>
        <time>2017-12-17T11:19:10Z</time>
      </trkpt>
      <trkpt lat="46.25589" lon="5.90368">
        <ele>1047.1999511719</ele>
        <time>2017-12-17T11:19:15Z</time>
      </trkpt>
      <trkpt lat="46.25594" lon="5.90383">
        <ele>1052</ele>
        <time>2017-12-17T11:19:20Z</time>
      </trkpt>
      <trkpt lat="46.25594" lon="5.90383">
        <ele>1052</ele>
        <time>2017-12-17T11:19:25Z</time>
      </trkpt>
      <trkpt lat="46.25594" lon="5.90383">
        <ele>1052</ele>
        <time>2017-12-17T11:19:30Z</time>
      </trkpt>
      <trkpt lat="46.25599" lon="5.90398">
        <ele>1056.5999755859</ele>
        <time>2017-12-17T11:19:35Z</time>
      </trkpt>
      <trkpt lat="46.256" lon="5.90399">
        <ele>1056.9000244141</ele>
        <time>2017-12-17T11:19:40Z</time>
      </trkpt>
      <trkpt lat="46.256" lon="5.90399">
        <ele>1056.9000244141</ele>
        <time>2017-12-17T11:19:45Z</time>
      </trkpt>
      <trkpt lat="46.25603" lon="5.90413">
        <ele>1060.8000488281</ele>
        <time>2017-12-17T11:19:50Z</time>
      </trkpt>
      <trkpt lat="46.25603" lon="5.90415">
        <ele>1061.1999511719</ele>
        <time>2017-12-17T11:19:55Z</time>
      </trkpt>
      <trkpt lat="46.25603" lon="5.90415">
        <ele>1061.1999511719</ele>
        <time>2017-12-17T11:20:00Z</time>
      </trkpt>
      <trkpt lat="46.25606" lon="5.90428">
        <ele>1062.6999511719</ele>
        <time>2017-12-17T11:20:05Z</time>
      </trkpt>
      <trkpt lat="46.25606" lon="5.90431">
        <ele>1063</ele>
        <time>2017-12-17T11:20:10Z</time>
      </trkpt>
      <trkpt lat="46.25606" lon="5.90431">
        <ele>1063</ele>
        <time>2017-12-17T11:20:15Z</time>
      </trkpt>
      <trkpt lat="46.2561" lon="5.90446">
        <ele>1064.5999755859</ele>
        <time>2017-12-17T11:20:20Z</time>
      </trkpt>
      <trkpt lat="46.2561" lon="5.90448">
        <ele>1064.8000488281</ele>
        <time>2017-12-17T11:20:25Z</time>
      </trkpt>
      <trkpt lat="46.2561" lon="5.90448">
        <ele>1064.8000488281</ele>
        <time>2017-12-17T11:20:30Z</time>
      </trkpt>
      <trkpt lat="46.25618" lon="5.9046">
        <ele>1066.9000244141</ele>
        <time>2017-12-17T11:20:35Z</time>
      </trkpt>
      <trkpt lat="46.25618" lon="5.9046">
        <ele>1066.9000244141</ele>
        <time>2017-12-17T11:20:40Z</time>
      </trkpt>
      <trkpt lat="46.25623" lon="5.9047">
        <ele>1069.9000244141</ele>
        <time>2017-12-17T11:20:45Z</time>
      </trkpt>
      <trkpt lat="46.25623" lon="5.9047">
        <ele>1069.9000244141</ele>
        <time>2017-12-17T11:20:50Z</time>
      </trkpt>
      <trkpt lat="46.25623" lon="5.9047">
        <ele>1069.9000244141</ele>
        <time>2017-12-17T11:20:55Z</time>
      </trkpt>
      <trkpt lat="46.25624" lon="5.90484">
        <ele>1075.5</ele>
        <time>2017-12-17T11:21:00Z</time>
      </trkpt>
      <trkpt lat="46.25622" lon="5.90486">
        <ele>1076.3000488281</ele>
        <time>2017-12-17T11:21:05Z</time>
      </trkpt>
      <trkpt lat="46.25622" lon="5.90486">
        <ele>1076.3000488281</ele>
        <time>2017-12-17T11:21:10Z</time>
      </trkpt>
      <trkpt lat="46.25612" lon="5.90494">
        <ele>1081.1999511719</ele>
        <time>2017-12-17T11:21:15Z</time>
      </trkpt>
      <trkpt lat="46.25611" lon="5.90494">
        <ele>1081.5999755859</ele>
        <time>2017-12-17T11:21:20Z</time>
      </trkpt>
      <trkpt lat="46.25611" lon="5.90494">
        <ele>1081.5999755859</ele>
        <time>2017-12-17T11:21:25Z</time>
      </trkpt>
      <trkpt lat="46.25599" lon="5.90492">
        <ele>1085.8000488281</ele>
        <time>2017-12-17T11:21:30Z</time>
      </trkpt>
      <trkpt lat="46.25599" lon="5.90492">
        <ele>1085.8000488281</ele>
        <time>2017-12-17T11:21:35Z</time>
      </trkpt>
      <trkpt lat="46.25589" lon="5.90495">
        <ele>1088.9000244141</ele>
        <time>2017-12-17T11:21:40Z</time>
      </trkpt>
      <trkpt lat="46.25588" lon="5.90496">
        <ele>1089.5</ele>
        <time>2017-12-17T11:21:45Z</time>
      </trkpt>
      <trkpt lat="46.25588" lon="5.90496">
        <ele>1089.5</ele>
        <time>2017-12-17T11:21:50Z</time>
      </trkpt>
      <trkpt lat="46.25581" lon="5.90504">
        <ele>1093</ele>
        <time>2017-12-17T11:21:55Z</time>
      </trkpt>
      <trkpt lat="46.2558" lon="5.90507">
        <ele>1093.5</ele>
        <time>2017-12-17T11:22:00Z</time>
      </trkpt>
      <trkpt lat="46.2558" lon="5.90507">
        <ele>1093.5</ele>
        <time>2017-12-17T11:22:05Z</time>
      </trkpt>
      <trkpt lat="46.25582" lon="5.90523">
        <ele>1095.5</ele>
        <time>2017-12-17T11:22:10Z</time>
      </trkpt>
      <trkpt lat="46.25582" lon="5.90524">
        <ele>1095.6999511719</ele>
        <time>2017-12-17T11:22:15Z</time>
      </trkpt>
      <trkpt lat="46.25582" lon="5.90524">
        <ele>1095.6999511719</ele>
        <time>2017-12-17T11:22:20Z</time>
      </trkpt>
      <trkpt lat="46.25591" lon="5.90534">
        <ele>1098</ele>
        <time>2017-12-17T11:22:25Z</time>
      </trkpt>
      <trkpt lat="46.25591" lon="5.90534">
        <ele>1098</ele>
        <time>2017-12-17T11:22:30Z</time>
      </trkpt>
      <trkpt lat="46.256" lon="5.90541">
        <ele>1099.8000488281</ele>
        <time>2017-12-17T11:22:35Z</time>
      </trkpt>
      <trkpt lat="46.25601" lon="5.90542">
        <ele>1100.0999755859</ele>
        <time>2017-12-17T11:22:40Z</time>
      </trkpt>
      <trkpt lat="46.25601" lon="5.90542">
        <ele>1100.0999755859</ele>
        <time>2017-12-17T11:22:45Z</time>
      </trkpt>
      <trkpt lat="46.2561" lon="5.90551">
        <ele>1101.5</ele>
        <time>2017-12-17T11:22:50Z</time>
      </trkpt>
      <trkpt lat="46.25611" lon="5.90552">
        <ele>1101.5999755859</ele>
        <time>2017-12-17T11:22:55Z</time>
      </trkpt>
      <trkpt lat="46.25611" lon="5.90552">
        <ele>1101.5999755859</ele>
        <time>2017-12-17T11:23:00Z</time>
      </trkpt>
      <trkpt lat="46.25622" lon="5.9056">
        <ele>1102.5</ele>
        <time>2017-12-17T11:23:05Z</time>
      </trkpt>
      <trkpt lat="46.25622" lon="5.9056">
        <ele>1102.5</ele>
        <time>2017-12-17T11:23:10Z</time>
      </trkpt>
      <trkpt lat="46.2563" lon="5.90568">
        <ele>1103.3000488281</ele>
        <time>2017-12-17T11:23:15Z</time>
      </trkpt>
      <trkpt lat="46.25632" lon="5.90569">
        <ele>1103.4000244141</ele>
        <time>2017-12-17T11:23:20Z</time>
      </trkpt>
      <trkpt lat="46.25632" lon="5.90569">
        <ele>1103.4000244141</ele>
        <time>2017-12-17T11:23:25Z</time>
      </trkpt>
      <trkpt lat="46.25641" lon="5.90577">
        <ele>1104</ele>
        <time>2017-12-17T11:23:27Z</time>
      </trkpt>
      <trkpt lat="46.25643" lon="5.9058">
        <ele>1104.0999755859</ele>
        <time>2017-12-17T11:23:32Z</time>
      </trkpt>
      <trkpt lat="46.25643" lon="5.9058">
        <ele>1104.0999755859</ele>
        <time>2017-12-17T11:23:37Z</time>
      </trkpt>
      <trkpt lat="46.25647" lon="5.90596">
        <ele>1104.6999511719</ele>
        <time>2017-12-17T11:23:42Z</time>
      </trkpt>
      <trkpt lat="46.25647" lon="5.90596">
        <ele>1104.6999511719</ele>
        <time>2017-12-17T11:23:47Z</time>
      </trkpt>
      <trkpt lat="46.25647" lon="5.90596">
        <ele>1104.6999511719</ele>
        <time>2017-12-17T11:23:52Z</time>
      </trkpt>
      <trkpt lat="46.2565" lon="5.90613">
        <ele>1106.5</ele>
        <time>2017-12-17T11:23:57Z</time>
      </trkpt>
      <trkpt lat="46.2565" lon="5.90613">
        <ele>1106.5</ele>
        <time>2017-12-17T11:24:02Z</time>
      </trkpt>
      <trkpt lat="46.2565" lon="5.90613">
        <ele>1106.5</ele>
        <time>2017-12-17T11:24:07Z</time>
      </trkpt>
      <trkpt lat="46.25655" lon="5.90626">
        <ele>1107.8000488281</ele>
        <time>2017-12-17T11:24:12Z</time>
      </trkpt>
      <trkpt lat="46.25656" lon="5.90627">
        <ele>1107.9000244141</ele>
        <time>2017-12-17T11:24:17Z</time>
      </trkpt>
      <trkpt lat="46.25656" lon="5.90627">
        <ele>1107.9000244141</ele>
        <time>2017-12-17T11:24:22Z</time>
      </trkpt>
      <trkpt lat="46.2566" lon="5.90644">
        <ele>1109.0999755859</ele>
        <time>2017-12-17T11:24:27Z</time>
      </trkpt>
      <trkpt lat="46.2566" lon="5.90644">
        <ele>1109.0999755859</ele>
        <time>2017-12-17T11:24:32Z</time>
      </trkpt>
      <trkpt lat="46.2566" lon="5.90644">
        <ele>1109.0999755859</ele>
        <time>2017-12-17T11:24:37Z</time>
      </trkpt>
      <trkpt lat="46.25667" lon="5.90657">
        <ele>1110.5999755859</ele>
        <time>2017-12-17T11:24:42Z</time>
      </trkpt>
      <trkpt lat="46.25667" lon="5.90657">
        <ele>1110.5999755859</ele>
        <time>2017-12-17T11:24:47Z</time>
      </trkpt>
      <trkpt lat="46.25673" lon="5.90668">
        <ele>1112.0999755859</ele>
        <time>2017-12-17T11:24:52Z</time>
      </trkpt>
      <trkpt lat="46.25675" lon="5.9067">
        <ele>1112.4000244141</ele>
        <time>2017-12-17T11:24:57Z</time>
      </trkpt>
      <trkpt lat="46.25675" lon="5.9067">
        <ele>1112.4000244141</ele>
        <time>2017-12-17T11:25:02Z</time>
      </trkpt>
      <trkpt lat="46.25681" lon="5.90681">
        <ele>1113.1999511719</ele>
        <time>2017-12-17T11:25:07Z</time>
      </trkpt>
      <trkpt lat="46.25681" lon="5.90682">
        <ele>1113.4000244141</ele>
        <time>2017-12-17T11:25:12Z</time>
      </trkpt>
      <trkpt lat="46.25681" lon="5.90682">
        <ele>1113.4000244141</ele>
        <time>2017-12-17T11:25:17Z</time>
      </trkpt>
      <trkpt lat="46.25688" lon="5.90694">
        <ele>1115.0999755859</ele>
        <time>2017-12-17T11:25:22Z</time>
      </trkpt>
      <trkpt lat="46.25689" lon="5.90695">
        <ele>1115.3000488281</ele>
        <time>2017-12-17T11:25:27Z</time>
      </trkpt>
      <trkpt lat="46.25689" lon="5.90695">
        <ele>1115.3000488281</ele>
        <time>2017-12-17T11:25:32Z</time>
      </trkpt>
      <trkpt lat="46.25695" lon="5.90707">
        <ele>1117.4000244141</ele>
        <time>2017-12-17T11:25:37Z</time>
      </trkpt>
      <trkpt lat="46.25695" lon="5.90708">
        <ele>1117.5999755859</ele>
        <time>2017-12-17T11:25:42Z</time>
      </trkpt>
      <trkpt lat="46.25695" lon="5.90708">
        <ele>1117.5999755859</ele>
        <time>2017-12-17T11:25:46Z</time>
      </trkpt>
      <trkpt lat="46.25695" lon="5.90708">
        <ele>1117.5999755859</ele>
        <time>2017-12-17T11:25:51Z</time>
      </trkpt>
      <trkpt lat="46.25695" lon="5.90708">
        <ele>1117.5999755859</ele>
        <time>2017-12-17T11:25:56Z</time>
      </trkpt>
      <trkpt lat="46.25703" lon="5.90721">
        <ele>1118.8000488281</ele>
        <time>2017-12-17T11:26:01Z</time>
      </trkpt>
      <trkpt lat="46.25703" lon="5.90721">
        <ele>1118.8000488281</ele>
        <time>2017-12-17T11:26:06Z</time>
      </trkpt>
      <trkpt lat="46.25711" lon="5.90734">
        <ele>1119.5999755859</ele>
        <time>2017-12-17T11:26:11Z</time>
      </trkpt>
      <trkpt lat="46.25711" lon="5.90735">
        <ele>1119.5999755859</ele>
        <time>2017-12-17T11:26:16Z</time>
      </trkpt>
      <trkpt lat="46.25711" lon="5.90735">
        <ele>1119.5999755859</ele>
        <time>2017-12-17T11:26:21Z</time>
      </trkpt>
      <trkpt lat="46.25711" lon="5.90735">
        <ele>1119.5999755859</ele>
        <time>2017-12-17T11:26:22Z</time>
      </trkpt>
      <trkpt lat="46.25721" lon="5.90745">
        <ele>1120.9000244141</ele>
        <time>2017-12-17T11:26:27Z</time>
      </trkpt>
      <trkpt lat="46.25721" lon="5.90745">
        <ele>1120.9000244141</ele>
        <time>2017-12-17T11:26:28Z</time>
      </trkpt>
      <trkpt lat="46.25721" lon="5.90745">
        <ele>1120.9000244141</ele>
        <time>2017-12-17T11:26:32Z</time>
      </trkpt>
      <trkpt lat="46.25721" lon="5.90745">
        <ele>1120.9000244141</ele>
        <time>2017-12-17T11:26:37Z</time>
      </trkpt>
      <trkpt lat="46.25721" lon="5.90745">
        <ele>1120.9000244141</ele>
        <time>2017-12-17T11:26:42Z</time>
      </trkpt>
      <trkpt lat="46.25721" lon="5.90745">
        <ele>1120.9000244141</ele>
        <time>2017-12-17T11:26:47Z</time>
      </trkpt>
      <trkpt lat="46.25721" lon="5.90745">
        <ele>1120.9000244141</ele>
        <time>2017-12-17T11:26:52Z</time>
      </trkpt>
      <trkpt lat="46.25721" lon="5.90745">
        <ele>1120.9000244141</ele>
        <time>2017-12-17T11:26:57Z</time>
      </trkpt>
      <trkpt lat="46.25721" lon="5.90745">
        <ele>1120.9000244141</ele>
        <time>2017-12-17T11:27:02Z</time>
      </trkpt>
      <trkpt lat="46.25721" lon="5.90745">
        <ele>1120.9000244141</ele>
        <time>2017-12-17T11:27:07Z</time>
      </trkpt>
      <trkpt lat="46.25721" lon="5.90745">
        <ele>1120.9000244141</ele>
        <time>2017-12-17T11:27:12Z</time>
      </trkpt>
      <trkpt lat="46.25721" lon="5.90745">
        <ele>1120.9000244141</ele>
        <time>2017-12-17T11:27:17Z</time>
      </trkpt>
      <trkpt lat="46.25721" lon="5.90745">
        <ele>1120.9000244141</ele>
        <time>2017-12-17T11:27:22Z</time>
      </trkpt>
      <trkpt lat="46.25721" lon="5.90745">
        <ele>1120.9000244141</ele>
        <time>2017-12-17T11:27:27Z</time>
      </trkpt>
      <trkpt lat="46.25721" lon="5.90745">
        <ele>1120.9000244141</ele>
        <time>2017-12-17T11:27:32Z</time>
      </trkpt>
      <trkpt lat="46.25721" lon="5.90745">
        <ele>1120.9000244141</ele>
        <time>2017-12-17T11:27:37Z</time>
      </trkpt>
      <trkpt lat="46.25721" lon="5.90745">
        <ele>1120.9000244141</ele>
        <time>2017-12-17T11:27:42Z</time>
      </trkpt>
      <trkpt lat="46.25721" lon="5.90745">
        <ele>1120.9000244141</ele>
        <time>2017-12-17T11:27:47Z</time>
      </trkpt>
      <trkpt lat="46.25721" lon="5.90745">
        <ele>1120.9000244141</ele>
        <time>2017-12-17T11:27:52Z</time>
      </trkpt>
      <trkpt lat="46.25721" lon="5.90745">
        <ele>1120.9000244141</ele>
        <time>2017-12-17T11:27:57Z</time>
      </trkpt>
      <trkpt lat="46.25721" lon="5.90745">
        <ele>1120.9000244141</ele>
        <time>2017-12-17T11:28:02Z</time>
      </trkpt>
      <trkpt lat="46.25721" lon="5.90745">
        <ele>1120.9000244141</ele>
        <time>2017-12-17T11:28:07Z</time>
      </trkpt>
      <trkpt lat="46.25721" lon="5.90745">
        <ele>1120.9000244141</ele>
        <time>2017-12-17T11:28:12Z</time>
      </trkpt>
      <trkpt lat="46.25721" lon="5.90745">
        <ele>1120.9000244141</ele>
        <time>2017-12-17T11:28:17Z</time>
      </trkpt>
      <trkpt lat="46.25721" lon="5.90745">
        <ele>1120.9000244141</ele>
        <time>2017-12-17T11:28:22Z</time>
      </trkpt>
      <trkpt lat="46.25721" lon="5.90745">
        <ele>1120.9000244141</ele>
        <time>2017-12-17T11:28:27Z</time>
      </trkpt>
      <trkpt lat="46.25721" lon="5.90745">
        <ele>1120.9000244141</ele>
        <time>2017-12-17T11:28:32Z</time>
      </trkpt>
      <trkpt lat="46.25721" lon="5.90745">
        <ele>1120.9000244141</ele>
        <time>2017-12-17T11:28:37Z</time>
      </trkpt>
      <trkpt lat="46.25721" lon="5.90745">
        <ele>1120.9000244141</ele>
        <time>2017-12-17T11:28:42Z</time>
      </trkpt>
      <trkpt lat="46.25721" lon="5.90745">
        <ele>1120.9000244141</ele>
        <time>2017-12-17T11:28:47Z</time>
      </trkpt>
      <trkpt lat="46.25721" lon="5.90745">
        <ele>1120.9000244141</ele>
        <time>2017-12-17T11:28:52Z</time>
      </trkpt>
      <trkpt lat="46.25721" lon="5.90745">
        <ele>1120.9000244141</ele>
        <time>2017-12-17T11:28:57Z</time>
      </trkpt>
      <trkpt lat="46.25721" lon="5.90745">
        <ele>1120.9000244141</ele>
        <time>2017-12-17T11:29:02Z</time>
      </trkpt>
      <trkpt lat="46.25721" lon="5.90745">
        <ele>1120.9000244141</ele>
        <time>2017-12-17T11:29:07Z</time>
      </trkpt>
      <trkpt lat="46.25721" lon="5.90745">
        <ele>1120.9000244141</ele>
        <time>2017-12-17T11:29:12Z</time>
      </trkpt>
      <trkpt lat="46.25721" lon="5.90745">
        <ele>1120.9000244141</ele>
        <time>2017-12-17T11:29:17Z</time>
      </trkpt>
      <trkpt lat="46.25721" lon="5.90745">
        <ele>1120.9000244141</ele>
        <time>2017-12-17T11:29:22Z</time>
      </trkpt>
      <trkpt lat="46.25721" lon="5.90745">
        <ele>1120.9000244141</ele>
        <time>2017-12-17T11:29:27Z</time>
      </trkpt>
      <trkpt lat="46.25721" lon="5.90745">
        <ele>1120.9000244141</ele>
        <time>2017-12-17T11:29:32Z</time>
      </trkpt>
      <trkpt lat="46.25721" lon="5.90745">
        <ele>1120.9000244141</ele>
        <time>2017-12-17T11:29:37Z</time>
      </trkpt>
      <trkpt lat="46.25721" lon="5.90745">
        <ele>1120.9000244141</ele>
        <time>2017-12-17T11:29:40Z</time>
      </trkpt>
      <trkpt lat="46.25721" lon="5.90745">
        <ele>1120.9000244141</ele>
        <time>2017-12-17T11:29:45Z</time>
      </trkpt>
      <trkpt lat="46.25729" lon="5.90756">
        <ele>1120.9000244141</ele>
        <time>2017-12-17T11:29:50Z</time>
      </trkpt>
      <trkpt lat="46.25729" lon="5.90756">
        <ele>1120.9000244141</ele>
        <time>2017-12-17T11:29:55Z</time>
      </trkpt>
      <trkpt lat="46.25729" lon="5.90756">
        <ele>1120.9000244141</ele>
        <time>2017-12-17T11:30:00Z</time>
      </trkpt>
      <trkpt lat="46.25723" lon="5.90766">
        <ele>1123.1999511719</ele>
        <time>2017-12-17T11:30:05Z</time>
      </trkpt>
      <trkpt lat="46.25722" lon="5.90767">
        <ele>1123.5999755859</ele>
        <time>2017-12-17T11:30:10Z</time>
      </trkpt>
      <trkpt lat="46.25722" lon="5.90767">
        <ele>1123.5999755859</ele>
        <time>2017-12-17T11:30:15Z</time>
      </trkpt>
      <trkpt lat="46.25713" lon="5.90772">
        <ele>1126.0999755859</ele>
        <time>2017-12-17T11:30:20Z</time>
      </trkpt>
      <trkpt lat="46.2571" lon="5.90772">
        <ele>1126.8000488281</ele>
        <time>2017-12-17T11:30:25Z</time>
      </trkpt>
      <trkpt lat="46.2571" lon="5.90772">
        <ele>1126.8000488281</ele>
        <time>2017-12-17T11:30:30Z</time>
      </trkpt>
      <trkpt lat="46.25699" lon="5.90774">
        <ele>1129.6999511719</ele>
        <time>2017-12-17T11:30:35Z</time>
      </trkpt>
      <trkpt lat="46.25699" lon="5.90774">
        <ele>1129.9000244141</ele>
        <time>2017-12-17T11:30:40Z</time>
      </trkpt>
      <trkpt lat="46.25699" lon="5.90774">
        <ele>1129.9000244141</ele>
        <time>2017-12-17T11:30:45Z</time>
      </trkpt>
      <trkpt lat="46.25699" lon="5.90774">
        <ele>1129.9000244141</ele>
        <time>2017-12-17T11:30:50Z</time>
      </trkpt>
      <trkpt lat="46.2569" lon="5.90778">
        <ele>1134.0999755859</ele>
        <time>2017-12-17T11:30:55Z</time>
      </trkpt>
      <trkpt lat="46.25689" lon="5.90782">
        <ele>1134.8000488281</ele>
        <time>2017-12-17T11:31:00Z</time>
      </trkpt>
      <trkpt lat="46.25689" lon="5.90782">
        <ele>1134.8000488281</ele>
        <time>2017-12-17T11:31:05Z</time>
      </trkpt>
      <trkpt lat="46.25689" lon="5.90782">
        <ele>1134.8000488281</ele>
        <time>2017-12-17T11:31:10Z</time>
      </trkpt>
      <trkpt lat="46.25689" lon="5.90782">
        <ele>1134.8000488281</ele>
        <time>2017-12-17T11:31:15Z</time>
      </trkpt>
      <trkpt lat="46.25689" lon="5.90782">
        <ele>1134.8000488281</ele>
        <time>2017-12-17T11:31:20Z</time>
      </trkpt>
      <trkpt lat="46.25687" lon="5.90796">
        <ele>1136.4000244141</ele>
        <time>2017-12-17T11:31:25Z</time>
      </trkpt>
      <trkpt lat="46.25687" lon="5.90797">
        <ele>1136.5999755859</ele>
        <time>2017-12-17T11:31:27Z</time>
      </trkpt>
      <trkpt lat="46.25687" lon="5.90797">
        <ele>1136.5999755859</ele>
        <time>2017-12-17T11:31:32Z</time>
      </trkpt>
      <trkpt lat="46.25687" lon="5.90797">
        <ele>1136.5999755859</ele>
        <time>2017-12-17T11:31:37Z</time>
      </trkpt>
      <trkpt lat="46.25687" lon="5.90797">
        <ele>1136.5999755859</ele>
        <time>2017-12-17T11:31:42Z</time>
      </trkpt>
      <trkpt lat="46.25689" lon="5.90813">
        <ele>1137.1999511719</ele>
        <time>2017-12-17T11:31:47Z</time>
      </trkpt>
      <trkpt lat="46.25689" lon="5.90813">
        <ele>1137.1999511719</ele>
        <time>2017-12-17T11:31:52Z</time>
      </trkpt>
      <trkpt lat="46.25689" lon="5.90813">
        <ele>1137.1999511719</ele>
        <time>2017-12-17T11:31:57Z</time>
      </trkpt>
      <trkpt lat="46.25689" lon="5.90813">
        <ele>1137.1999511719</ele>
        <time>2017-12-17T11:31:59Z</time>
      </trkpt>
      <trkpt lat="46.25689" lon="5.90813">
        <ele>1137.1999511719</ele>
        <time>2017-12-17T11:32:04Z</time>
      </trkpt>
      <trkpt lat="46.25689" lon="5.90813">
        <ele>1137.1999511719</ele>
        <time>2017-12-17T11:32:05Z</time>
      </trkpt>
      <trkpt lat="46.25689" lon="5.90826">
        <ele>1137.8000488281</ele>
        <time>2017-12-17T11:32:10Z</time>
      </trkpt>
      <trkpt lat="46.25689" lon="5.90827">
        <ele>1137.9000244141</ele>
        <time>2017-12-17T11:32:12Z</time>
      </trkpt>
      <trkpt lat="46.25689" lon="5.90827">
        <ele>1138</ele>
        <time>2017-12-17T11:32:17Z</time>
      </trkpt>
      <trkpt lat="46.25689" lon="5.90827">
        <ele>1138</ele>
        <time>2017-12-17T11:32:22Z</time>
      </trkpt>
      <trkpt lat="46.25689" lon="5.90827">
        <ele>1138</ele>
        <time>2017-12-17T11:32:27Z</time>
      </trkpt>
      <trkpt lat="46.25689" lon="5.90827">
        <ele>1138</ele>
        <time>2017-12-17T11:32:32Z</time>
      </trkpt>
      <trkpt lat="46.25689" lon="5.90827">
        <ele>1138</ele>
        <time>2017-12-17T11:32:34Z</time>
      </trkpt>
      <trkpt lat="46.25689" lon="5.90842">
        <ele>1138.5</ele>
        <time>2017-12-17T11:32:39Z</time>
      </trkpt>
      <trkpt lat="46.25689" lon="5.90842">
        <ele>1138.5</ele>
        <time>2017-12-17T11:32:40Z</time>
      </trkpt>
      <trkpt lat="46.25689" lon="5.90842">
        <ele>1138.5</ele>
        <time>2017-12-17T11:32:45Z</time>
      </trkpt>
      <trkpt lat="46.25689" lon="5.90842">
        <ele>1138.5</ele>
        <time>2017-12-17T11:32:50Z</time>
      </trkpt>
      <trkpt lat="46.25689" lon="5.90842">
        <ele>1138.5</ele>
        <time>2017-12-17T11:32:52Z</time>
      </trkpt>
      <trkpt lat="46.25689" lon="5.90842">
        <ele>1138.5</ele>
        <time>2017-12-17T11:32:57Z</time>
      </trkpt>
      <trkpt lat="46.25689" lon="5.90842">
        <ele>1138.5</ele>
        <time>2017-12-17T11:33:02Z</time>
      </trkpt>
      <trkpt lat="46.25678" lon="5.90848">
        <ele>1139.1999511719</ele>
        <time>2017-12-17T11:33:07Z</time>
      </trkpt>
      <trkpt lat="46.25677" lon="5.90849">
        <ele>1139.3000488281</ele>
        <time>2017-12-17T11:33:12Z</time>
      </trkpt>
      <trkpt lat="46.25669" lon="5.90854">
        <ele>1140.1999511719</ele>
        <time>2017-12-17T11:33:17Z</time>
      </trkpt>
      <trkpt lat="46.25667" lon="5.90855">
        <ele>1140.5</ele>
        <time>2017-12-17T11:33:22Z</time>
      </trkpt>
      <trkpt lat="46.25667" lon="5.90855">
        <ele>1140.5</ele>
        <time>2017-12-17T11:33:27Z</time>
      </trkpt>
      <trkpt lat="46.25656" lon="5.90861">
        <ele>1142</ele>
        <time>2017-12-17T11:33:32Z</time>
      </trkpt>
      <trkpt lat="46.25655" lon="5.90862">
        <ele>1142.0999755859</ele>
        <time>2017-12-17T11:33:37Z</time>
      </trkpt>
      <trkpt lat="46.25655" lon="5.90862">
        <ele>1142.0999755859</ele>
        <time>2017-12-17T11:33:42Z</time>
      </trkpt>
      <trkpt lat="46.25643" lon="5.90866">
        <ele>1144.0999755859</ele>
        <time>2017-12-17T11:33:47Z</time>
      </trkpt>
      <trkpt lat="46.25643" lon="5.90866">
        <ele>1144.0999755859</ele>
        <time>2017-12-17T11:33:52Z</time>
      </trkpt>
      <trkpt lat="46.25643" lon="5.90866">
        <ele>1144.0999755859</ele>
        <time>2017-12-17T11:33:57Z</time>
      </trkpt>
      <trkpt lat="46.25643" lon="5.90866">
        <ele>1144.0999755859</ele>
        <time>2017-12-17T11:34:02Z</time>
      </trkpt>
      <trkpt lat="46.25643" lon="5.90866">
        <ele>1144.0999755859</ele>
        <time>2017-12-17T11:34:07Z</time>
      </trkpt>
      <trkpt lat="46.25643" lon="5.90866">
        <ele>1144.0999755859</ele>
        <time>2017-12-17T11:34:12Z</time>
      </trkpt>
      <trkpt lat="46.25637" lon="5.90877">
        <ele>1145.6999511719</ele>
        <time>2017-12-17T11:34:17Z</time>
      </trkpt>
      <trkpt lat="46.25636" lon="5.90877">
        <ele>1145.8000488281</ele>
        <time>2017-12-17T11:34:19Z</time>
      </trkpt>
      <trkpt lat="46.25636" lon="5.90877">
        <ele>1145.8000488281</ele>
        <time>2017-12-17T11:34:24Z</time>
      </trkpt>
      <trkpt lat="46.25636" lon="5.90877">
        <ele>1145.8000488281</ele>
        <time>2017-12-17T11:34:29Z</time>
      </trkpt>
      <trkpt lat="46.25636" lon="5.90877">
        <ele>1145.8000488281</ele>
        <time>2017-12-17T11:34:34Z</time>
      </trkpt>
      <trkpt lat="46.25636" lon="5.90877">
        <ele>1145.8000488281</ele>
        <time>2017-12-17T11:34:38Z</time>
      </trkpt>
      <trkpt lat="46.25627" lon="5.90879">
        <ele>1146.5</ele>
        <time>2017-12-17T11:34:43Z</time>
      </trkpt>
      <trkpt lat="46.25627" lon="5.90879">
        <ele>1146.5999755859</ele>
        <time>2017-12-17T11:34:48Z</time>
      </trkpt>
      <trkpt lat="46.25627" lon="5.90879">
        <ele>1146.5999755859</ele>
        <time>2017-12-17T11:34:53Z</time>
      </trkpt>
      <trkpt lat="46.25618" lon="5.9088">
        <ele>1147.5</ele>
        <time>2017-12-17T11:34:58Z</time>
      </trkpt>
      <trkpt lat="46.25616" lon="5.9088">
        <ele>1147.6999511719</ele>
        <time>2017-12-17T11:35:03Z</time>
      </trkpt>
      <trkpt lat="46.25616" lon="5.9088">
        <ele>1147.6999511719</ele>
        <time>2017-12-17T11:35:08Z</time>
      </trkpt>
      <trkpt lat="46.25616" lon="5.9088">
        <ele>1147.6999511719</ele>
        <time>2017-12-17T11:35:13Z</time>
      </trkpt>
      <trkpt lat="46.25616" lon="5.9088">
        <ele>1147.6999511719</ele>
        <time>2017-12-17T11:35:17Z</time>
      </trkpt>
      <trkpt lat="46.25616" lon="5.9088">
        <ele>1147.6999511719</ele>
        <time>2017-12-17T11:35:22Z</time>
      </trkpt>
      <trkpt lat="46.25616" lon="5.9088">
        <ele>1147.6999511719</ele>
        <time>2017-12-17T11:35:27Z</time>
      </trkpt>
      <trkpt lat="46.25616" lon="5.9088">
        <ele>1147.6999511719</ele>
        <time>2017-12-17T11:35:32Z</time>
      </trkpt>
      <trkpt lat="46.25616" lon="5.9088">
        <ele>1147.6999511719</ele>
        <time>2017-12-17T11:35:37Z</time>
      </trkpt>
      <trkpt lat="46.25616" lon="5.9088">
        <ele>1147.6999511719</ele>
        <time>2017-12-17T11:35:42Z</time>
      </trkpt>
      <trkpt lat="46.25616" lon="5.9088">
        <ele>1147.6999511719</ele>
        <time>2017-12-17T11:35:47Z</time>
      </trkpt>
      <trkpt lat="46.25616" lon="5.9088">
        <ele>1147.6999511719</ele>
        <time>2017-12-17T11:35:52Z</time>
      </trkpt>
      <trkpt lat="46.25609" lon="5.90886">
        <ele>1148.8000488281</ele>
        <time>2017-12-17T11:35:57Z</time>
      </trkpt>
      <trkpt lat="46.25609" lon="5.90887">
        <ele>1148.8000488281</ele>
        <time>2017-12-17T11:36:02Z</time>
      </trkpt>
      <trkpt lat="46.25609" lon="5.90887">
        <ele>1148.8000488281</ele>
        <time>2017-12-17T11:36:05Z</time>
      </trkpt>
      <trkpt lat="46.25609" lon="5.90887">
        <ele>1148.8000488281</ele>
        <time>2017-12-17T11:36:10Z</time>
      </trkpt>
      <trkpt lat="46.25609" lon="5.90887">
        <ele>1148.8000488281</ele>
        <time>2017-12-17T11:36:12Z</time>
      </trkpt>
      <trkpt lat="46.25609" lon="5.90887">
        <ele>1148.8000488281</ele>
        <time>2017-12-17T11:36:17Z</time>
      </trkpt>
      <trkpt lat="46.25609" lon="5.90887">
        <ele>1148.8000488281</ele>
        <time>2017-12-17T11:36:22Z</time>
      </trkpt>
      <trkpt lat="46.25609" lon="5.90887">
        <ele>1148.8000488281</ele>
        <time>2017-12-17T11:36:27Z</time>
      </trkpt>
      <trkpt lat="46.25609" lon="5.90887">
        <ele>1148.8000488281</ele>
        <time>2017-12-17T11:36:28Z</time>
      </trkpt>
      <trkpt lat="46.25609" lon="5.90887">
        <ele>1148.8000488281</ele>
        <time>2017-12-17T11:36:33Z</time>
      </trkpt>
      <trkpt lat="46.25609" lon="5.90887">
        <ele>1148.8000488281</ele>
        <time>2017-12-17T11:36:38Z</time>
      </trkpt>
      <trkpt lat="46.25609" lon="5.90887">
        <ele>1148.8000488281</ele>
        <time>2017-12-17T11:36:40Z</time>
      </trkpt>
      <trkpt lat="46.25609" lon="5.90887">
        <ele>1148.8000488281</ele>
        <time>2017-12-17T11:36:45Z</time>
      </trkpt>
      <trkpt lat="46.25609" lon="5.90887">
        <ele>1148.8000488281</ele>
        <time>2017-12-17T11:36:50Z</time>
      </trkpt>
      <trkpt lat="46.25609" lon="5.90887">
        <ele>1148.8000488281</ele>
        <time>2017-12-17T11:36:52Z</time>
      </trkpt>
      <trkpt lat="46.25609" lon="5.90887">
        <ele>1148.8000488281</ele>
        <time>2017-12-17T11:36:57Z</time>
      </trkpt>
      <trkpt lat="46.25609" lon="5.90887">
        <ele>1148.8000488281</ele>
        <time>2017-12-17T11:37:02Z</time>
      </trkpt>
      <trkpt lat="46.25609" lon="5.90887">
        <ele>1148.8000488281</ele>
        <time>2017-12-17T11:37:07Z</time>
      </trkpt>
      <trkpt lat="46.25607" lon="5.90902">
        <ele>1151.6999511719</ele>
        <time>2017-12-17T11:37:12Z</time>
      </trkpt>
      <trkpt lat="46.25606" lon="5.90903">
        <ele>1151.8000488281</ele>
        <time>2017-12-17T11:37:17Z</time>
      </trkpt>
      <trkpt lat="46.25606" lon="5.90903">
        <ele>1151.8000488281</ele>
        <time>2017-12-17T11:37:22Z</time>
      </trkpt>
      <trkpt lat="46.25606" lon="5.90903">
        <ele>1151.8000488281</ele>
        <time>2017-12-17T11:37:26Z</time>
      </trkpt>
      <trkpt lat="46.25606" lon="5.90903">
        <ele>1151.8000488281</ele>
        <time>2017-12-17T11:37:31Z</time>
      </trkpt>
      <trkpt lat="46.25606" lon="5.90903">
        <ele>1151.8000488281</ele>
        <time>2017-12-17T11:37:36Z</time>
      </trkpt>
      <trkpt lat="46.25598" lon="5.90909">
        <ele>1153.3000488281</ele>
        <time>2017-12-17T11:37:41Z</time>
      </trkpt>
      <trkpt lat="46.25596" lon="5.90911">
        <ele>1153.4000244141</ele>
        <time>2017-12-17T11:37:46Z</time>
      </trkpt>
      <trkpt lat="46.25596" lon="5.90911">
        <ele>1153.4000244141</ele>
        <time>2017-12-17T11:37:51Z</time>
      </trkpt>
      <trkpt lat="46.25585" lon="5.90917">
        <ele>1154</ele>
        <time>2017-12-17T11:37:56Z</time>
      </trkpt>
      <trkpt lat="46.25585" lon="5.90917">
        <ele>1154</ele>
        <time>2017-12-17T11:38:01Z</time>
      </trkpt>
      <trkpt lat="46.25585" lon="5.90917">
        <ele>1154</ele>
        <time>2017-12-17T11:38:06Z</time>
      </trkpt>
      <trkpt lat="46.25577" lon="5.90924">
        <ele>1155.1999511719</ele>
        <time>2017-12-17T11:38:08Z</time>
      </trkpt>
      <trkpt lat="46.25574" lon="5.90926">
        <ele>1155.5999755859</ele>
        <time>2017-12-17T11:38:13Z</time>
      </trkpt>
      <trkpt lat="46.25574" lon="5.90926">
        <ele>1155.5999755859</ele>
        <time>2017-12-17T11:38:18Z</time>
      </trkpt>
      <trkpt lat="46.25574" lon="5.90926">
        <ele>1155.5999755859</ele>
        <time>2017-12-17T11:38:21Z</time>
      </trkpt>
      <trkpt lat="46.25574" lon="5.90926">
        <ele>1155.5999755859</ele>
        <time>2017-12-17T11:38:26Z</time>
      </trkpt>
      <trkpt lat="46.25574" lon="5.90926">
        <ele>1155.5999755859</ele>
        <time>2017-12-17T11:38:31Z</time>
      </trkpt>
      <trkpt lat="46.25574" lon="5.90926">
        <ele>1155.5999755859</ele>
        <time>2017-12-17T11:38:36Z</time>
      </trkpt>
      <trkpt lat="46.25574" lon="5.90926">
        <ele>1155.5999755859</ele>
        <time>2017-12-17T11:38:41Z</time>
      </trkpt>
      <trkpt lat="46.25574" lon="5.90926">
        <ele>1155.5999755859</ele>
        <time>2017-12-17T11:38:46Z</time>
      </trkpt>
      <trkpt lat="46.25574" lon="5.90926">
        <ele>1155.5999755859</ele>
        <time>2017-12-17T11:38:51Z</time>
      </trkpt>
      <trkpt lat="46.25574" lon="5.90926">
        <ele>1155.5999755859</ele>
        <time>2017-12-17T11:38:56Z</time>
      </trkpt>
      <trkpt lat="46.25574" lon="5.90926">
        <ele>1155.5999755859</ele>
        <time>2017-12-17T11:39:01Z</time>
      </trkpt>
      <trkpt lat="46.25574" lon="5.90926">
        <ele>1155.5999755859</ele>
        <time>2017-12-17T11:39:06Z</time>
      </trkpt>
      <trkpt lat="46.25574" lon="5.90926">
        <ele>1155.5999755859</ele>
        <time>2017-12-17T11:39:11Z</time>
      </trkpt>
      <trkpt lat="46.25574" lon="5.90926">
        <ele>1155.5999755859</ele>
        <time>2017-12-17T11:39:16Z</time>
      </trkpt>
      <trkpt lat="46.25574" lon="5.90926">
        <ele>1155.5999755859</ele>
        <time>2017-12-17T11:39:21Z</time>
      </trkpt>
      <trkpt lat="46.25574" lon="5.90926">
        <ele>1155.5999755859</ele>
        <time>2017-12-17T11:39:26Z</time>
      </trkpt>
      <trkpt lat="46.25574" lon="5.90926">
        <ele>1155.5999755859</ele>
        <time>2017-12-17T11:39:31Z</time>
      </trkpt>
      <trkpt lat="46.25574" lon="5.90926">
        <ele>1155.5999755859</ele>
        <time>2017-12-17T11:39:36Z</time>
      </trkpt>
      <trkpt lat="46.25574" lon="5.90926">
        <ele>1155.5999755859</ele>
        <time>2017-12-17T11:39:41Z</time>
      </trkpt>
      <trkpt lat="46.25574" lon="5.90926">
        <ele>1155.5999755859</ele>
        <time>2017-12-17T11:39:46Z</time>
      </trkpt>
      <trkpt lat="46.25574" lon="5.90926">
        <ele>1155.5999755859</ele>
        <time>2017-12-17T11:39:51Z</time>
      </trkpt>
      <trkpt lat="46.25574" lon="5.90926">
        <ele>1155.5999755859</ele>
        <time>2017-12-17T11:39:56Z</time>
      </trkpt>
      <trkpt lat="46.25564" lon="5.90933">
        <ele>1157.5999755859</ele>
        <time>2017-12-17T11:40:01Z</time>
      </trkpt>
      <trkpt lat="46.25564" lon="5.90933">
        <ele>1157.5999755859</ele>
        <time>2017-12-17T11:40:06Z</time>
      </trkpt>
      <trkpt lat="46.25564" lon="5.90933">
        <ele>1157.5999755859</ele>
        <time>2017-12-17T11:40:11Z</time>
      </trkpt>
      <trkpt lat="46.25556" lon="5.90944">
        <ele>1159.6999511719</ele>
        <time>2017-12-17T11:40:16Z</time>
      </trkpt>
      <trkpt lat="46.25556" lon="5.90944">
        <ele>1159.6999511719</ele>
        <time>2017-12-17T11:40:17Z</time>
      </trkpt>
      <trkpt lat="46.25556" lon="5.90944">
        <ele>1159.6999511719</ele>
        <time>2017-12-17T11:40:19Z</time>
      </trkpt>
      <trkpt lat="46.25556" lon="5.90944">
        <ele>1159.6999511719</ele>
        <time>2017-12-17T11:40:24Z</time>
      </trkpt>
      <trkpt lat="46.25556" lon="5.90944">
        <ele>1159.6999511719</ele>
        <time>2017-12-17T11:40:29Z</time>
      </trkpt>
      <trkpt lat="46.25546" lon="5.90951">
        <ele>1161.5</ele>
        <time>2017-12-17T11:40:34Z</time>
      </trkpt>
      <trkpt lat="46.25546" lon="5.90951">
        <ele>1161.5</ele>
        <time>2017-12-17T11:40:39Z</time>
      </trkpt>
      <trkpt lat="46.25537" lon="5.90952">
        <ele>1163.3000488281</ele>
        <time>2017-12-17T11:40:44Z</time>
      </trkpt>
      <trkpt lat="46.25534" lon="5.90951">
        <ele>1164</ele>
        <time>2017-12-17T11:40:49Z</time>
      </trkpt>
      <trkpt lat="46.25534" lon="5.90951">
        <ele>1164</ele>
        <time>2017-12-17T11:40:54Z</time>
      </trkpt>
      <trkpt lat="46.25534" lon="5.90951">
        <ele>1164</ele>
        <time>2017-12-17T11:40:59Z</time>
      </trkpt>
      <trkpt lat="46.25523" lon="5.90956">
        <ele>1168.0999755859</ele>
        <time>2017-12-17T11:41:04Z</time>
      </trkpt>
      <trkpt lat="46.25523" lon="5.90956">
        <ele>1168.0999755859</ele>
        <time>2017-12-17T11:41:09Z</time>
      </trkpt>
      <trkpt lat="46.25523" lon="5.90956">
        <ele>1168.0999755859</ele>
        <time>2017-12-17T11:41:14Z</time>
      </trkpt>
      <trkpt lat="46.25513" lon="5.90964">
        <ele>1172.5</ele>
        <time>2017-12-17T11:41:19Z</time>
      </trkpt>
      <trkpt lat="46.25513" lon="5.90964">
        <ele>1172.5</ele>
        <time>2017-12-17T11:41:24Z</time>
      </trkpt>
      <trkpt lat="46.25513" lon="5.90964">
        <ele>1172.5</ele>
        <time>2017-12-17T11:41:29Z</time>
      </trkpt>
      <trkpt lat="46.25504" lon="5.90973">
        <ele>1177.6999511719</ele>
        <time>2017-12-17T11:41:34Z</time>
      </trkpt>
      <trkpt lat="46.25504" lon="5.90973">
        <ele>1177.6999511719</ele>
        <time>2017-12-17T11:41:39Z</time>
      </trkpt>
      <trkpt lat="46.25504" lon="5.90973">
        <ele>1177.6999511719</ele>
        <time>2017-12-17T11:41:44Z</time>
      </trkpt>
      <trkpt lat="46.25497" lon="5.90982">
        <ele>1182.9000244141</ele>
        <time>2017-12-17T11:41:49Z</time>
      </trkpt>
      <trkpt lat="46.25495" lon="5.90983">
        <ele>1184.1999511719</ele>
        <time>2017-12-17T11:41:54Z</time>
      </trkpt>
      <trkpt lat="46.25495" lon="5.90983">
        <ele>1184.1999511719</ele>
        <time>2017-12-17T11:41:59Z</time>
      </trkpt>
      <trkpt lat="46.25495" lon="5.90983">
        <ele>1184.1999511719</ele>
        <time>2017-12-17T11:42:04Z</time>
      </trkpt>
      <trkpt lat="46.25495" lon="5.90983">
        <ele>1184.1999511719</ele>
        <time>2017-12-17T11:42:09Z</time>
      </trkpt>
      <trkpt lat="46.25495" lon="5.90983">
        <ele>1184.1999511719</ele>
        <time>2017-12-17T11:42:14Z</time>
      </trkpt>
      <trkpt lat="46.25495" lon="5.90983">
        <ele>1184.1999511719</ele>
        <time>2017-12-17T11:42:15Z</time>
      </trkpt>
      <trkpt lat="46.25488" lon="5.90993">
        <ele>1188</ele>
        <time>2017-12-17T11:42:20Z</time>
      </trkpt>
      <trkpt lat="46.25488" lon="5.90995">
        <ele>1188.0999755859</ele>
        <time>2017-12-17T11:42:25Z</time>
      </trkpt>
      <trkpt lat="46.25488" lon="5.90995">
        <ele>1188.0999755859</ele>
        <time>2017-12-17T11:42:30Z</time>
      </trkpt>
      <trkpt lat="46.25488" lon="5.90995">
        <ele>1188.0999755859</ele>
        <time>2017-12-17T11:42:31Z</time>
      </trkpt>
      <trkpt lat="46.25488" lon="5.90995">
        <ele>1188.0999755859</ele>
        <time>2017-12-17T11:42:36Z</time>
      </trkpt>
      <trkpt lat="46.25488" lon="5.90995">
        <ele>1188.0999755859</ele>
        <time>2017-12-17T11:42:41Z</time>
      </trkpt>
      <trkpt lat="46.25488" lon="5.90995">
        <ele>1188.0999755859</ele>
        <time>2017-12-17T11:42:46Z</time>
      </trkpt>
      <trkpt lat="46.25478" lon="5.91006">
        <ele>1189.4000244141</ele>
        <time>2017-12-17T11:42:51Z</time>
      </trkpt>
      <trkpt lat="46.25478" lon="5.91006">
        <ele>1189.4000244141</ele>
        <time>2017-12-17T11:42:56Z</time>
      </trkpt>
      <trkpt lat="46.25478" lon="5.91006">
        <ele>1189.4000244141</ele>
        <time>2017-12-17T11:43:01Z</time>
      </trkpt>
      <trkpt lat="46.25468" lon="5.91013">
        <ele>1191.1999511719</ele>
        <time>2017-12-17T11:43:06Z</time>
      </trkpt>
      <trkpt lat="46.25467" lon="5.91013">
        <ele>1191.4000244141</ele>
        <time>2017-12-17T11:43:09Z</time>
      </trkpt>
      <trkpt lat="46.25467" lon="5.91013">
        <ele>1191.4000244141</ele>
        <time>2017-12-17T11:43:14Z</time>
      </trkpt>
      <trkpt lat="46.25467" lon="5.91013">
        <ele>1191.4000244141</ele>
        <time>2017-12-17T11:43:19Z</time>
      </trkpt>
      <trkpt lat="46.25467" lon="5.91013">
        <ele>1191.4000244141</ele>
        <time>2017-12-17T11:43:24Z</time>
      </trkpt>
      <trkpt lat="46.25467" lon="5.91013">
        <ele>1191.4000244141</ele>
        <time>2017-12-17T11:43:29Z</time>
      </trkpt>
      <trkpt lat="46.25455" lon="5.91015">
        <ele>1193.0999755859</ele>
        <time>2017-12-17T11:43:34Z</time>
      </trkpt>
      <trkpt lat="46.25455" lon="5.91015">
        <ele>1193.0999755859</ele>
        <time>2017-12-17T11:43:39Z</time>
      </trkpt>
      <trkpt lat="46.25455" lon="5.91015">
        <ele>1193.0999755859</ele>
        <time>2017-12-17T11:43:44Z</time>
      </trkpt>
      <trkpt lat="46.25455" lon="5.91015">
        <ele>1193.0999755859</ele>
        <time>2017-12-17T11:43:49Z</time>
      </trkpt>
      <trkpt lat="46.25446" lon="5.91019">
        <ele>1196.3000488281</ele>
        <time>2017-12-17T11:43:54Z</time>
      </trkpt>
      <trkpt lat="46.25444" lon="5.9102">
        <ele>1196.8000488281</ele>
        <time>2017-12-17T11:43:59Z</time>
      </trkpt>
      <trkpt lat="46.25444" lon="5.9102">
        <ele>1196.8000488281</ele>
        <time>2017-12-17T11:44:04Z</time>
      </trkpt>
      <trkpt lat="46.25444" lon="5.9102">
        <ele>1196.8000488281</ele>
        <time>2017-12-17T11:44:09Z</time>
      </trkpt>
      <trkpt lat="46.25444" lon="5.9102">
        <ele>1196.8000488281</ele>
        <time>2017-12-17T11:44:14Z</time>
      </trkpt>
      <trkpt lat="46.25444" lon="5.9102">
        <ele>1196.8000488281</ele>
        <time>2017-12-17T11:44:19Z</time>
      </trkpt>
      <trkpt lat="46.25437" lon="5.91033">
        <ele>1203</ele>
        <time>2017-12-17T11:44:24Z</time>
      </trkpt>
      <trkpt lat="46.25437" lon="5.91033">
        <ele>1203.3000488281</ele>
        <time>2017-12-17T11:44:25Z</time>
      </trkpt>
      <trkpt lat="46.25437" lon="5.91033">
        <ele>1203.3000488281</ele>
        <time>2017-12-17T11:44:26Z</time>
      </trkpt>
      <trkpt lat="46.25437" lon="5.91033">
        <ele>1203.3000488281</ele>
        <time>2017-12-17T11:44:31Z</time>
      </trkpt>
      <trkpt lat="46.25437" lon="5.91033">
        <ele>1203.3000488281</ele>
        <time>2017-12-17T11:44:36Z</time>
      </trkpt>
      <trkpt lat="46.25437" lon="5.91033">
        <ele>1203.3000488281</ele>
        <time>2017-12-17T11:44:41Z</time>
      </trkpt>
      <trkpt lat="46.25437" lon="5.91033">
        <ele>1203.3000488281</ele>
        <time>2017-12-17T11:44:42Z</time>
      </trkpt>
      <trkpt lat="46.25437" lon="5.91033">
        <ele>1203.3000488281</ele>
        <time>2017-12-17T11:44:47Z</time>
      </trkpt>
      <trkpt lat="46.25437" lon="5.91033">
        <ele>1203.3000488281</ele>
        <time>2017-12-17T11:44:49Z</time>
      </trkpt>
      <trkpt lat="46.25437" lon="5.91033">
        <ele>1203.3000488281</ele>
        <time>2017-12-17T11:44:54Z</time>
      </trkpt>
      <trkpt lat="46.25437" lon="5.91033">
        <ele>1203.3000488281</ele>
        <time>2017-12-17T11:44:59Z</time>
      </trkpt>
      <trkpt lat="46.25437" lon="5.91033">
        <ele>1203.3000488281</ele>
        <time>2017-12-17T11:45:04Z</time>
      </trkpt>
      <trkpt lat="46.25437" lon="5.91033">
        <ele>1203.3000488281</ele>
        <time>2017-12-17T11:45:09Z</time>
      </trkpt>
      <trkpt lat="46.25437" lon="5.91033">
        <ele>1203.3000488281</ele>
        <time>2017-12-17T11:45:14Z</time>
      </trkpt>
      <trkpt lat="46.25437" lon="5.91033">
        <ele>1203.3000488281</ele>
        <time>2017-12-17T11:45:19Z</time>
      </trkpt>
      <trkpt lat="46.25437" lon="5.91033">
        <ele>1203.3000488281</ele>
        <time>2017-12-17T11:45:24Z</time>
      </trkpt>
      <trkpt lat="46.25437" lon="5.91033">
        <ele>1203.3000488281</ele>
        <time>2017-12-17T11:45:29Z</time>
      </trkpt>
      <trkpt lat="46.25437" lon="5.91033">
        <ele>1203.3000488281</ele>
        <time>2017-12-17T11:45:34Z</time>
      </trkpt>
      <trkpt lat="46.25437" lon="5.91033">
        <ele>1203.3000488281</ele>
        <time>2017-12-17T11:45:39Z</time>
      </trkpt>
      <trkpt lat="46.25437" lon="5.91033">
        <ele>1203.3000488281</ele>
        <time>2017-12-17T11:45:44Z</time>
      </trkpt>
      <trkpt lat="46.25437" lon="5.91033">
        <ele>1203.3000488281</ele>
        <time>2017-12-17T11:45:49Z</time>
      </trkpt>
      <trkpt lat="46.25437" lon="5.91033">
        <ele>1203.3000488281</ele>
        <time>2017-12-17T11:45:50Z</time>
      </trkpt>
      <trkpt lat="46.25437" lon="5.91033">
        <ele>1203.3000488281</ele>
        <time>2017-12-17T11:45:55Z</time>
      </trkpt>
      <trkpt lat="46.25437" lon="5.91033">
        <ele>1203.3000488281</ele>
        <time>2017-12-17T11:46:00Z</time>
      </trkpt>
      <trkpt lat="46.25437" lon="5.91033">
        <ele>1203.3000488281</ele>
        <time>2017-12-17T11:46:05Z</time>
      </trkpt>
      <trkpt lat="46.25437" lon="5.91033">
        <ele>1203.3000488281</ele>
        <time>2017-12-17T11:46:10Z</time>
      </trkpt>
      <trkpt lat="46.25437" lon="5.91033">
        <ele>1203.3000488281</ele>
        <time>2017-12-17T11:46:15Z</time>
      </trkpt>
      <trkpt lat="46.25437" lon="5.91033">
        <ele>1203.3000488281</ele>
        <time>2017-12-17T11:46:20Z</time>
      </trkpt>
      <trkpt lat="46.25444" lon="5.91045">
        <ele>1205.5</ele>
        <time>2017-12-17T11:46:25Z</time>
      </trkpt>
      <trkpt lat="46.25444" lon="5.91045">
        <ele>1205.5</ele>
        <time>2017-12-17T11:46:30Z</time>
      </trkpt>
      <trkpt lat="46.25444" lon="5.91045">
        <ele>1205.5</ele>
        <time>2017-12-17T11:46:35Z</time>
      </trkpt>
      <trkpt lat="46.25444" lon="5.91045">
        <ele>1205.5</ele>
        <time>2017-12-17T11:46:37Z</time>
      </trkpt>
      <trkpt lat="46.25444" lon="5.91045">
        <ele>1205.5</ele>
        <time>2017-12-17T11:46:42Z</time>
      </trkpt>
      <trkpt lat="46.25444" lon="5.91045">
        <ele>1205.5</ele>
        <time>2017-12-17T11:46:47Z</time>
      </trkpt>
      <trkpt lat="46.25444" lon="5.91045">
        <ele>1205.5</ele>
        <time>2017-12-17T11:46:52Z</time>
      </trkpt>
      <trkpt lat="46.25444" lon="5.91045">
        <ele>1205.5</ele>
        <time>2017-12-17T11:46:57Z</time>
      </trkpt>
      <trkpt lat="46.25444" lon="5.91045">
        <ele>1205.5</ele>
        <time>2017-12-17T11:47:02Z</time>
      </trkpt>
      <trkpt lat="46.25441" lon="5.91057">
        <ele>1208.8000488281</ele>
        <time>2017-12-17T11:47:05Z</time>
      </trkpt>
      <trkpt lat="46.25441" lon="5.91057">
        <ele>1209.1999511719</ele>
        <time>2017-12-17T11:47:10Z</time>
      </trkpt>
      <trkpt lat="46.25441" lon="5.91057">
        <ele>1209.1999511719</ele>
        <time>2017-12-17T11:47:12Z</time>
      </trkpt>
      <trkpt lat="46.25441" lon="5.91057">
        <ele>1209.1999511719</ele>
        <time>2017-12-17T11:47:17Z</time>
      </trkpt>
      <trkpt lat="46.25441" lon="5.91057">
        <ele>1209.1999511719</ele>
        <time>2017-12-17T11:47:19Z</time>
      </trkpt>
      <trkpt lat="46.25441" lon="5.91057">
        <ele>1209.1999511719</ele>
        <time>2017-12-17T11:47:24Z</time>
      </trkpt>
      <trkpt lat="46.25441" lon="5.91057">
        <ele>1209.1999511719</ele>
        <time>2017-12-17T11:47:29Z</time>
      </trkpt>
      <trkpt lat="46.25441" lon="5.91057">
        <ele>1209.1999511719</ele>
        <time>2017-12-17T11:47:34Z</time>
      </trkpt>
      <trkpt lat="46.25441" lon="5.91057">
        <ele>1209.1999511719</ele>
        <time>2017-12-17T11:47:37Z</time>
      </trkpt>
      <trkpt lat="46.25441" lon="5.91057">
        <ele>1209.1999511719</ele>
        <time>2017-12-17T11:47:42Z</time>
      </trkpt>
      <trkpt lat="46.25441" lon="5.91057">
        <ele>1209.1999511719</ele>
        <time>2017-12-17T11:47:47Z</time>
      </trkpt>
      <trkpt lat="46.25441" lon="5.91057">
        <ele>1209.1999511719</ele>
        <time>2017-12-17T11:47:52Z</time>
      </trkpt>
      <trkpt lat="46.25437" lon="5.91072">
        <ele>1212.4000244141</ele>
        <time>2017-12-17T11:47:57Z</time>
      </trkpt>
      <trkpt lat="46.25437" lon="5.91072">
        <ele>1212.4000244141</ele>
        <time>2017-12-17T11:48:02Z</time>
      </trkpt>
      <trkpt lat="46.25437" lon="5.91072">
        <ele>1212.4000244141</ele>
        <time>2017-12-17T11:48:07Z</time>
      </trkpt>
      <trkpt lat="46.25437" lon="5.91072">
        <ele>1212.4000244141</ele>
        <time>2017-12-17T11:48:12Z</time>
      </trkpt>
      <trkpt lat="46.25429" lon="5.91079">
        <ele>1214.6999511719</ele>
        <time>2017-12-17T11:48:17Z</time>
      </trkpt>
      <trkpt lat="46.25429" lon="5.9108">
        <ele>1214.8000488281</ele>
        <time>2017-12-17T11:48:22Z</time>
      </trkpt>
      <trkpt lat="46.25429" lon="5.9108">
        <ele>1214.8000488281</ele>
        <time>2017-12-17T11:48:27Z</time>
      </trkpt>
      <trkpt lat="46.25429" lon="5.9108">
        <ele>1214.8000488281</ele>
        <time>2017-12-17T11:48:32Z</time>
      </trkpt>
      <trkpt lat="46.25429" lon="5.9108">
        <ele>1214.8000488281</ele>
        <time>2017-12-17T11:48:37Z</time>
      </trkpt>
      <trkpt lat="46.25423" lon="5.91092">
        <ele>1220.5</ele>
        <time>2017-12-17T11:48:42Z</time>
      </trkpt>
      <trkpt lat="46.25423" lon="5.91092">
        <ele>1220.5</ele>
        <time>2017-12-17T11:48:47Z</time>
      </trkpt>
      <trkpt lat="46.25423" lon="5.91092">
        <ele>1220.5</ele>
        <time>2017-12-17T11:48:52Z</time>
      </trkpt>
      <trkpt lat="46.25418" lon="5.91109">
        <ele>1225.3000488281</ele>
        <time>2017-12-17T11:48:57Z</time>
      </trkpt>
      <trkpt lat="46.25418" lon="5.91109">
        <ele>1225.3000488281</ele>
        <time>2017-12-17T11:49:02Z</time>
      </trkpt>
      <trkpt lat="46.25418" lon="5.91109">
        <ele>1225.3000488281</ele>
        <time>2017-12-17T11:49:07Z</time>
      </trkpt>
      <trkpt lat="46.2541" lon="5.91124">
        <ele>1229.9000244141</ele>
        <time>2017-12-17T11:49:11Z</time>
      </trkpt>
      <trkpt lat="46.2541" lon="5.91124">
        <ele>1229.9000244141</ele>
        <time>2017-12-17T11:49:16Z</time>
      </trkpt>
      <trkpt lat="46.2541" lon="5.91124">
        <ele>1229.9000244141</ele>
        <time>2017-12-17T11:49:21Z</time>
      </trkpt>
      <trkpt lat="46.25403" lon="5.91136">
        <ele>1235.4000244141</ele>
        <time>2017-12-17T11:49:26Z</time>
      </trkpt>
      <trkpt lat="46.25403" lon="5.91136">
        <ele>1235.4000244141</ele>
        <time>2017-12-17T11:49:31Z</time>
      </trkpt>
      <trkpt lat="46.25403" lon="5.91136">
        <ele>1235.4000244141</ele>
        <time>2017-12-17T11:49:36Z</time>
      </trkpt>
      <trkpt lat="46.25403" lon="5.91136">
        <ele>1235.4000244141</ele>
        <time>2017-12-17T11:49:41Z</time>
      </trkpt>
      <trkpt lat="46.25403" lon="5.91136">
        <ele>1235.4000244141</ele>
        <time>2017-12-17T11:49:46Z</time>
      </trkpt>
      <trkpt lat="46.25403" lon="5.91136">
        <ele>1235.4000244141</ele>
        <time>2017-12-17T11:49:51Z</time>
      </trkpt>
      <trkpt lat="46.25403" lon="5.91136">
        <ele>1235.4000244141</ele>
        <time>2017-12-17T11:49:52Z</time>
      </trkpt>
      <trkpt lat="46.25403" lon="5.91136">
        <ele>1235.4000244141</ele>
        <time>2017-12-17T11:49:57Z</time>
      </trkpt>
      <trkpt lat="46.25403" lon="5.91136">
        <ele>1235.4000244141</ele>
        <time>2017-12-17T11:50:02Z</time>
      </trkpt>
      <trkpt lat="46.25403" lon="5.91136">
        <ele>1235.4000244141</ele>
        <time>2017-12-17T11:50:07Z</time>
      </trkpt>
      <trkpt lat="46.25403" lon="5.91136">
        <ele>1235.4000244141</ele>
        <time>2017-12-17T11:50:11Z</time>
      </trkpt>
      <trkpt lat="46.25403" lon="5.91136">
        <ele>1235.4000244141</ele>
        <time>2017-12-17T11:50:16Z</time>
      </trkpt>
      <trkpt lat="46.25403" lon="5.91136">
        <ele>1235.4000244141</ele>
        <time>2017-12-17T11:50:21Z</time>
      </trkpt>
      <trkpt lat="46.25403" lon="5.91136">
        <ele>1235.4000244141</ele>
        <time>2017-12-17T11:50:26Z</time>
      </trkpt>
      <trkpt lat="46.25403" lon="5.91136">
        <ele>1235.4000244141</ele>
        <time>2017-12-17T11:50:28Z</time>
      </trkpt>
      <trkpt lat="46.25403" lon="5.91136">
        <ele>1235.4000244141</ele>
        <time>2017-12-17T11:50:33Z</time>
      </trkpt>
      <trkpt lat="46.25403" lon="5.91136">
        <ele>1235.4000244141</ele>
        <time>2017-12-17T11:50:38Z</time>
      </trkpt>
      <trkpt lat="46.25403" lon="5.91136">
        <ele>1235.4000244141</ele>
        <time>2017-12-17T11:50:43Z</time>
      </trkpt>
      <trkpt lat="46.25403" lon="5.91136">
        <ele>1235.4000244141</ele>
        <time>2017-12-17T11:50:48Z</time>
      </trkpt>
      <trkpt lat="46.25403" lon="5.91136">
        <ele>1235.4000244141</ele>
        <time>2017-12-17T11:50:53Z</time>
      </trkpt>
      <trkpt lat="46.25403" lon="5.91136">
        <ele>1235.4000244141</ele>
        <time>2017-12-17T11:50:58Z</time>
      </trkpt>
      <trkpt lat="46.25403" lon="5.91136">
        <ele>1235.4000244141</ele>
        <time>2017-12-17T11:51:03Z</time>
      </trkpt>
      <trkpt lat="46.25403" lon="5.91136">
        <ele>1235.4000244141</ele>
        <time>2017-12-17T11:51:08Z</time>
      </trkpt>
      <trkpt lat="46.25403" lon="5.91136">
        <ele>1235.4000244141</ele>
        <time>2017-12-17T11:51:13Z</time>
      </trkpt>
      <trkpt lat="46.25403" lon="5.91136">
        <ele>1235.4000244141</ele>
        <time>2017-12-17T11:51:18Z</time>
      </trkpt>
      <trkpt lat="46.25403" lon="5.91136">
        <ele>1235.4000244141</ele>
        <time>2017-12-17T11:51:23Z</time>
      </trkpt>
      <trkpt lat="46.25403" lon="5.91136">
        <ele>1235.4000244141</ele>
        <time>2017-12-17T11:51:28Z</time>
      </trkpt>
      <trkpt lat="46.25403" lon="5.91136">
        <ele>1235.4000244141</ele>
        <time>2017-12-17T11:51:33Z</time>
      </trkpt>
      <trkpt lat="46.25403" lon="5.91136">
        <ele>1235.4000244141</ele>
        <time>2017-12-17T11:51:38Z</time>
      </trkpt>
      <trkpt lat="46.25403" lon="5.91136">
        <ele>1235.4000244141</ele>
        <time>2017-12-17T11:51:43Z</time>
      </trkpt>
      <trkpt lat="46.25403" lon="5.91136">
        <ele>1235.4000244141</ele>
        <time>2017-12-17T11:51:48Z</time>
      </trkpt>
      <trkpt lat="46.25403" lon="5.91136">
        <ele>1235.4000244141</ele>
        <time>2017-12-17T11:51:53Z</time>
      </trkpt>
      <trkpt lat="46.25403" lon="5.91136">
        <ele>1235.4000244141</ele>
        <time>2017-12-17T11:51:58Z</time>
      </trkpt>
      <trkpt lat="46.25403" lon="5.91136">
        <ele>1235.4000244141</ele>
        <time>2017-12-17T11:52:03Z</time>
      </trkpt>
      <trkpt lat="46.25403" lon="5.91136">
        <ele>1235.4000244141</ele>
        <time>2017-12-17T11:52:08Z</time>
      </trkpt>
      <trkpt lat="46.25403" lon="5.91136">
        <ele>1235.4000244141</ele>
        <time>2017-12-17T11:52:13Z</time>
      </trkpt>
      <trkpt lat="46.25403" lon="5.91136">
        <ele>1235.4000244141</ele>
        <time>2017-12-17T11:52:18Z</time>
      </trkpt>
      <trkpt lat="46.25403" lon="5.91136">
        <ele>1235.4000244141</ele>
        <time>2017-12-17T11:52:23Z</time>
      </trkpt>
      <trkpt lat="46.25403" lon="5.91136">
        <ele>1235.4000244141</ele>
        <time>2017-12-17T11:52:28Z</time>
      </trkpt>
      <trkpt lat="46.25403" lon="5.91136">
        <ele>1235.4000244141</ele>
        <time>2017-12-17T11:52:33Z</time>
      </trkpt>
      <trkpt lat="46.25403" lon="5.91136">
        <ele>1235.4000244141</ele>
        <time>2017-12-17T11:52:38Z</time>
      </trkpt>
      <trkpt lat="46.25403" lon="5.91136">
        <ele>1235.4000244141</ele>
        <time>2017-12-17T11:52:43Z</time>
      </trkpt>
      <trkpt lat="46.25403" lon="5.91136">
        <ele>1235.4000244141</ele>
        <time>2017-12-17T11:52:48Z</time>
      </trkpt>
      <trkpt lat="46.25403" lon="5.91136">
        <ele>1235.4000244141</ele>
        <time>2017-12-17T11:52:53Z</time>
      </trkpt>
      <trkpt lat="46.25403" lon="5.91136">
        <ele>1235.4000244141</ele>
        <time>2017-12-17T11:52:58Z</time>
      </trkpt>
      <trkpt lat="46.25403" lon="5.91136">
        <ele>1235.4000244141</ele>
        <time>2017-12-17T11:53:03Z</time>
      </trkpt>
      <trkpt lat="46.25403" lon="5.91136">
        <ele>1235.4000244141</ele>
        <time>2017-12-17T11:53:08Z</time>
      </trkpt>
      <trkpt lat="46.25403" lon="5.91136">
        <ele>1235.4000244141</ele>
        <time>2017-12-17T11:53:13Z</time>
      </trkpt>
      <trkpt lat="46.25403" lon="5.91136">
        <ele>1235.4000244141</ele>
        <time>2017-12-17T11:53:18Z</time>
      </trkpt>
      <trkpt lat="46.25403" lon="5.91136">
        <ele>1235.4000244141</ele>
        <time>2017-12-17T11:53:23Z</time>
      </trkpt>
      <trkpt lat="46.25403" lon="5.91136">
        <ele>1235.4000244141</ele>
        <time>2017-12-17T11:53:28Z</time>
      </trkpt>
      <trkpt lat="46.25403" lon="5.91136">
        <ele>1235.4000244141</ele>
        <time>2017-12-17T11:53:31Z</time>
      </trkpt>
      <trkpt lat="46.25403" lon="5.91136">
        <ele>1235.4000244141</ele>
        <time>2017-12-17T11:53:36Z</time>
      </trkpt>
      <trkpt lat="46.25403" lon="5.91136">
        <ele>1235.4000244141</ele>
        <time>2017-12-17T11:53:41Z</time>
      </trkpt>
      <trkpt lat="46.25403" lon="5.91136">
        <ele>1235.4000244141</ele>
        <time>2017-12-17T11:53:46Z</time>
      </trkpt>
      <trkpt lat="46.25403" lon="5.91136">
        <ele>1235.4000244141</ele>
        <time>2017-12-17T11:53:51Z</time>
      </trkpt>
      <trkpt lat="46.25403" lon="5.91136">
        <ele>1235.4000244141</ele>
        <time>2017-12-17T11:53:56Z</time>
      </trkpt>
      <trkpt lat="46.25403" lon="5.91136">
        <ele>1235.4000244141</ele>
        <time>2017-12-17T11:54:01Z</time>
      </trkpt>
      <trkpt lat="46.25403" lon="5.91136">
        <ele>1235.4000244141</ele>
        <time>2017-12-17T11:54:06Z</time>
      </trkpt>
      <trkpt lat="46.25403" lon="5.91136">
        <ele>1235.4000244141</ele>
        <time>2017-12-17T11:54:11Z</time>
      </trkpt>
      <trkpt lat="46.25403" lon="5.91136">
        <ele>1235.4000244141</ele>
        <time>2017-12-17T11:54:16Z</time>
      </trkpt>
      <trkpt lat="46.25403" lon="5.91136">
        <ele>1235.4000244141</ele>
        <time>2017-12-17T11:54:21Z</time>
      </trkpt>
      <trkpt lat="46.25403" lon="5.91136">
        <ele>1235.4000244141</ele>
        <time>2017-12-17T11:54:26Z</time>
      </trkpt>
      <trkpt lat="46.25403" lon="5.91136">
        <ele>1235.4000244141</ele>
        <time>2017-12-17T11:54:31Z</time>
      </trkpt>
      <trkpt lat="46.25396" lon="5.91146">
        <ele>1237.5</ele>
        <time>2017-12-17T11:54:36Z</time>
      </trkpt>
      <trkpt lat="46.2539" lon="5.91148">
        <ele>1237.8000488281</ele>
        <time>2017-12-17T11:54:41Z</time>
      </trkpt>
      <trkpt lat="46.25388" lon="5.91147">
        <ele>1238.0999755859</ele>
        <time>2017-12-17T11:54:46Z</time>
      </trkpt>
      <trkpt lat="46.2538" lon="5.91147">
        <ele>1239.0999755859</ele>
        <time>2017-12-17T11:54:51Z</time>
      </trkpt>
      <trkpt lat="46.25374" lon="5.91145">
        <ele>1240.0999755859</ele>
        <time>2017-12-17T11:54:56Z</time>
      </trkpt>
      <trkpt lat="46.25366" lon="5.91146">
        <ele>1241.4000244141</ele>
        <time>2017-12-17T11:55:01Z</time>
      </trkpt>
      <trkpt lat="46.25361" lon="5.91146">
        <ele>1243.9000244141</ele>
        <time>2017-12-17T11:55:06Z</time>
      </trkpt>
      <trkpt lat="46.25355" lon="5.91144">
        <ele>1246.9000244141</ele>
        <time>2017-12-17T11:55:11Z</time>
      </trkpt>
      <trkpt lat="46.2535" lon="5.91143">
        <ele>1248.5</ele>
        <time>2017-12-17T11:55:16Z</time>
      </trkpt>
      <trkpt lat="46.25344" lon="5.9114">
        <ele>1252.6999511719</ele>
        <time>2017-12-17T11:55:21Z</time>
      </trkpt>
      <trkpt lat="46.25337" lon="5.9114">
        <ele>1255.4000244141</ele>
        <time>2017-12-17T11:55:26Z</time>
      </trkpt>
      <trkpt lat="46.25332" lon="5.91138">
        <ele>1258</ele>
        <time>2017-12-17T11:55:31Z</time>
      </trkpt>
      <trkpt lat="46.25331" lon="5.91137">
        <ele>1258.6999511719</ele>
        <time>2017-12-17T11:55:36Z</time>
      </trkpt>
      <trkpt lat="46.25331" lon="5.91137">
        <ele>1258.6999511719</ele>
        <time>2017-12-17T11:55:41Z</time>
      </trkpt>
      <trkpt lat="46.25331" lon="5.91137">
        <ele>1258.6999511719</ele>
        <time>2017-12-17T11:55:46Z</time>
      </trkpt>
      <trkpt lat="46.25319" lon="5.91134">
        <ele>1261.1999511719</ele>
        <time>2017-12-17T11:55:51Z</time>
      </trkpt>
      <trkpt lat="46.25318" lon="5.91134">
        <ele>1261.1999511719</ele>
        <time>2017-12-17T11:55:56Z</time>
      </trkpt>
      <trkpt lat="46.25309" lon="5.91138">
        <ele>1262</ele>
        <time>2017-12-17T11:56:01Z</time>
      </trkpt>
      <trkpt lat="46.25307" lon="5.91139">
        <ele>1262.3000488281</ele>
        <time>2017-12-17T11:56:06Z</time>
      </trkpt>
      <trkpt lat="46.25307" lon="5.91139">
        <ele>1262.3000488281</ele>
        <time>2017-12-17T11:56:11Z</time>
      </trkpt>
      <trkpt lat="46.25307" lon="5.91139">
        <ele>1262.3000488281</ele>
        <time>2017-12-17T11:56:16Z</time>
      </trkpt>
      <trkpt lat="46.25307" lon="5.91139">
        <ele>1262.3000488281</ele>
        <time>2017-12-17T11:56:21Z</time>
      </trkpt>
      <trkpt lat="46.25307" lon="5.91139">
        <ele>1262.3000488281</ele>
        <time>2017-12-17T11:56:26Z</time>
      </trkpt>
      <trkpt lat="46.25296" lon="5.91141">
        <ele>1264.8000488281</ele>
        <time>2017-12-17T11:56:31Z</time>
      </trkpt>
      <trkpt lat="46.25296" lon="5.91141">
        <ele>1264.8000488281</ele>
        <time>2017-12-17T11:56:36Z</time>
      </trkpt>
      <trkpt lat="46.25296" lon="5.91141">
        <ele>1264.8000488281</ele>
        <time>2017-12-17T11:56:41Z</time>
      </trkpt>
      <trkpt lat="46.25284" lon="5.91141">
        <ele>1267.9000244141</ele>
        <time>2017-12-17T11:56:45Z</time>
      </trkpt>
      <trkpt lat="46.25284" lon="5.91141">
        <ele>1267.9000244141</ele>
        <time>2017-12-17T11:56:50Z</time>
      </trkpt>
      <trkpt lat="46.25284" lon="5.91141">
        <ele>1267.9000244141</ele>
        <time>2017-12-17T11:56:51Z</time>
      </trkpt>
      <trkpt lat="46.25284" lon="5.91141">
        <ele>1267.9000244141</ele>
        <time>2017-12-17T11:56:56Z</time>
      </trkpt>
      <trkpt lat="46.25284" lon="5.91141">
        <ele>1267.9000244141</ele>
        <time>2017-12-17T11:57:01Z</time>
      </trkpt>
      <trkpt lat="46.25284" lon="5.91141">
        <ele>1267.9000244141</ele>
        <time>2017-12-17T11:57:06Z</time>
      </trkpt>
      <trkpt lat="46.25284" lon="5.91141">
        <ele>1267.9000244141</ele>
        <time>2017-12-17T11:57:11Z</time>
      </trkpt>
      <trkpt lat="46.25284" lon="5.91141">
        <ele>1267.9000244141</ele>
        <time>2017-12-17T11:57:16Z</time>
      </trkpt>
      <trkpt lat="46.25284" lon="5.91141">
        <ele>1267.9000244141</ele>
        <time>2017-12-17T11:57:21Z</time>
      </trkpt>
      <trkpt lat="46.25284" lon="5.91141">
        <ele>1267.9000244141</ele>
        <time>2017-12-17T11:57:26Z</time>
      </trkpt>
      <trkpt lat="46.25284" lon="5.91141">
        <ele>1267.9000244141</ele>
        <time>2017-12-17T11:57:31Z</time>
      </trkpt>
      <trkpt lat="46.25284" lon="5.91141">
        <ele>1267.9000244141</ele>
        <time>2017-12-17T11:57:36Z</time>
      </trkpt>
      <trkpt lat="46.25284" lon="5.91141">
        <ele>1267.9000244141</ele>
        <time>2017-12-17T11:57:41Z</time>
      </trkpt>
      <trkpt lat="46.25291" lon="5.91151">
        <ele>1270.0999755859</ele>
        <time>2017-12-17T11:57:46Z</time>
      </trkpt>
      <trkpt lat="46.25293" lon="5.91152">
        <ele>1270.3000488281</ele>
        <time>2017-12-17T11:57:51Z</time>
      </trkpt>
      <trkpt lat="46.25293" lon="5.91152">
        <ele>1270.3000488281</ele>
        <time>2017-12-17T11:57:56Z</time>
      </trkpt>
      <trkpt lat="46.25293" lon="5.91152">
        <ele>1270.3000488281</ele>
        <time>2017-12-17T11:58:01Z</time>
      </trkpt>
      <trkpt lat="46.25296" lon="5.91164">
        <ele>1271.9000244141</ele>
        <time>2017-12-17T11:58:06Z</time>
      </trkpt>
      <trkpt lat="46.25297" lon="5.91166">
        <ele>1272.1999511719</ele>
        <time>2017-12-17T11:58:11Z</time>
      </trkpt>
      <trkpt lat="46.25297" lon="5.91166">
        <ele>1272.1999511719</ele>
        <time>2017-12-17T11:58:16Z</time>
      </trkpt>
      <trkpt lat="46.25297" lon="5.91166">
        <ele>1272.1999511719</ele>
        <time>2017-12-17T11:58:21Z</time>
      </trkpt>
      <trkpt lat="46.25297" lon="5.91166">
        <ele>1272.1999511719</ele>
        <time>2017-12-17T11:58:26Z</time>
      </trkpt>
      <trkpt lat="46.25297" lon="5.91166">
        <ele>1272.1999511719</ele>
        <time>2017-12-17T11:58:31Z</time>
      </trkpt>
      <trkpt lat="46.25297" lon="5.91166">
        <ele>1272.1999511719</ele>
        <time>2017-12-17T11:58:36Z</time>
      </trkpt>
      <trkpt lat="46.25297" lon="5.91166">
        <ele>1272.1999511719</ele>
        <time>2017-12-17T11:58:41Z</time>
      </trkpt>
      <trkpt lat="46.25297" lon="5.91166">
        <ele>1272.1999511719</ele>
        <time>2017-12-17T11:58:46Z</time>
      </trkpt>
      <trkpt lat="46.25297" lon="5.91166">
        <ele>1272.1999511719</ele>
        <time>2017-12-17T11:58:51Z</time>
      </trkpt>
      <trkpt lat="46.25297" lon="5.91166">
        <ele>1272.1999511719</ele>
        <time>2017-12-17T11:58:56Z</time>
      </trkpt>
      <trkpt lat="46.25297" lon="5.91166">
        <ele>1272.1999511719</ele>
        <time>2017-12-17T11:58:58Z</time>
      </trkpt>
      <trkpt lat="46.25297" lon="5.91166">
        <ele>1272.1999511719</ele>
        <time>2017-12-17T11:59:03Z</time>
      </trkpt>
      <trkpt lat="46.25297" lon="5.91166">
        <ele>1272.1999511719</ele>
        <time>2017-12-17T11:59:08Z</time>
      </trkpt>
      <trkpt lat="46.25297" lon="5.91166">
        <ele>1272.1999511719</ele>
        <time>2017-12-17T11:59:13Z</time>
      </trkpt>
      <trkpt lat="46.25287" lon="5.91166">
        <ele>1274.4000244141</ele>
        <time>2017-12-17T11:59:18Z</time>
      </trkpt>
      <trkpt lat="46.25287" lon="5.91166">
        <ele>1274.4000244141</ele>
        <time>2017-12-17T11:59:23Z</time>
      </trkpt>
      <trkpt lat="46.25287" lon="5.91166">
        <ele>1274.4000244141</ele>
        <time>2017-12-17T11:59:28Z</time>
      </trkpt>
      <trkpt lat="46.25287" lon="5.91166">
        <ele>1274.4000244141</ele>
        <time>2017-12-17T11:59:33Z</time>
      </trkpt>
      <trkpt lat="46.25287" lon="5.91166">
        <ele>1274.4000244141</ele>
        <time>2017-12-17T11:59:38Z</time>
      </trkpt>
      <trkpt lat="46.25294" lon="5.91174">
        <ele>1276.0999755859</ele>
        <time>2017-12-17T11:59:43Z</time>
      </trkpt>
      <trkpt lat="46.25294" lon="5.91174">
        <ele>1276.0999755859</ele>
        <time>2017-12-17T11:59:46Z</time>
      </trkpt>
      <trkpt lat="46.25294" lon="5.91174">
        <ele>1276.0999755859</ele>
        <time>2017-12-17T11:59:51Z</time>
      </trkpt>
      <trkpt lat="46.25294" lon="5.91174">
        <ele>1276.0999755859</ele>
        <time>2017-12-17T11:59:56Z</time>
      </trkpt>
      <trkpt lat="46.25294" lon="5.91174">
        <ele>1276.0999755859</ele>
        <time>2017-12-17T12:00:01Z</time>
      </trkpt>
      <trkpt lat="46.25284" lon="5.9118">
        <ele>1277.9000244141</ele>
        <time>2017-12-17T12:00:06Z</time>
      </trkpt>
      <trkpt lat="46.25284" lon="5.9118">
        <ele>1277.9000244141</ele>
        <time>2017-12-17T12:00:11Z</time>
      </trkpt>
      <trkpt lat="46.25284" lon="5.9118">
        <ele>1277.9000244141</ele>
        <time>2017-12-17T12:00:16Z</time>
      </trkpt>
      <trkpt lat="46.25284" lon="5.9118">
        <ele>1277.9000244141</ele>
        <time>2017-12-17T12:00:21Z</time>
      </trkpt>
      <trkpt lat="46.25284" lon="5.9118">
        <ele>1277.9000244141</ele>
        <time>2017-12-17T12:00:23Z</time>
      </trkpt>
      <trkpt lat="46.25284" lon="5.9118">
        <ele>1277.9000244141</ele>
        <time>2017-12-17T12:00:28Z</time>
      </trkpt>
      <trkpt lat="46.25275" lon="5.91183">
        <ele>1280.9000244141</ele>
        <time>2017-12-17T12:00:33Z</time>
      </trkpt>
      <trkpt lat="46.25274" lon="5.91184">
        <ele>1281.3000488281</ele>
        <time>2017-12-17T12:00:38Z</time>
      </trkpt>
      <trkpt lat="46.25274" lon="5.91184">
        <ele>1281.3000488281</ele>
        <time>2017-12-17T12:00:43Z</time>
      </trkpt>
      <trkpt lat="46.25274" lon="5.91184">
        <ele>1281.3000488281</ele>
        <time>2017-12-17T12:00:48Z</time>
      </trkpt>
      <trkpt lat="46.25264" lon="5.91187">
        <ele>1283.0999755859</ele>
        <time>2017-12-17T12:00:53Z</time>
      </trkpt>
      <trkpt lat="46.25263" lon="5.91186">
        <ele>1283.3000488281</ele>
        <time>2017-12-17T12:00:58Z</time>
      </trkpt>
      <trkpt lat="46.25263" lon="5.91186">
        <ele>1283.3000488281</ele>
        <time>2017-12-17T12:01:03Z</time>
      </trkpt>
      <trkpt lat="46.25263" lon="5.91186">
        <ele>1283.3000488281</ele>
        <time>2017-12-17T12:01:08Z</time>
      </trkpt>
      <trkpt lat="46.25263" lon="5.91186">
        <ele>1283.3000488281</ele>
        <time>2017-12-17T12:01:13Z</time>
      </trkpt>
      <trkpt lat="46.25263" lon="5.91186">
        <ele>1283.3000488281</ele>
        <time>2017-12-17T12:01:18Z</time>
      </trkpt>
      <trkpt lat="46.25263" lon="5.91186">
        <ele>1283.3000488281</ele>
        <time>2017-12-17T12:01:23Z</time>
      </trkpt>
      <trkpt lat="46.25263" lon="5.91186">
        <ele>1283.3000488281</ele>
        <time>2017-12-17T12:01:28Z</time>
      </trkpt>
      <trkpt lat="46.25263" lon="5.91186">
        <ele>1283.3000488281</ele>
        <time>2017-12-17T12:01:33Z</time>
      </trkpt>
      <trkpt lat="46.25263" lon="5.91186">
        <ele>1283.3000488281</ele>
        <time>2017-12-17T12:01:38Z</time>
      </trkpt>
      <trkpt lat="46.25263" lon="5.91186">
        <ele>1283.3000488281</ele>
        <time>2017-12-17T12:01:43Z</time>
      </trkpt>
      <trkpt lat="46.25263" lon="5.91186">
        <ele>1283.3000488281</ele>
        <time>2017-12-17T12:01:48Z</time>
      </trkpt>
      <trkpt lat="46.25263" lon="5.91186">
        <ele>1283.3000488281</ele>
        <time>2017-12-17T12:01:53Z</time>
      </trkpt>
      <trkpt lat="46.25263" lon="5.91186">
        <ele>1283.3000488281</ele>
        <time>2017-12-17T12:01:58Z</time>
      </trkpt>
      <trkpt lat="46.25263" lon="5.91186">
        <ele>1283.3000488281</ele>
        <time>2017-12-17T12:02:03Z</time>
      </trkpt>
      <trkpt lat="46.25263" lon="5.91186">
        <ele>1283.3000488281</ele>
        <time>2017-12-17T12:02:08Z</time>
      </trkpt>
      <trkpt lat="46.25263" lon="5.91186">
        <ele>1283.3000488281</ele>
        <time>2017-12-17T12:02:13Z</time>
      </trkpt>
      <trkpt lat="46.25263" lon="5.91186">
        <ele>1283.3000488281</ele>
        <time>2017-12-17T12:02:18Z</time>
      </trkpt>
      <trkpt lat="46.25263" lon="5.91186">
        <ele>1283.3000488281</ele>
        <time>2017-12-17T12:02:19Z</time>
      </trkpt>
      <trkpt lat="46.25263" lon="5.91186">
        <ele>1283.3000488281</ele>
        <time>2017-12-17T12:02:24Z</time>
      </trkpt>
      <trkpt lat="46.2526" lon="5.912">
        <ele>1287.3000488281</ele>
        <time>2017-12-17T12:02:29Z</time>
      </trkpt>
      <trkpt lat="46.25259" lon="5.912">
        <ele>1287.4000244141</ele>
        <time>2017-12-17T12:02:34Z</time>
      </trkpt>
      <trkpt lat="46.25259" lon="5.912">
        <ele>1287.4000244141</ele>
        <time>2017-12-17T12:02:39Z</time>
      </trkpt>
      <trkpt lat="46.25259" lon="5.912">
        <ele>1287.4000244141</ele>
        <time>2017-12-17T12:02:44Z</time>
      </trkpt>
      <trkpt lat="46.25259" lon="5.912">
        <ele>1287.4000244141</ele>
        <time>2017-12-17T12:02:49Z</time>
      </trkpt>
      <trkpt lat="46.25259" lon="5.912">
        <ele>1287.4000244141</ele>
        <time>2017-12-17T12:02:54Z</time>
      </trkpt>
      <trkpt lat="46.25259" lon="5.912">
        <ele>1287.4000244141</ele>
        <time>2017-12-17T12:02:59Z</time>
      </trkpt>
      <trkpt lat="46.25263" lon="5.91214">
        <ele>1289.6999511719</ele>
        <time>2017-12-17T12:03:04Z</time>
      </trkpt>
      <trkpt lat="46.25263" lon="5.91215">
        <ele>1289.8000488281</ele>
        <time>2017-12-17T12:03:09Z</time>
      </trkpt>
      <trkpt lat="46.25263" lon="5.91215">
        <ele>1289.8000488281</ele>
        <time>2017-12-17T12:03:14Z</time>
      </trkpt>
      <trkpt lat="46.25263" lon="5.91215">
        <ele>1289.8000488281</ele>
        <time>2017-12-17T12:03:19Z</time>
      </trkpt>
      <trkpt lat="46.25253" lon="5.91219">
        <ele>1293</ele>
        <time>2017-12-17T12:03:24Z</time>
      </trkpt>
      <trkpt lat="46.25253" lon="5.91219">
        <ele>1293</ele>
        <time>2017-12-17T12:03:29Z</time>
      </trkpt>
      <trkpt lat="46.25253" lon="5.91219">
        <ele>1293</ele>
        <time>2017-12-17T12:03:34Z</time>
      </trkpt>
      <trkpt lat="46.25253" lon="5.91219">
        <ele>1293</ele>
        <time>2017-12-17T12:03:39Z</time>
      </trkpt>
      <trkpt lat="46.25243" lon="5.91225">
        <ele>1296.5</ele>
        <time>2017-12-17T12:03:44Z</time>
      </trkpt>
      <trkpt lat="46.25243" lon="5.91225">
        <ele>1296.6999511719</ele>
        <time>2017-12-17T12:03:49Z</time>
      </trkpt>
      <trkpt lat="46.25243" lon="5.91225">
        <ele>1296.6999511719</ele>
        <time>2017-12-17T12:03:54Z</time>
      </trkpt>
      <trkpt lat="46.25243" lon="5.91225">
        <ele>1296.6999511719</ele>
        <time>2017-12-17T12:03:59Z</time>
      </trkpt>
      <trkpt lat="46.25243" lon="5.91225">
        <ele>1296.6999511719</ele>
        <time>2017-12-17T12:04:04Z</time>
      </trkpt>
      <trkpt lat="46.25243" lon="5.91225">
        <ele>1296.6999511719</ele>
        <time>2017-12-17T12:04:05Z</time>
      </trkpt>
      <trkpt lat="46.25243" lon="5.91225">
        <ele>1296.6999511719</ele>
        <time>2017-12-17T12:04:10Z</time>
      </trkpt>
      <trkpt lat="46.25243" lon="5.91225">
        <ele>1296.6999511719</ele>
        <time>2017-12-17T12:04:15Z</time>
      </trkpt>
      <trkpt lat="46.25243" lon="5.91225">
        <ele>1296.6999511719</ele>
        <time>2017-12-17T12:04:20Z</time>
      </trkpt>
      <trkpt lat="46.25243" lon="5.91225">
        <ele>1296.6999511719</ele>
        <time>2017-12-17T12:04:25Z</time>
      </trkpt>
      <trkpt lat="46.25242" lon="5.91241">
        <ele>1303.5</ele>
        <time>2017-12-17T12:04:30Z</time>
      </trkpt>
      <trkpt lat="46.25242" lon="5.91241">
        <ele>1303.5</ele>
        <time>2017-12-17T12:04:35Z</time>
      </trkpt>
      <trkpt lat="46.25242" lon="5.91241">
        <ele>1303.5</ele>
        <time>2017-12-17T12:04:40Z</time>
      </trkpt>
      <trkpt lat="46.25242" lon="5.91241">
        <ele>1303.5</ele>
        <time>2017-12-17T12:04:45Z</time>
      </trkpt>
      <trkpt lat="46.25244" lon="5.91254">
        <ele>1308.5999755859</ele>
        <time>2017-12-17T12:04:50Z</time>
      </trkpt>
      <trkpt lat="46.25245" lon="5.91257">
        <ele>1309.4000244141</ele>
        <time>2017-12-17T12:04:55Z</time>
      </trkpt>
      <trkpt lat="46.25245" lon="5.91257">
        <ele>1309.4000244141</ele>
        <time>2017-12-17T12:05:00Z</time>
      </trkpt>
      <trkpt lat="46.25245" lon="5.91257">
        <ele>1309.4000244141</ele>
        <time>2017-12-17T12:05:05Z</time>
      </trkpt>
      <trkpt lat="46.25245" lon="5.91257">
        <ele>1309.4000244141</ele>
        <time>2017-12-17T12:05:10Z</time>
      </trkpt>
      <trkpt lat="46.25244" lon="5.91272">
        <ele>1316.9000244141</ele>
        <time>2017-12-17T12:05:15Z</time>
      </trkpt>
      <trkpt lat="46.25244" lon="5.91273">
        <ele>1317.1999511719</ele>
        <time>2017-12-17T12:05:20Z</time>
      </trkpt>
      <trkpt lat="46.25244" lon="5.91273">
        <ele>1317.1999511719</ele>
        <time>2017-12-17T12:05:25Z</time>
      </trkpt>
      <trkpt lat="46.25244" lon="5.91273">
        <ele>1317.1999511719</ele>
        <time>2017-12-17T12:05:30Z</time>
      </trkpt>
      <trkpt lat="46.25244" lon="5.91273">
        <ele>1317.1999511719</ele>
        <time>2017-12-17T12:05:35Z</time>
      </trkpt>
      <trkpt lat="46.25237" lon="5.91288">
        <ele>1325.0999755859</ele>
        <time>2017-12-17T12:05:40Z</time>
      </trkpt>
      <trkpt lat="46.25237" lon="5.91288">
        <ele>1325.0999755859</ele>
        <time>2017-12-17T12:05:45Z</time>
      </trkpt>
      <trkpt lat="46.25237" lon="5.91288">
        <ele>1325.0999755859</ele>
        <time>2017-12-17T12:05:50Z</time>
      </trkpt>
      <trkpt lat="46.25237" lon="5.91288">
        <ele>1325.0999755859</ele>
        <time>2017-12-17T12:05:54Z</time>
      </trkpt>
      <trkpt lat="46.25237" lon="5.91288">
        <ele>1325.0999755859</ele>
        <time>2017-12-17T12:05:59Z</time>
      </trkpt>
      <trkpt lat="46.25237" lon="5.91288">
        <ele>1325.0999755859</ele>
        <time>2017-12-17T12:06:04Z</time>
      </trkpt>
      <trkpt lat="46.25237" lon="5.91288">
        <ele>1325.0999755859</ele>
        <time>2017-12-17T12:06:09Z</time>
      </trkpt>
      <trkpt lat="46.25237" lon="5.91288">
        <ele>1325.0999755859</ele>
        <time>2017-12-17T12:06:14Z</time>
      </trkpt>
      <trkpt lat="46.25237" lon="5.91288">
        <ele>1325.0999755859</ele>
        <time>2017-12-17T12:06:19Z</time>
      </trkpt>
      <trkpt lat="46.25237" lon="5.91288">
        <ele>1325.0999755859</ele>
        <time>2017-12-17T12:06:24Z</time>
      </trkpt>
      <trkpt lat="46.25237" lon="5.91303">
        <ele>1331.8000488281</ele>
        <time>2017-12-17T12:06:30Z</time>
      </trkpt>
      <trkpt lat="46.25237" lon="5.91305">
        <ele>1332</ele>
        <time>2017-12-17T12:06:35Z</time>
      </trkpt>
      <trkpt lat="46.25237" lon="5.91305">
        <ele>1332</ele>
        <time>2017-12-17T12:06:40Z</time>
      </trkpt>
      <trkpt lat="46.25243" lon="5.91318">
        <ele>1335</ele>
        <time>2017-12-17T12:06:45Z</time>
      </trkpt>
      <trkpt lat="46.25247" lon="5.9132">
        <ele>1335.9000244141</ele>
        <time>2017-12-17T12:06:50Z</time>
      </trkpt>
      <trkpt lat="46.25248" lon="5.91322">
        <ele>1336.3000488281</ele>
        <time>2017-12-17T12:06:55Z</time>
      </trkpt>
      <trkpt lat="46.25248" lon="5.91322">
        <ele>1336.3000488281</ele>
        <time>2017-12-17T12:07:00Z</time>
      </trkpt>
      <trkpt lat="46.25254" lon="5.91332">
        <ele>1340</ele>
        <time>2017-12-17T12:07:05Z</time>
      </trkpt>
      <trkpt lat="46.25255" lon="5.91334">
        <ele>1340.9000244141</ele>
        <time>2017-12-17T12:07:10Z</time>
      </trkpt>
      <trkpt lat="46.25255" lon="5.91334">
        <ele>1340.9000244141</ele>
        <time>2017-12-17T12:07:15Z</time>
      </trkpt>
      <trkpt lat="46.25255" lon="5.91334">
        <ele>1340.9000244141</ele>
        <time>2017-12-17T12:07:20Z</time>
      </trkpt>
      <trkpt lat="46.25261" lon="5.91345">
        <ele>1348.5</ele>
        <time>2017-12-17T12:07:25Z</time>
      </trkpt>
      <trkpt lat="46.25262" lon="5.91348">
        <ele>1350</ele>
        <time>2017-12-17T12:07:30Z</time>
      </trkpt>
      <trkpt lat="46.25262" lon="5.91348">
        <ele>1350</ele>
        <time>2017-12-17T12:07:35Z</time>
      </trkpt>
      <trkpt lat="46.25262" lon="5.91348">
        <ele>1350</ele>
        <time>2017-12-17T12:07:40Z</time>
      </trkpt>
      <trkpt lat="46.25269" lon="5.91358">
        <ele>1359.5</ele>
        <time>2017-12-17T12:07:45Z</time>
      </trkpt>
      <trkpt lat="46.2527" lon="5.91358">
        <ele>1359.8000488281</ele>
        <time>2017-12-17T12:07:50Z</time>
      </trkpt>
      <trkpt lat="46.2527" lon="5.91358">
        <ele>1359.8000488281</ele>
        <time>2017-12-17T12:07:55Z</time>
      </trkpt>
      <trkpt lat="46.2527" lon="5.91358">
        <ele>1359.8000488281</ele>
        <time>2017-12-17T12:08:00Z</time>
      </trkpt>
      <trkpt lat="46.25275" lon="5.91372">
        <ele>1367.0999755859</ele>
        <time>2017-12-17T12:08:05Z</time>
      </trkpt>
      <trkpt lat="46.25276" lon="5.91373">
        <ele>1367.5</ele>
        <time>2017-12-17T12:08:10Z</time>
      </trkpt>
      <trkpt lat="46.25276" lon="5.91373">
        <ele>1367.5</ele>
        <time>2017-12-17T12:08:14Z</time>
      </trkpt>
      <trkpt lat="46.25276" lon="5.91373">
        <ele>1367.5</ele>
        <time>2017-12-17T12:08:19Z</time>
      </trkpt>
      <trkpt lat="46.25276" lon="5.91373">
        <ele>1367.5</ele>
        <time>2017-12-17T12:08:24Z</time>
      </trkpt>
      <trkpt lat="46.25276" lon="5.91373">
        <ele>1367.5</ele>
        <time>2017-12-17T12:08:29Z</time>
      </trkpt>
      <trkpt lat="46.25276" lon="5.91373">
        <ele>1367.5</ele>
        <time>2017-12-17T12:08:34Z</time>
      </trkpt>
      <trkpt lat="46.25269" lon="5.91382">
        <ele>1370.9000244141</ele>
        <time>2017-12-17T12:08:39Z</time>
      </trkpt>
      <trkpt lat="46.25266" lon="5.91385">
        <ele>1371.1999511719</ele>
        <time>2017-12-17T12:08:44Z</time>
      </trkpt>
      <trkpt lat="46.25266" lon="5.91385">
        <ele>1371.1999511719</ele>
        <time>2017-12-17T12:08:49Z</time>
      </trkpt>
      <trkpt lat="46.25264" lon="5.91393">
        <ele>1374.9000244141</ele>
        <time>2017-12-17T12:08:54Z</time>
      </trkpt>
      <trkpt lat="46.25264" lon="5.91393">
        <ele>1374.9000244141</ele>
        <time>2017-12-17T12:08:59Z</time>
      </trkpt>
      <trkpt lat="46.25264" lon="5.91393">
        <ele>1374.9000244141</ele>
        <time>2017-12-17T12:09:04Z</time>
      </trkpt>
      <trkpt lat="46.25264" lon="5.91393">
        <ele>1374.9000244141</ele>
        <time>2017-12-17T12:09:09Z</time>
      </trkpt>
      <trkpt lat="46.25257" lon="5.914">
        <ele>1374.6999511719</ele>
        <time>2017-12-17T12:09:14Z</time>
      </trkpt>
      <trkpt lat="46.25256" lon="5.91402">
        <ele>1374.1999511719</ele>
        <time>2017-12-17T12:09:19Z</time>
      </trkpt>
      <trkpt lat="46.2525" lon="5.91404">
        <ele>1374.5999755859</ele>
        <time>2017-12-17T12:09:24Z</time>
      </trkpt>
      <trkpt lat="46.25245" lon="5.91411">
        <ele>1376.5999755859</ele>
        <time>2017-12-17T12:09:29Z</time>
      </trkpt>
      <trkpt lat="46.2524" lon="5.91415">
        <ele>1379</ele>
        <time>2017-12-17T12:09:34Z</time>
      </trkpt>
      <trkpt lat="46.2524" lon="5.91416">
        <ele>1379.3000488281</ele>
        <time>2017-12-17T12:09:39Z</time>
      </trkpt>
      <trkpt lat="46.25234" lon="5.91425">
        <ele>1383.9000244141</ele>
        <time>2017-12-17T12:09:44Z</time>
      </trkpt>
      <trkpt lat="46.2523" lon="5.91429">
        <ele>1387.1999511719</ele>
        <time>2017-12-17T12:09:49Z</time>
      </trkpt>
      <trkpt lat="46.25225" lon="5.91433">
        <ele>1391.0999755859</ele>
        <time>2017-12-17T12:09:54Z</time>
      </trkpt>
      <trkpt lat="46.25225" lon="5.91433">
        <ele>1391.0999755859</ele>
        <time>2017-12-17T12:09:59Z</time>
      </trkpt>
      <trkpt lat="46.25225" lon="5.91433">
        <ele>1391.0999755859</ele>
        <time>2017-12-17T12:10:04Z</time>
      </trkpt>
      <trkpt lat="46.25225" lon="5.91433">
        <ele>1391.0999755859</ele>
        <time>2017-12-17T12:10:09Z</time>
      </trkpt>
      <trkpt lat="46.25225" lon="5.91433">
        <ele>1391.0999755859</ele>
        <time>2017-12-17T12:10:14Z</time>
      </trkpt>
      <trkpt lat="46.25219" lon="5.91447">
        <ele>1398.8000488281</ele>
        <time>2017-12-17T12:10:19Z</time>
      </trkpt>
      <trkpt lat="46.25219" lon="5.91447">
        <ele>1398.8000488281</ele>
        <time>2017-12-17T12:10:24Z</time>
      </trkpt>
      <trkpt lat="46.25219" lon="5.91447">
        <ele>1398.8000488281</ele>
        <time>2017-12-17T12:10:29Z</time>
      </trkpt>
      <trkpt lat="46.25223" lon="5.91459">
        <ele>1402</ele>
        <time>2017-12-17T12:10:34Z</time>
      </trkpt>
      <trkpt lat="46.25224" lon="5.91461">
        <ele>1402.6999511719</ele>
        <time>2017-12-17T12:10:39Z</time>
      </trkpt>
      <trkpt lat="46.25224" lon="5.91461">
        <ele>1402.6999511719</ele>
        <time>2017-12-17T12:10:44Z</time>
      </trkpt>
      <trkpt lat="46.25224" lon="5.91461">
        <ele>1402.6999511719</ele>
        <time>2017-12-17T12:10:49Z</time>
      </trkpt>
      <trkpt lat="46.25224" lon="5.91461">
        <ele>1402.6999511719</ele>
        <time>2017-12-17T12:10:54Z</time>
      </trkpt>
      <trkpt lat="46.25231" lon="5.91474">
        <ele>1408.0999755859</ele>
        <time>2017-12-17T12:10:59Z</time>
      </trkpt>
      <trkpt lat="46.25231" lon="5.91474">
        <ele>1408.0999755859</ele>
        <time>2017-12-17T12:11:04Z</time>
      </trkpt>
      <trkpt lat="46.25231" lon="5.91474">
        <ele>1408.0999755859</ele>
        <time>2017-12-17T12:11:09Z</time>
      </trkpt>
      <trkpt lat="46.25231" lon="5.91474">
        <ele>1408.0999755859</ele>
        <time>2017-12-17T12:11:14Z</time>
      </trkpt>
      <trkpt lat="46.25231" lon="5.91474">
        <ele>1408.0999755859</ele>
        <time>2017-12-17T12:11:16Z</time>
      </trkpt>
      <trkpt lat="46.25231" lon="5.91474">
        <ele>1408.0999755859</ele>
        <time>2017-12-17T12:11:21Z</time>
      </trkpt>
      <trkpt lat="46.25231" lon="5.91474">
        <ele>1408.0999755859</ele>
        <time>2017-12-17T12:11:26Z</time>
      </trkpt>
      <trkpt lat="46.25231" lon="5.91474">
        <ele>1408.0999755859</ele>
        <time>2017-12-17T12:11:31Z</time>
      </trkpt>
      <trkpt lat="46.25231" lon="5.91474">
        <ele>1408.0999755859</ele>
        <time>2017-12-17T12:11:36Z</time>
      </trkpt>
      <trkpt lat="46.25231" lon="5.91474">
        <ele>1408.0999755859</ele>
        <time>2017-12-17T12:11:41Z</time>
      </trkpt>
      <trkpt lat="46.25231" lon="5.91474">
        <ele>1408.0999755859</ele>
        <time>2017-12-17T12:11:46Z</time>
      </trkpt>
      <trkpt lat="46.25231" lon="5.91474">
        <ele>1408.0999755859</ele>
        <time>2017-12-17T12:11:51Z</time>
      </trkpt>
      <trkpt lat="46.25231" lon="5.91474">
        <ele>1408.0999755859</ele>
        <time>2017-12-17T12:11:56Z</time>
      </trkpt>
      <trkpt lat="46.25231" lon="5.91474">
        <ele>1408.0999755859</ele>
        <time>2017-12-17T12:12:01Z</time>
      </trkpt>
      <trkpt lat="46.25231" lon="5.91474">
        <ele>1408.0999755859</ele>
        <time>2017-12-17T12:12:06Z</time>
      </trkpt>
      <trkpt lat="46.25231" lon="5.91474">
        <ele>1408.0999755859</ele>
        <time>2017-12-17T12:12:11Z</time>
      </trkpt>
      <trkpt lat="46.25231" lon="5.91474">
        <ele>1408.0999755859</ele>
        <time>2017-12-17T12:12:16Z</time>
      </trkpt>
      <trkpt lat="46.25231" lon="5.91474">
        <ele>1408.0999755859</ele>
        <time>2017-12-17T12:12:21Z</time>
      </trkpt>
      <trkpt lat="46.25231" lon="5.91474">
        <ele>1408.0999755859</ele>
        <time>2017-12-17T12:12:26Z</time>
      </trkpt>
      <trkpt lat="46.25231" lon="5.91474">
        <ele>1408.0999755859</ele>
        <time>2017-12-17T12:12:31Z</time>
      </trkpt>
      <trkpt lat="46.25231" lon="5.91474">
        <ele>1408.0999755859</ele>
        <time>2017-12-17T12:12:36Z</time>
      </trkpt>
      <trkpt lat="46.25231" lon="5.91474">
        <ele>1408.0999755859</ele>
        <time>2017-12-17T12:12:41Z</time>
      </trkpt>
      <trkpt lat="46.25231" lon="5.91474">
        <ele>1408.0999755859</ele>
        <time>2017-12-17T12:12:46Z</time>
      </trkpt>
      <trkpt lat="46.25231" lon="5.91474">
        <ele>1408.0999755859</ele>
        <time>2017-12-17T12:12:51Z</time>
      </trkpt>
      <trkpt lat="46.25231" lon="5.91474">
        <ele>1408.0999755859</ele>
        <time>2017-12-17T12:12:56Z</time>
      </trkpt>
      <trkpt lat="46.25231" lon="5.91474">
        <ele>1408.0999755859</ele>
        <time>2017-12-17T12:13:01Z</time>
      </trkpt>
      <trkpt lat="46.25231" lon="5.91474">
        <ele>1408.0999755859</ele>
        <time>2017-12-17T12:13:06Z</time>
      </trkpt>
      <trkpt lat="46.25236" lon="5.91485">
        <ele>1412.5</ele>
        <time>2017-12-17T12:13:11Z</time>
      </trkpt>
      <trkpt lat="46.25237" lon="5.91488">
        <ele>1412.5999755859</ele>
        <time>2017-12-17T12:13:16Z</time>
      </trkpt>
      <trkpt lat="46.25237" lon="5.91488">
        <ele>1412.5999755859</ele>
        <time>2017-12-17T12:13:21Z</time>
      </trkpt>
      <trkpt lat="46.25237" lon="5.91488">
        <ele>1412.5999755859</ele>
        <time>2017-12-17T12:13:26Z</time>
      </trkpt>
      <trkpt lat="46.25237" lon="5.91488">
        <ele>1412.5999755859</ele>
        <time>2017-12-17T12:13:31Z</time>
      </trkpt>
      <trkpt lat="46.25237" lon="5.91488">
        <ele>1412.5999755859</ele>
        <time>2017-12-17T12:13:36Z</time>
      </trkpt>
      <trkpt lat="46.25237" lon="5.91488">
        <ele>1412.5999755859</ele>
        <time>2017-12-17T12:13:41Z</time>
      </trkpt>
      <trkpt lat="46.25241" lon="5.91501">
        <ele>1413.8000488281</ele>
        <time>2017-12-17T12:13:46Z</time>
      </trkpt>
      <trkpt lat="46.25242" lon="5.91503">
        <ele>1414</ele>
        <time>2017-12-17T12:13:51Z</time>
      </trkpt>
      <trkpt lat="46.25242" lon="5.91503">
        <ele>1414</ele>
        <time>2017-12-17T12:13:56Z</time>
      </trkpt>
      <trkpt lat="46.25242" lon="5.91503">
        <ele>1414</ele>
        <time>2017-12-17T12:14:01Z</time>
      </trkpt>
      <trkpt lat="46.25245" lon="5.91518">
        <ele>1416.1999511719</ele>
        <time>2017-12-17T12:14:06Z</time>
      </trkpt>
      <trkpt lat="46.25245" lon="5.91518">
        <ele>1416.1999511719</ele>
        <time>2017-12-17T12:14:11Z</time>
      </trkpt>
      <trkpt lat="46.25245" lon="5.91518">
        <ele>1416.1999511719</ele>
        <time>2017-12-17T12:14:16Z</time>
      </trkpt>
      <trkpt lat="46.25247" lon="5.91533">
        <ele>1419.0999755859</ele>
        <time>2017-12-17T12:14:21Z</time>
      </trkpt>
      <trkpt lat="46.25247" lon="5.91534">
        <ele>1419.5</ele>
        <time>2017-12-17T12:14:26Z</time>
      </trkpt>
      <trkpt lat="46.25247" lon="5.91534">
        <ele>1419.5</ele>
        <time>2017-12-17T12:14:31Z</time>
      </trkpt>
      <trkpt lat="46.25247" lon="5.91534">
        <ele>1419.5</ele>
        <time>2017-12-17T12:14:36Z</time>
      </trkpt>
      <trkpt lat="46.2525" lon="5.91548">
        <ele>1423.0999755859</ele>
        <time>2017-12-17T12:14:41Z</time>
      </trkpt>
      <trkpt lat="46.2525" lon="5.91548">
        <ele>1423.0999755859</ele>
        <time>2017-12-17T12:14:46Z</time>
      </trkpt>
      <trkpt lat="46.2525" lon="5.91548">
        <ele>1423.0999755859</ele>
        <time>2017-12-17T12:14:51Z</time>
      </trkpt>
      <trkpt lat="46.2525" lon="5.91548">
        <ele>1423.0999755859</ele>
        <time>2017-12-17T12:14:56Z</time>
      </trkpt>
      <trkpt lat="46.25241" lon="5.91559">
        <ele>1428.3000488281</ele>
        <time>2017-12-17T12:15:01Z</time>
      </trkpt>
      <trkpt lat="46.25241" lon="5.91559">
        <ele>1428.3000488281</ele>
        <time>2017-12-17T12:15:06Z</time>
      </trkpt>
      <trkpt lat="46.25241" lon="5.91559">
        <ele>1428.3000488281</ele>
        <time>2017-12-17T12:15:11Z</time>
      </trkpt>
      <trkpt lat="46.25232" lon="5.91567">
        <ele>1432.4000244141</ele>
        <time>2017-12-17T12:15:16Z</time>
      </trkpt>
      <trkpt lat="46.25231" lon="5.91568">
        <ele>1432.9000244141</ele>
        <time>2017-12-17T12:15:21Z</time>
      </trkpt>
      <trkpt lat="46.25231" lon="5.91568">
        <ele>1432.9000244141</ele>
        <time>2017-12-17T12:15:26Z</time>
      </trkpt>
      <trkpt lat="46.25231" lon="5.91568">
        <ele>1432.9000244141</ele>
        <time>2017-12-17T12:15:31Z</time>
      </trkpt>
      <trkpt lat="46.25225" lon="5.91577">
        <ele>1437.6999511719</ele>
        <time>2017-12-17T12:15:36Z</time>
      </trkpt>
      <trkpt lat="46.25224" lon="5.91579">
        <ele>1438.1999511719</ele>
        <time>2017-12-17T12:15:41Z</time>
      </trkpt>
      <trkpt lat="46.25224" lon="5.91579">
        <ele>1438.1999511719</ele>
        <time>2017-12-17T12:15:46Z</time>
      </trkpt>
      <trkpt lat="46.25224" lon="5.91579">
        <ele>1438.1999511719</ele>
        <time>2017-12-17T12:15:51Z</time>
      </trkpt>
      <trkpt lat="46.2522" lon="5.91593">
        <ele>1443.0999755859</ele>
        <time>2017-12-17T12:15:56Z</time>
      </trkpt>
      <trkpt lat="46.2522" lon="5.91593">
        <ele>1443.0999755859</ele>
        <time>2017-12-17T12:16:01Z</time>
      </trkpt>
      <trkpt lat="46.2522" lon="5.91593">
        <ele>1443.0999755859</ele>
        <time>2017-12-17T12:16:06Z</time>
      </trkpt>
      <trkpt lat="46.25224" lon="5.91606">
        <ele>1448.0999755859</ele>
        <time>2017-12-17T12:16:11Z</time>
      </trkpt>
      <trkpt lat="46.25224" lon="5.91609">
        <ele>1449.0999755859</ele>
        <time>2017-12-17T12:16:16Z</time>
      </trkpt>
      <trkpt lat="46.25224" lon="5.91609">
        <ele>1449.0999755859</ele>
        <time>2017-12-17T12:16:21Z</time>
      </trkpt>
      <trkpt lat="46.25224" lon="5.91609">
        <ele>1449.0999755859</ele>
        <time>2017-12-17T12:16:26Z</time>
      </trkpt>
      <trkpt lat="46.25227" lon="5.91624">
        <ele>1454.6999511719</ele>
        <time>2017-12-17T12:16:31Z</time>
      </trkpt>
      <trkpt lat="46.25227" lon="5.91624">
        <ele>1454.6999511719</ele>
        <time>2017-12-17T12:16:36Z</time>
      </trkpt>
      <trkpt lat="46.25227" lon="5.91624">
        <ele>1454.6999511719</ele>
        <time>2017-12-17T12:16:41Z</time>
      </trkpt>
      <trkpt lat="46.25227" lon="5.91624">
        <ele>1454.6999511719</ele>
        <time>2017-12-17T12:16:46Z</time>
      </trkpt>
      <trkpt lat="46.25229" lon="5.91639">
        <ele>1460.5999755859</ele>
        <time>2017-12-17T12:16:51Z</time>
      </trkpt>
      <trkpt lat="46.25229" lon="5.91639">
        <ele>1460.5999755859</ele>
        <time>2017-12-17T12:16:56Z</time>
      </trkpt>
      <trkpt lat="46.25229" lon="5.91639">
        <ele>1460.5999755859</ele>
        <time>2017-12-17T12:17:01Z</time>
      </trkpt>
      <trkpt lat="46.25224" lon="5.91654">
        <ele>1466</ele>
        <time>2017-12-17T12:17:07Z</time>
      </trkpt>
      <trkpt lat="46.25224" lon="5.91654">
        <ele>1466</ele>
        <time>2017-12-17T12:17:12Z</time>
      </trkpt>
      <trkpt lat="46.25224" lon="5.91654">
        <ele>1466</ele>
        <time>2017-12-17T12:17:17Z</time>
      </trkpt>
      <trkpt lat="46.25222" lon="5.91668">
        <ele>1470.8000488281</ele>
        <time>2017-12-17T12:17:22Z</time>
      </trkpt>
      <trkpt lat="46.25222" lon="5.91669">
        <ele>1471.4000244141</ele>
        <time>2017-12-17T12:17:27Z</time>
      </trkpt>
      <trkpt lat="46.25222" lon="5.91669">
        <ele>1471.4000244141</ele>
        <time>2017-12-17T12:17:32Z</time>
      </trkpt>
      <trkpt lat="46.25222" lon="5.91669">
        <ele>1471.4000244141</ele>
        <time>2017-12-17T12:17:37Z</time>
      </trkpt>
      <trkpt lat="46.25221" lon="5.91684">
        <ele>1475.4000244141</ele>
        <time>2017-12-17T12:17:42Z</time>
      </trkpt>
      <trkpt lat="46.25221" lon="5.91685">
        <ele>1475.5999755859</ele>
        <time>2017-12-17T12:17:47Z</time>
      </trkpt>
      <trkpt lat="46.25221" lon="5.91685">
        <ele>1475.5999755859</ele>
        <time>2017-12-17T12:17:52Z</time>
      </trkpt>
      <trkpt lat="46.25221" lon="5.91685">
        <ele>1475.5999755859</ele>
        <time>2017-12-17T12:17:57Z</time>
      </trkpt>
      <trkpt lat="46.25221" lon="5.91685">
        <ele>1475.5999755859</ele>
        <time>2017-12-17T12:18:02Z</time>
      </trkpt>
      <trkpt lat="46.25215" lon="5.91699">
        <ele>1479.0999755859</ele>
        <time>2017-12-17T12:18:07Z</time>
      </trkpt>
      <trkpt lat="46.25215" lon="5.91699">
        <ele>1479.0999755859</ele>
        <time>2017-12-17T12:18:12Z</time>
      </trkpt>
      <trkpt lat="46.25215" lon="5.91699">
        <ele>1479.0999755859</ele>
        <time>2017-12-17T12:18:17Z</time>
      </trkpt>
      <trkpt lat="46.25215" lon="5.91699">
        <ele>1479.0999755859</ele>
        <time>2017-12-17T12:18:22Z</time>
      </trkpt>
      <trkpt lat="46.25215" lon="5.91699">
        <ele>1479.0999755859</ele>
        <time>2017-12-17T12:18:23Z</time>
      </trkpt>
      <trkpt lat="46.25215" lon="5.91699">
        <ele>1479.0999755859</ele>
        <time>2017-12-17T12:18:28Z</time>
      </trkpt>
      <trkpt lat="46.25215" lon="5.91699">
        <ele>1479.0999755859</ele>
        <time>2017-12-17T12:18:33Z</time>
      </trkpt>
      <trkpt lat="46.25215" lon="5.91699">
        <ele>1479.0999755859</ele>
        <time>2017-12-17T12:18:38Z</time>
      </trkpt>
      <trkpt lat="46.25215" lon="5.91699">
        <ele>1479.0999755859</ele>
        <time>2017-12-17T12:18:43Z</time>
      </trkpt>
      <trkpt lat="46.25215" lon="5.91699">
        <ele>1479.0999755859</ele>
        <time>2017-12-17T12:18:48Z</time>
      </trkpt>
      <trkpt lat="46.25215" lon="5.91699">
        <ele>1479.0999755859</ele>
        <time>2017-12-17T12:18:53Z</time>
      </trkpt>
      <trkpt lat="46.25215" lon="5.91699">
        <ele>1479.0999755859</ele>
        <time>2017-12-17T12:18:58Z</time>
      </trkpt>
      <trkpt lat="46.25215" lon="5.91699">
        <ele>1479.0999755859</ele>
        <time>2017-12-17T12:19:03Z</time>
      </trkpt>
      <trkpt lat="46.25215" lon="5.91699">
        <ele>1479.0999755859</ele>
        <time>2017-12-17T12:19:08Z</time>
      </trkpt>
      <trkpt lat="46.25215" lon="5.91699">
        <ele>1479.0999755859</ele>
        <time>2017-12-17T12:19:13Z</time>
      </trkpt>
      <trkpt lat="46.25215" lon="5.91699">
        <ele>1479.0999755859</ele>
        <time>2017-12-17T12:19:18Z</time>
      </trkpt>
      <trkpt lat="46.25215" lon="5.91699">
        <ele>1479.0999755859</ele>
        <time>2017-12-17T12:19:23Z</time>
      </trkpt>
      <trkpt lat="46.25208" lon="5.91707">
        <ele>1481.9000244141</ele>
        <time>2017-12-17T12:19:28Z</time>
      </trkpt>
      <trkpt lat="46.25207" lon="5.91709">
        <ele>1482.0999755859</ele>
        <time>2017-12-17T12:19:33Z</time>
      </trkpt>
      <trkpt lat="46.25207" lon="5.91709">
        <ele>1482.0999755859</ele>
        <time>2017-12-17T12:19:38Z</time>
      </trkpt>
      <trkpt lat="46.25207" lon="5.91709">
        <ele>1482.0999755859</ele>
        <time>2017-12-17T12:19:43Z</time>
      </trkpt>
      <trkpt lat="46.252" lon="5.91722">
        <ele>1483.5</ele>
        <time>2017-12-17T12:19:48Z</time>
      </trkpt>
      <trkpt lat="46.252" lon="5.91722">
        <ele>1483.5</ele>
        <time>2017-12-17T12:19:53Z</time>
      </trkpt>
      <trkpt lat="46.252" lon="5.91722">
        <ele>1483.5</ele>
        <time>2017-12-17T12:19:58Z</time>
      </trkpt>
      <trkpt lat="46.25197" lon="5.91735">
        <ele>1485.3000488281</ele>
        <time>2017-12-17T12:20:03Z</time>
      </trkpt>
      <trkpt lat="46.25197" lon="5.91739">
        <ele>1485.8000488281</ele>
        <time>2017-12-17T12:20:08Z</time>
      </trkpt>
      <trkpt lat="46.25197" lon="5.91739">
        <ele>1485.8000488281</ele>
        <time>2017-12-17T12:20:13Z</time>
      </trkpt>
      <trkpt lat="46.25199" lon="5.91751">
        <ele>1487.5</ele>
        <time>2017-12-17T12:20:18Z</time>
      </trkpt>
      <trkpt lat="46.25199" lon="5.91755">
        <ele>1488</ele>
        <time>2017-12-17T12:20:23Z</time>
      </trkpt>
      <trkpt lat="46.25199" lon="5.91755">
        <ele>1488</ele>
        <time>2017-12-17T12:20:28Z</time>
      </trkpt>
      <trkpt lat="46.25199" lon="5.91755">
        <ele>1488</ele>
        <time>2017-12-17T12:20:33Z</time>
      </trkpt>
      <trkpt lat="46.25199" lon="5.91755">
        <ele>1488</ele>
        <time>2017-12-17T12:20:38Z</time>
      </trkpt>
      <trkpt lat="46.25201" lon="5.91771">
        <ele>1491.8000488281</ele>
        <time>2017-12-17T12:20:43Z</time>
      </trkpt>
      <trkpt lat="46.25201" lon="5.91771">
        <ele>1491.8000488281</ele>
        <time>2017-12-17T12:20:48Z</time>
      </trkpt>
      <trkpt lat="46.25201" lon="5.91771">
        <ele>1491.8000488281</ele>
        <time>2017-12-17T12:20:53Z</time>
      </trkpt>
      <trkpt lat="46.25203" lon="5.91785">
        <ele>1495.5</ele>
        <time>2017-12-17T12:20:58Z</time>
      </trkpt>
      <trkpt lat="46.25203" lon="5.91786">
        <ele>1495.8000488281</ele>
        <time>2017-12-17T12:21:03Z</time>
      </trkpt>
      <trkpt lat="46.25203" lon="5.91786">
        <ele>1495.8000488281</ele>
        <time>2017-12-17T12:21:08Z</time>
      </trkpt>
      <trkpt lat="46.25203" lon="5.91786">
        <ele>1495.8000488281</ele>
        <time>2017-12-17T12:21:13Z</time>
      </trkpt>
      <trkpt lat="46.25206" lon="5.918">
        <ele>1501.0999755859</ele>
        <time>2017-12-17T12:21:18Z</time>
      </trkpt>
      <trkpt lat="46.25206" lon="5.91801">
        <ele>1501.4000244141</ele>
        <time>2017-12-17T12:21:23Z</time>
      </trkpt>
      <trkpt lat="46.25206" lon="5.91801">
        <ele>1501.4000244141</ele>
        <time>2017-12-17T12:21:28Z</time>
      </trkpt>
      <trkpt lat="46.25206" lon="5.91801">
        <ele>1501.4000244141</ele>
        <time>2017-12-17T12:21:33Z</time>
      </trkpt>
      <trkpt lat="46.25206" lon="5.91801">
        <ele>1501.4000244141</ele>
        <time>2017-12-17T12:21:38Z</time>
      </trkpt>
      <trkpt lat="46.25206" lon="5.91801">
        <ele>1501.4000244141</ele>
        <time>2017-12-17T12:21:43Z</time>
      </trkpt>
      <trkpt lat="46.25208" lon="5.91817">
        <ele>1504.4000244141</ele>
        <time>2017-12-17T12:21:48Z</time>
      </trkpt>
      <trkpt lat="46.25208" lon="5.91817">
        <ele>1504.4000244141</ele>
        <time>2017-12-17T12:21:53Z</time>
      </trkpt>
      <trkpt lat="46.25208" lon="5.91817">
        <ele>1504.4000244141</ele>
        <time>2017-12-17T12:21:58Z</time>
      </trkpt>
      <trkpt lat="46.25211" lon="5.91831">
        <ele>1506.9000244141</ele>
        <time>2017-12-17T12:22:03Z</time>
      </trkpt>
      <trkpt lat="46.25212" lon="5.91833">
        <ele>1507.1999511719</ele>
        <time>2017-12-17T12:22:08Z</time>
      </trkpt>
      <trkpt lat="46.25212" lon="5.91833">
        <ele>1507.1999511719</ele>
        <time>2017-12-17T12:22:13Z</time>
      </trkpt>
      <trkpt lat="46.25212" lon="5.91833">
        <ele>1507.1999511719</ele>
        <time>2017-12-17T12:22:18Z</time>
      </trkpt>
      <trkpt lat="46.25212" lon="5.91833">
        <ele>1507.1999511719</ele>
        <time>2017-12-17T12:22:23Z</time>
      </trkpt>
      <trkpt lat="46.25212" lon="5.91833">
        <ele>1507.1999511719</ele>
        <time>2017-12-17T12:22:28Z</time>
      </trkpt>
      <trkpt lat="46.25212" lon="5.91833">
        <ele>1507.1999511719</ele>
        <time>2017-12-17T12:22:33Z</time>
      </trkpt>
      <trkpt lat="46.25212" lon="5.91833">
        <ele>1507.1999511719</ele>
        <time>2017-12-17T12:22:38Z</time>
      </trkpt>
      <trkpt lat="46.25212" lon="5.91833">
        <ele>1507.1999511719</ele>
        <time>2017-12-17T12:22:43Z</time>
      </trkpt>
      <trkpt lat="46.25212" lon="5.91833">
        <ele>1507.1999511719</ele>
        <time>2017-12-17T12:22:48Z</time>
      </trkpt>
      <trkpt lat="46.25212" lon="5.91833">
        <ele>1507.1999511719</ele>
        <time>2017-12-17T12:22:53Z</time>
      </trkpt>
      <trkpt lat="46.25212" lon="5.91833">
        <ele>1507.1999511719</ele>
        <time>2017-12-17T12:22:58Z</time>
      </trkpt>
      <trkpt lat="46.25212" lon="5.91833">
        <ele>1507.1999511719</ele>
        <time>2017-12-17T12:23:03Z</time>
      </trkpt>
      <trkpt lat="46.25212" lon="5.91833">
        <ele>1507.1999511719</ele>
        <time>2017-12-17T12:23:08Z</time>
      </trkpt>
      <trkpt lat="46.25212" lon="5.91833">
        <ele>1507.1999511719</ele>
        <time>2017-12-17T12:23:13Z</time>
      </trkpt>
      <trkpt lat="46.25214" lon="5.91847">
        <ele>1511.4000244141</ele>
        <time>2017-12-17T12:23:18Z</time>
      </trkpt>
      <trkpt lat="46.25215" lon="5.91848">
        <ele>1511.8000488281</ele>
        <time>2017-12-17T12:23:23Z</time>
      </trkpt>
      <trkpt lat="46.25215" lon="5.91848">
        <ele>1511.8000488281</ele>
        <time>2017-12-17T12:23:24Z</time>
      </trkpt>
      <trkpt lat="46.25215" lon="5.91848">
        <ele>1511.8000488281</ele>
        <time>2017-12-17T12:23:29Z</time>
      </trkpt>
      <trkpt lat="46.25215" lon="5.91848">
        <ele>1511.8000488281</ele>
        <time>2017-12-17T12:23:34Z</time>
      </trkpt>
      <trkpt lat="46.25215" lon="5.91848">
        <ele>1511.8000488281</ele>
        <time>2017-12-17T12:23:39Z</time>
      </trkpt>
      <trkpt lat="46.25215" lon="5.91848">
        <ele>1511.8000488281</ele>
        <time>2017-12-17T12:23:44Z</time>
      </trkpt>
      <trkpt lat="46.25215" lon="5.91848">
        <ele>1511.8000488281</ele>
        <time>2017-12-17T12:23:49Z</time>
      </trkpt>
      <trkpt lat="46.25215" lon="5.91848">
        <ele>1511.8000488281</ele>
        <time>2017-12-17T12:23:54Z</time>
      </trkpt>
      <trkpt lat="46.25215" lon="5.91848">
        <ele>1511.8000488281</ele>
        <time>2017-12-17T12:23:59Z</time>
      </trkpt>
      <trkpt lat="46.25215" lon="5.91848">
        <ele>1511.8000488281</ele>
        <time>2017-12-17T12:24:04Z</time>
      </trkpt>
      <trkpt lat="46.25215" lon="5.91848">
        <ele>1511.8000488281</ele>
        <time>2017-12-17T12:24:09Z</time>
      </trkpt>
      <trkpt lat="46.25215" lon="5.91848">
        <ele>1511.8000488281</ele>
        <time>2017-12-17T12:24:14Z</time>
      </trkpt>
      <trkpt lat="46.25215" lon="5.91848">
        <ele>1511.8000488281</ele>
        <time>2017-12-17T12:24:19Z</time>
      </trkpt>
      <trkpt lat="46.25215" lon="5.91848">
        <ele>1511.8000488281</ele>
        <time>2017-12-17T12:24:24Z</time>
      </trkpt>
      <trkpt lat="46.25215" lon="5.91848">
        <ele>1511.8000488281</ele>
        <time>2017-12-17T12:24:29Z</time>
      </trkpt>
      <trkpt lat="46.25215" lon="5.91848">
        <ele>1511.8000488281</ele>
        <time>2017-12-17T12:24:34Z</time>
      </trkpt>
      <trkpt lat="46.25215" lon="5.91848">
        <ele>1511.8000488281</ele>
        <time>2017-12-17T12:24:39Z</time>
      </trkpt>
      <trkpt lat="46.25215" lon="5.91848">
        <ele>1511.8000488281</ele>
        <time>2017-12-17T12:24:44Z</time>
      </trkpt>
      <trkpt lat="46.25215" lon="5.91848">
        <ele>1511.8000488281</ele>
        <time>2017-12-17T12:24:49Z</time>
      </trkpt>
      <trkpt lat="46.25215" lon="5.91848">
        <ele>1511.8000488281</ele>
        <time>2017-12-17T12:24:54Z</time>
      </trkpt>
      <trkpt lat="46.25215" lon="5.91848">
        <ele>1511.8000488281</ele>
        <time>2017-12-17T12:24:59Z</time>
      </trkpt>
      <trkpt lat="46.25215" lon="5.91848">
        <ele>1511.8000488281</ele>
        <time>2017-12-17T12:25:04Z</time>
      </trkpt>
      <trkpt lat="46.25215" lon="5.91848">
        <ele>1511.8000488281</ele>
        <time>2017-12-17T12:25:09Z</time>
      </trkpt>
      <trkpt lat="46.25216" lon="5.91865">
        <ele>1514.5999755859</ele>
        <time>2017-12-17T12:25:14Z</time>
      </trkpt>
      <trkpt lat="46.25216" lon="5.91865">
        <ele>1514.5999755859</ele>
        <time>2017-12-17T12:25:19Z</time>
      </trkpt>
      <trkpt lat="46.25216" lon="5.91865">
        <ele>1514.5999755859</ele>
        <time>2017-12-17T12:25:24Z</time>
      </trkpt>
      <trkpt lat="46.25215" lon="5.91881">
        <ele>1516.5</ele>
        <time>2017-12-17T12:25:29Z</time>
      </trkpt>
      <trkpt lat="46.25215" lon="5.91881">
        <ele>1516.5999755859</ele>
        <time>2017-12-17T12:25:34Z</time>
      </trkpt>
      <trkpt lat="46.25215" lon="5.91881">
        <ele>1516.5999755859</ele>
        <time>2017-12-17T12:25:39Z</time>
      </trkpt>
      <trkpt lat="46.25216" lon="5.91895">
        <ele>1518.8000488281</ele>
        <time>2017-12-17T12:25:44Z</time>
      </trkpt>
      <trkpt lat="46.25217" lon="5.91898">
        <ele>1519.4000244141</ele>
        <time>2017-12-17T12:25:49Z</time>
      </trkpt>
      <trkpt lat="46.25217" lon="5.91898">
        <ele>1519.4000244141</ele>
        <time>2017-12-17T12:25:54Z</time>
      </trkpt>
      <trkpt lat="46.25217" lon="5.91898">
        <ele>1519.4000244141</ele>
        <time>2017-12-17T12:25:59Z</time>
      </trkpt>
      <trkpt lat="46.25222" lon="5.91912">
        <ele>1522.3000488281</ele>
        <time>2017-12-17T12:26:04Z</time>
      </trkpt>
      <trkpt lat="46.25222" lon="5.91912">
        <ele>1522.3000488281</ele>
        <time>2017-12-17T12:26:09Z</time>
      </trkpt>
      <trkpt lat="46.25222" lon="5.91912">
        <ele>1522.3000488281</ele>
        <time>2017-12-17T12:26:14Z</time>
      </trkpt>
      <trkpt lat="46.25229" lon="5.91922">
        <ele>1525.5</ele>
        <time>2017-12-17T12:26:19Z</time>
      </trkpt>
      <trkpt lat="46.2523" lon="5.91924">
        <ele>1526.0999755859</ele>
        <time>2017-12-17T12:26:24Z</time>
      </trkpt>
      <trkpt lat="46.2523" lon="5.91924">
        <ele>1526.0999755859</ele>
        <time>2017-12-17T12:26:29Z</time>
      </trkpt>
      <trkpt lat="46.2523" lon="5.91924">
        <ele>1526.0999755859</ele>
        <time>2017-12-17T12:26:34Z</time>
      </trkpt>
      <trkpt lat="46.25235" lon="5.91936">
        <ele>1529.8000488281</ele>
        <time>2017-12-17T12:26:39Z</time>
      </trkpt>
      <trkpt lat="46.25236" lon="5.91937">
        <ele>1530.0999755859</ele>
        <time>2017-12-17T12:26:44Z</time>
      </trkpt>
      <trkpt lat="46.25236" lon="5.91937">
        <ele>1530.0999755859</ele>
        <time>2017-12-17T12:26:49Z</time>
      </trkpt>
      <trkpt lat="46.25236" lon="5.91937">
        <ele>1530.0999755859</ele>
        <time>2017-12-17T12:26:54Z</time>
      </trkpt>
      <trkpt lat="46.25242" lon="5.91949">
        <ele>1534</ele>
        <time>2017-12-17T12:26:59Z</time>
      </trkpt>
      <trkpt lat="46.25242" lon="5.91949">
        <ele>1534</ele>
        <time>2017-12-17T12:27:04Z</time>
      </trkpt>
      <trkpt lat="46.25242" lon="5.91949">
        <ele>1534</ele>
        <time>2017-12-17T12:27:09Z</time>
      </trkpt>
      <trkpt lat="46.25242" lon="5.91949">
        <ele>1534</ele>
        <time>2017-12-17T12:27:14Z</time>
      </trkpt>
      <trkpt lat="46.25236" lon="5.9196">
        <ele>1537.8000488281</ele>
        <time>2017-12-17T12:27:19Z</time>
      </trkpt>
      <trkpt lat="46.25235" lon="5.91961">
        <ele>1538.1999511719</ele>
        <time>2017-12-17T12:27:24Z</time>
      </trkpt>
      <trkpt lat="46.25235" lon="5.91961">
        <ele>1538.1999511719</ele>
        <time>2017-12-17T12:27:29Z</time>
      </trkpt>
      <trkpt lat="46.25235" lon="5.91961">
        <ele>1538.1999511719</ele>
        <time>2017-12-17T12:27:34Z</time>
      </trkpt>
      <trkpt lat="46.25229" lon="5.91973">
        <ele>1541.5</ele>
        <time>2017-12-17T12:27:39Z</time>
      </trkpt>
      <trkpt lat="46.25229" lon="5.91974">
        <ele>1541.6999511719</ele>
        <time>2017-12-17T12:27:44Z</time>
      </trkpt>
      <trkpt lat="46.25229" lon="5.91974">
        <ele>1541.6999511719</ele>
        <time>2017-12-17T12:27:49Z</time>
      </trkpt>
      <trkpt lat="46.25229" lon="5.91974">
        <ele>1541.6999511719</ele>
        <time>2017-12-17T12:27:54Z</time>
      </trkpt>
      <trkpt lat="46.25229" lon="5.91974">
        <ele>1541.6999511719</ele>
        <time>2017-12-17T12:27:59Z</time>
      </trkpt>
      <trkpt lat="46.25231" lon="5.91988">
        <ele>1546</ele>
        <time>2017-12-17T12:28:04Z</time>
      </trkpt>
      <trkpt lat="46.25231" lon="5.91988">
        <ele>1546.1999511719</ele>
        <time>2017-12-17T12:28:09Z</time>
      </trkpt>
      <trkpt lat="46.25231" lon="5.91988">
        <ele>1546.1999511719</ele>
        <time>2017-12-17T12:28:14Z</time>
      </trkpt>
      <trkpt lat="46.25231" lon="5.91988">
        <ele>1546.1999511719</ele>
        <time>2017-12-17T12:28:19Z</time>
      </trkpt>
      <trkpt lat="46.25223" lon="5.92">
        <ele>1550</ele>
        <time>2017-12-17T12:28:24Z</time>
      </trkpt>
      <trkpt lat="46.25223" lon="5.92">
        <ele>1550</ele>
        <time>2017-12-17T12:28:29Z</time>
      </trkpt>
      <trkpt lat="46.25223" lon="5.92">
        <ele>1550</ele>
        <time>2017-12-17T12:28:34Z</time>
      </trkpt>
      <trkpt lat="46.25216" lon="5.9201">
        <ele>1552.9000244141</ele>
        <time>2017-12-17T12:28:39Z</time>
      </trkpt>
      <trkpt lat="46.25215" lon="5.92012">
        <ele>1553.5</ele>
        <time>2017-12-17T12:28:44Z</time>
      </trkpt>
      <trkpt lat="46.25215" lon="5.92012">
        <ele>1553.5</ele>
        <time>2017-12-17T12:28:49Z</time>
      </trkpt>
      <trkpt lat="46.25215" lon="5.92012">
        <ele>1553.5</ele>
        <time>2017-12-17T12:28:53Z</time>
      </trkpt>
      <trkpt lat="46.25215" lon="5.92012">
        <ele>1553.5</ele>
        <time>2017-12-17T12:28:58Z</time>
      </trkpt>
      <trkpt lat="46.25215" lon="5.92012">
        <ele>1553.5</ele>
        <time>2017-12-17T12:29:03Z</time>
      </trkpt>
      <trkpt lat="46.25215" lon="5.92012">
        <ele>1553.5</ele>
        <time>2017-12-17T12:29:08Z</time>
      </trkpt>
      <trkpt lat="46.25211" lon="5.92025">
        <ele>1555.5999755859</ele>
        <time>2017-12-17T12:29:13Z</time>
      </trkpt>
      <trkpt lat="46.25211" lon="5.92027">
        <ele>1555.5999755859</ele>
        <time>2017-12-17T12:29:18Z</time>
      </trkpt>
      <trkpt lat="46.25211" lon="5.92027">
        <ele>1555.5999755859</ele>
        <time>2017-12-17T12:29:23Z</time>
      </trkpt>
      <trkpt lat="46.25211" lon="5.92027">
        <ele>1555.5999755859</ele>
        <time>2017-12-17T12:29:28Z</time>
      </trkpt>
      <trkpt lat="46.25209" lon="5.92044">
        <ele>1556.5999755859</ele>
        <time>2017-12-17T12:29:33Z</time>
      </trkpt>
      <trkpt lat="46.25209" lon="5.92044">
        <ele>1556.5999755859</ele>
        <time>2017-12-17T12:29:38Z</time>
      </trkpt>
      <trkpt lat="46.25209" lon="5.92044">
        <ele>1556.5999755859</ele>
        <time>2017-12-17T12:29:43Z</time>
      </trkpt>
      <trkpt lat="46.25209" lon="5.92044">
        <ele>1556.5999755859</ele>
        <time>2017-12-17T12:29:48Z</time>
      </trkpt>
      <trkpt lat="46.2521" lon="5.9206">
        <ele>1558.3000488281</ele>
        <time>2017-12-17T12:29:53Z</time>
      </trkpt>
      <trkpt lat="46.2521" lon="5.9206">
        <ele>1558.3000488281</ele>
        <time>2017-12-17T12:29:58Z</time>
      </trkpt>
      <trkpt lat="46.2521" lon="5.9206">
        <ele>1558.3000488281</ele>
        <time>2017-12-17T12:30:03Z</time>
      </trkpt>
      <trkpt lat="46.2521" lon="5.9206">
        <ele>1558.3000488281</ele>
        <time>2017-12-17T12:30:08Z</time>
      </trkpt>
      <trkpt lat="46.25213" lon="5.92075">
        <ele>1560.4000244141</ele>
        <time>2017-12-17T12:30:13Z</time>
      </trkpt>
      <trkpt lat="46.25213" lon="5.92075">
        <ele>1560.4000244141</ele>
        <time>2017-12-17T12:30:18Z</time>
      </trkpt>
      <trkpt lat="46.25213" lon="5.92075">
        <ele>1560.4000244141</ele>
        <time>2017-12-17T12:30:23Z</time>
      </trkpt>
      <trkpt lat="46.25213" lon="5.92075">
        <ele>1560.4000244141</ele>
        <time>2017-12-17T12:30:28Z</time>
      </trkpt>
      <trkpt lat="46.25213" lon="5.92075">
        <ele>1560.4000244141</ele>
        <time>2017-12-17T12:30:32Z</time>
      </trkpt>
      <trkpt lat="46.25213" lon="5.92075">
        <ele>1560.4000244141</ele>
        <time>2017-12-17T12:30:37Z</time>
      </trkpt>
      <trkpt lat="46.25213" lon="5.92075">
        <ele>1560.4000244141</ele>
        <time>2017-12-17T12:30:42Z</time>
      </trkpt>
      <trkpt lat="46.25213" lon="5.92075">
        <ele>1560.4000244141</ele>
        <time>2017-12-17T12:30:47Z</time>
      </trkpt>
      <trkpt lat="46.25213" lon="5.92075">
        <ele>1560.4000244141</ele>
        <time>2017-12-17T12:30:52Z</time>
      </trkpt>
      <trkpt lat="46.25213" lon="5.92075">
        <ele>1560.4000244141</ele>
        <time>2017-12-17T12:30:57Z</time>
      </trkpt>
      <trkpt lat="46.25213" lon="5.92075">
        <ele>1560.4000244141</ele>
        <time>2017-12-17T12:31:02Z</time>
      </trkpt>
      <trkpt lat="46.25211" lon="5.9209">
        <ele>1563.5</ele>
        <time>2017-12-17T12:31:07Z</time>
      </trkpt>
      <trkpt lat="46.25211" lon="5.92091">
        <ele>1563.5999755859</ele>
        <time>2017-12-17T12:31:12Z</time>
      </trkpt>
      <trkpt lat="46.25211" lon="5.92091">
        <ele>1563.5999755859</ele>
        <time>2017-12-17T12:31:17Z</time>
      </trkpt>
      <trkpt lat="46.25211" lon="5.92091">
        <ele>1563.5999755859</ele>
        <time>2017-12-17T12:31:22Z</time>
      </trkpt>
      <trkpt lat="46.25213" lon="5.92106">
        <ele>1566.4000244141</ele>
        <time>2017-12-17T12:31:27Z</time>
      </trkpt>
      <trkpt lat="46.25213" lon="5.92106">
        <ele>1566.5</ele>
        <time>2017-12-17T12:31:32Z</time>
      </trkpt>
      <trkpt lat="46.25213" lon="5.92106">
        <ele>1566.5</ele>
        <time>2017-12-17T12:31:37Z</time>
      </trkpt>
      <trkpt lat="46.25213" lon="5.92106">
        <ele>1566.5</ele>
        <time>2017-12-17T12:31:42Z</time>
      </trkpt>
      <trkpt lat="46.25211" lon="5.92121">
        <ele>1570.4000244141</ele>
        <time>2017-12-17T12:31:47Z</time>
      </trkpt>
      <trkpt lat="46.25211" lon="5.92121">
        <ele>1570.4000244141</ele>
        <time>2017-12-17T12:31:52Z</time>
      </trkpt>
      <trkpt lat="46.25211" lon="5.92121">
        <ele>1570.4000244141</ele>
        <time>2017-12-17T12:31:57Z</time>
      </trkpt>
      <trkpt lat="46.25211" lon="5.92121">
        <ele>1570.4000244141</ele>
        <time>2017-12-17T12:32:02Z</time>
      </trkpt>
      <trkpt lat="46.25209" lon="5.92134">
        <ele>1574.5999755859</ele>
        <time>2017-12-17T12:32:07Z</time>
      </trkpt>
      <trkpt lat="46.2521" lon="5.92135">
        <ele>1575.0999755859</ele>
        <time>2017-12-17T12:32:12Z</time>
      </trkpt>
      <trkpt lat="46.2521" lon="5.92135">
        <ele>1575.0999755859</ele>
        <time>2017-12-17T12:32:17Z</time>
      </trkpt>
      <trkpt lat="46.2521" lon="5.92135">
        <ele>1575.0999755859</ele>
        <time>2017-12-17T12:32:22Z</time>
      </trkpt>
      <trkpt lat="46.2521" lon="5.92135">
        <ele>1575.0999755859</ele>
        <time>2017-12-17T12:32:27Z</time>
      </trkpt>
      <trkpt lat="46.2521" lon="5.92135">
        <ele>1575.0999755859</ele>
        <time>2017-12-17T12:32:32Z</time>
      </trkpt>
      <trkpt lat="46.25212" lon="5.92149">
        <ele>1580.8000488281</ele>
        <time>2017-12-17T12:32:37Z</time>
      </trkpt>
      <trkpt lat="46.25212" lon="5.9215">
        <ele>1580.9000244141</ele>
        <time>2017-12-17T12:32:42Z</time>
      </trkpt>
      <trkpt lat="46.25212" lon="5.9215">
        <ele>1580.9000244141</ele>
        <time>2017-12-17T12:32:47Z</time>
      </trkpt>
      <trkpt lat="46.25212" lon="5.9215">
        <ele>1580.9000244141</ele>
        <time>2017-12-17T12:32:52Z</time>
      </trkpt>
      <trkpt lat="46.25212" lon="5.9215">
        <ele>1580.9000244141</ele>
        <time>2017-12-17T12:32:57Z</time>
      </trkpt>
      <trkpt lat="46.25212" lon="5.9215">
        <ele>1580.9000244141</ele>
        <time>2017-12-17T12:33:02Z</time>
      </trkpt>
      <trkpt lat="46.25212" lon="5.9215">
        <ele>1580.9000244141</ele>
        <time>2017-12-17T12:33:05Z</time>
      </trkpt>
      <trkpt lat="46.25212" lon="5.9215">
        <ele>1580.9000244141</ele>
        <time>2017-12-17T12:33:10Z</time>
      </trkpt>
      <trkpt lat="46.25212" lon="5.9215">
        <ele>1580.9000244141</ele>
        <time>2017-12-17T12:33:15Z</time>
      </trkpt>
      <trkpt lat="46.25212" lon="5.9215">
        <ele>1580.9000244141</ele>
        <time>2017-12-17T12:33:20Z</time>
      </trkpt>
      <trkpt lat="46.25212" lon="5.9215">
        <ele>1580.9000244141</ele>
        <time>2017-12-17T12:33:25Z</time>
      </trkpt>
      <trkpt lat="46.25212" lon="5.9215">
        <ele>1580.9000244141</ele>
        <time>2017-12-17T12:33:30Z</time>
      </trkpt>
      <trkpt lat="46.25212" lon="5.9215">
        <ele>1580.9000244141</ele>
        <time>2017-12-17T12:33:35Z</time>
      </trkpt>
      <trkpt lat="46.25212" lon="5.9215">
        <ele>1580.9000244141</ele>
        <time>2017-12-17T12:33:40Z</time>
      </trkpt>
      <trkpt lat="46.25212" lon="5.9215">
        <ele>1580.9000244141</ele>
        <time>2017-12-17T12:33:45Z</time>
      </trkpt>
      <trkpt lat="46.25212" lon="5.9215">
        <ele>1580.9000244141</ele>
        <time>2017-12-17T12:33:50Z</time>
      </trkpt>
      <trkpt lat="46.25212" lon="5.9215">
        <ele>1580.9000244141</ele>
        <time>2017-12-17T12:33:55Z</time>
      </trkpt>
      <trkpt lat="46.25212" lon="5.9215">
        <ele>1580.9000244141</ele>
        <time>2017-12-17T12:34:00Z</time>
      </trkpt>
      <trkpt lat="46.25212" lon="5.9215">
        <ele>1580.9000244141</ele>
        <time>2017-12-17T12:34:05Z</time>
      </trkpt>
      <trkpt lat="46.25212" lon="5.9215">
        <ele>1580.9000244141</ele>
        <time>2017-12-17T12:34:10Z</time>
      </trkpt>
      <trkpt lat="46.25212" lon="5.9215">
        <ele>1580.9000244141</ele>
        <time>2017-12-17T12:34:15Z</time>
      </trkpt>
      <trkpt lat="46.25212" lon="5.9215">
        <ele>1580.9000244141</ele>
        <time>2017-12-17T12:34:20Z</time>
      </trkpt>
      <trkpt lat="46.25212" lon="5.9215">
        <ele>1580.9000244141</ele>
        <time>2017-12-17T12:34:25Z</time>
      </trkpt>
      <trkpt lat="46.25212" lon="5.9215">
        <ele>1580.9000244141</ele>
        <time>2017-12-17T12:34:30Z</time>
      </trkpt>
      <trkpt lat="46.25212" lon="5.9215">
        <ele>1580.9000244141</ele>
        <time>2017-12-17T12:34:35Z</time>
      </trkpt>
      <trkpt lat="46.25212" lon="5.9215">
        <ele>1580.9000244141</ele>
        <time>2017-12-17T12:34:40Z</time>
      </trkpt>
      <trkpt lat="46.25212" lon="5.9215">
        <ele>1580.9000244141</ele>
        <time>2017-12-17T12:34:45Z</time>
      </trkpt>
      <trkpt lat="46.25212" lon="5.9215">
        <ele>1580.9000244141</ele>
        <time>2017-12-17T12:34:50Z</time>
      </trkpt>
      <trkpt lat="46.25214" lon="5.92163">
        <ele>1585.6999511719</ele>
        <time>2017-12-17T12:34:55Z</time>
      </trkpt>
      <trkpt lat="46.25214" lon="5.92165">
        <ele>1581.6999511719</ele>
        <time>2017-12-17T12:35:00Z</time>
      </trkpt>
      <trkpt lat="46.25214" lon="5.92165">
        <ele>1581.6999511719</ele>
        <time>2017-12-17T12:35:02Z</time>
      </trkpt>
      <trkpt lat="46.25214" lon="5.92165">
        <ele>1581.6999511719</ele>
        <time>2017-12-17T12:35:07Z</time>
      </trkpt>
      <trkpt lat="46.25214" lon="5.92165">
        <ele>1581.6999511719</ele>
        <time>2017-12-17T12:35:12Z</time>
      </trkpt>
      <trkpt lat="46.25214" lon="5.92165">
        <ele>1581.6999511719</ele>
        <time>2017-12-17T12:35:17Z</time>
      </trkpt>
      <trkpt lat="46.25209" lon="5.92179">
        <ele>1582.5999755859</ele>
        <time>2017-12-17T12:35:22Z</time>
      </trkpt>
      <trkpt lat="46.25209" lon="5.92179">
        <ele>1582.5999755859</ele>
        <time>2017-12-17T12:35:27Z</time>
      </trkpt>
      <trkpt lat="46.25209" lon="5.92179">
        <ele>1582.5999755859</ele>
        <time>2017-12-17T12:35:32Z</time>
      </trkpt>
      <trkpt lat="46.25201" lon="5.92188">
        <ele>1584.8000488281</ele>
        <time>2017-12-17T12:35:37Z</time>
      </trkpt>
      <trkpt lat="46.25201" lon="5.92188">
        <ele>1584.8000488281</ele>
        <time>2017-12-17T12:35:42Z</time>
      </trkpt>
      <trkpt lat="46.25201" lon="5.92188">
        <ele>1584.8000488281</ele>
        <time>2017-12-17T12:35:43Z</time>
      </trkpt>
      <trkpt lat="46.25201" lon="5.92188">
        <ele>1584.8000488281</ele>
        <time>2017-12-17T12:35:48Z</time>
      </trkpt>
      <trkpt lat="46.25201" lon="5.92188">
        <ele>1584.8000488281</ele>
        <time>2017-12-17T12:35:53Z</time>
      </trkpt>
      <trkpt lat="46.25201" lon="5.92188">
        <ele>1584.8000488281</ele>
        <time>2017-12-17T12:35:58Z</time>
      </trkpt>
      <trkpt lat="46.25201" lon="5.92188">
        <ele>1584.8000488281</ele>
        <time>2017-12-17T12:36:03Z</time>
      </trkpt>
      <trkpt lat="46.25201" lon="5.92188">
        <ele>1584.8000488281</ele>
        <time>2017-12-17T12:36:08Z</time>
      </trkpt>
      <trkpt lat="46.25201" lon="5.92188">
        <ele>1584.8000488281</ele>
        <time>2017-12-17T12:36:13Z</time>
      </trkpt>
      <trkpt lat="46.25201" lon="5.92188">
        <ele>1584.8000488281</ele>
        <time>2017-12-17T12:36:18Z</time>
      </trkpt>
      <trkpt lat="46.25201" lon="5.92188">
        <ele>1584.8000488281</ele>
        <time>2017-12-17T12:36:23Z</time>
      </trkpt>
      <trkpt lat="46.25201" lon="5.92188">
        <ele>1584.8000488281</ele>
        <time>2017-12-17T12:36:28Z</time>
      </trkpt>
      <trkpt lat="46.25193" lon="5.92203">
        <ele>1586.8000488281</ele>
        <time>2017-12-17T12:36:33Z</time>
      </trkpt>
      <trkpt lat="46.25193" lon="5.92203">
        <ele>1586.8000488281</ele>
        <time>2017-12-17T12:36:38Z</time>
      </trkpt>
      <trkpt lat="46.25193" lon="5.92203">
        <ele>1586.8000488281</ele>
        <time>2017-12-17T12:36:43Z</time>
      </trkpt>
      <trkpt lat="46.25188" lon="5.92216">
        <ele>1588.6999511719</ele>
        <time>2017-12-17T12:36:48Z</time>
      </trkpt>
      <trkpt lat="46.25188" lon="5.92217">
        <ele>1588.8000488281</ele>
        <time>2017-12-17T12:36:53Z</time>
      </trkpt>
      <trkpt lat="46.25188" lon="5.92217">
        <ele>1588.8000488281</ele>
        <time>2017-12-17T12:36:58Z</time>
      </trkpt>
      <trkpt lat="46.25188" lon="5.92217">
        <ele>1588.8000488281</ele>
        <time>2017-12-17T12:37:03Z</time>
      </trkpt>
      <trkpt lat="46.25186" lon="5.9223">
        <ele>1591.6999511719</ele>
        <time>2017-12-17T12:37:08Z</time>
      </trkpt>
      <trkpt lat="46.25187" lon="5.92232">
        <ele>1592.0999755859</ele>
        <time>2017-12-17T12:37:13Z</time>
      </trkpt>
      <trkpt lat="46.25187" lon="5.92232">
        <ele>1592.0999755859</ele>
        <time>2017-12-17T12:37:18Z</time>
      </trkpt>
      <trkpt lat="46.25187" lon="5.92232">
        <ele>1592.0999755859</ele>
        <time>2017-12-17T12:37:23Z</time>
      </trkpt>
      <trkpt lat="46.25188" lon="5.92248">
        <ele>1595.5999755859</ele>
        <time>2017-12-17T12:37:28Z</time>
      </trkpt>
      <trkpt lat="46.25188" lon="5.92248">
        <ele>1595.5999755859</ele>
        <time>2017-12-17T12:37:33Z</time>
      </trkpt>
      <trkpt lat="46.25188" lon="5.92248">
        <ele>1595.5999755859</ele>
        <time>2017-12-17T12:37:38Z</time>
      </trkpt>
      <trkpt lat="46.25188" lon="5.92248">
        <ele>1595.5999755859</ele>
        <time>2017-12-17T12:37:43Z</time>
      </trkpt>
      <trkpt lat="46.25196" lon="5.92259">
        <ele>1601</ele>
        <time>2017-12-17T12:37:48Z</time>
      </trkpt>
      <trkpt lat="46.25196" lon="5.92259">
        <ele>1601</ele>
        <time>2017-12-17T12:37:53Z</time>
      </trkpt>
      <trkpt lat="46.25196" lon="5.92259">
        <ele>1601</ele>
        <time>2017-12-17T12:37:58Z</time>
      </trkpt>
      <trkpt lat="46.25204" lon="5.92266">
        <ele>1606.8000488281</ele>
        <time>2017-12-17T12:38:03Z</time>
      </trkpt>
      <trkpt lat="46.25205" lon="5.92268">
        <ele>1608</ele>
        <time>2017-12-17T12:38:08Z</time>
      </trkpt>
      <trkpt lat="46.25205" lon="5.92268">
        <ele>1608</ele>
        <time>2017-12-17T12:38:13Z</time>
      </trkpt>
      <trkpt lat="46.2521" lon="5.92281">
        <ele>1612.3000488281</ele>
        <time>2017-12-17T12:38:18Z</time>
      </trkpt>
      <trkpt lat="46.2521" lon="5.92282">
        <ele>1612.8000488281</ele>
        <time>2017-12-17T12:38:23Z</time>
      </trkpt>
      <trkpt lat="46.2521" lon="5.92282">
        <ele>1612.8000488281</ele>
        <time>2017-12-17T12:38:28Z</time>
      </trkpt>
      <trkpt lat="46.2521" lon="5.92282">
        <ele>1612.8000488281</ele>
        <time>2017-12-17T12:38:33Z</time>
      </trkpt>
      <trkpt lat="46.2521" lon="5.92282">
        <ele>1612.8000488281</ele>
        <time>2017-12-17T12:38:38Z</time>
      </trkpt>
      <trkpt lat="46.2521" lon="5.92282">
        <ele>1612.8000488281</ele>
        <time>2017-12-17T12:38:43Z</time>
      </trkpt>
      <trkpt lat="46.2521" lon="5.92282">
        <ele>1612.8000488281</ele>
        <time>2017-12-17T12:38:48Z</time>
      </trkpt>
      <trkpt lat="46.2521" lon="5.92282">
        <ele>1612.8000488281</ele>
        <time>2017-12-17T12:38:53Z</time>
      </trkpt>
      <trkpt lat="46.2521" lon="5.92282">
        <ele>1612.8000488281</ele>
        <time>2017-12-17T12:38:58Z</time>
      </trkpt>
      <trkpt lat="46.2521" lon="5.92282">
        <ele>1612.8000488281</ele>
        <time>2017-12-17T12:39:03Z</time>
      </trkpt>
      <trkpt lat="46.2521" lon="5.92282">
        <ele>1612.8000488281</ele>
        <time>2017-12-17T12:39:08Z</time>
      </trkpt>
      <trkpt lat="46.2521" lon="5.92282">
        <ele>1612.8000488281</ele>
        <time>2017-12-17T12:39:13Z</time>
      </trkpt>
      <trkpt lat="46.2521" lon="5.92282">
        <ele>1612.8000488281</ele>
        <time>2017-12-17T12:39:18Z</time>
      </trkpt>
      <trkpt lat="46.2521" lon="5.92282">
        <ele>1612.8000488281</ele>
        <time>2017-12-17T12:39:23Z</time>
      </trkpt>
      <trkpt lat="46.2521" lon="5.92282">
        <ele>1612.8000488281</ele>
        <time>2017-12-17T12:39:28Z</time>
      </trkpt>
      <trkpt lat="46.25216" lon="5.92293">
        <ele>1617.5</ele>
        <time>2017-12-17T12:39:33Z</time>
      </trkpt>
      <trkpt lat="46.2522" lon="5.923">
        <ele>1618.8000488281</ele>
        <time>2017-12-17T12:39:38Z</time>
      </trkpt>
      <trkpt lat="46.25222" lon="5.92305">
        <ele>1620.1999511719</ele>
        <time>2017-12-17T12:39:43Z</time>
      </trkpt>
      <trkpt lat="46.25224" lon="5.9231">
        <ele>1622.0999755859</ele>
        <time>2017-12-17T12:39:48Z</time>
      </trkpt>
      <trkpt lat="46.25225" lon="5.92313">
        <ele>1624.1999511719</ele>
        <time>2017-12-17T12:39:53Z</time>
      </trkpt>
      <trkpt lat="46.25225" lon="5.92313">
        <ele>1624.1999511719</ele>
        <time>2017-12-17T12:39:58Z</time>
      </trkpt>
      <trkpt lat="46.2523" lon="5.92325">
        <ele>1628.6999511719</ele>
        <time>2017-12-17T12:40:03Z</time>
      </trkpt>
      <trkpt lat="46.25232" lon="5.92331">
        <ele>1630.8000488281</ele>
        <time>2017-12-17T12:40:08Z</time>
      </trkpt>
      <trkpt lat="46.25234" lon="5.92336">
        <ele>1632.5</ele>
        <time>2017-12-17T12:40:13Z</time>
      </trkpt>
      <trkpt lat="46.25236" lon="5.92342">
        <ele>1634.5999755859</ele>
        <time>2017-12-17T12:40:18Z</time>
      </trkpt>
      <trkpt lat="46.25238" lon="5.92346">
        <ele>1636.0999755859</ele>
        <time>2017-12-17T12:40:23Z</time>
      </trkpt>
      <trkpt lat="46.25238" lon="5.92346">
        <ele>1636.0999755859</ele>
        <time>2017-12-17T12:40:28Z</time>
      </trkpt>
      <trkpt lat="46.25238" lon="5.92346">
        <ele>1636.0999755859</ele>
        <time>2017-12-17T12:40:33Z</time>
      </trkpt>
      <trkpt lat="46.25246" lon="5.9236">
        <ele>1639.3000488281</ele>
        <time>2017-12-17T12:40:38Z</time>
      </trkpt>
      <trkpt lat="46.25246" lon="5.9236">
        <ele>1639.3000488281</ele>
        <time>2017-12-17T12:40:43Z</time>
      </trkpt>
      <trkpt lat="46.25246" lon="5.9236">
        <ele>1639.3000488281</ele>
        <time>2017-12-17T12:40:48Z</time>
      </trkpt>
      <trkpt lat="46.25254" lon="5.92375">
        <ele>1643</ele>
        <time>2017-12-17T12:40:53Z</time>
      </trkpt>
      <trkpt lat="46.25257" lon="5.9238">
        <ele>1644.5</ele>
        <time>2017-12-17T12:40:58Z</time>
      </trkpt>
      <trkpt lat="46.2526" lon="5.92386">
        <ele>1645.5999755859</ele>
        <time>2017-12-17T12:41:03Z</time>
      </trkpt>
      <trkpt lat="46.25263" lon="5.92391">
        <ele>1646.1999511719</ele>
        <time>2017-12-17T12:41:08Z</time>
      </trkpt>
      <trkpt lat="46.25265" lon="5.92394">
        <ele>1646.4000244141</ele>
        <time>2017-12-17T12:41:13Z</time>
      </trkpt>
      <trkpt lat="46.25268" lon="5.92401">
        <ele>1647.4000244141</ele>
        <time>2017-12-17T12:41:18Z</time>
      </trkpt>
      <trkpt lat="46.25268" lon="5.92401">
        <ele>1647.4000244141</ele>
        <time>2017-12-17T12:41:23Z</time>
      </trkpt>
      <trkpt lat="46.25268" lon="5.92401">
        <ele>1647.4000244141</ele>
        <time>2017-12-17T12:41:26Z</time>
      </trkpt>
      <trkpt lat="46.25268" lon="5.92401">
        <ele>1647.4000244141</ele>
        <time>2017-12-17T12:41:31Z</time>
      </trkpt>
      <trkpt lat="46.25268" lon="5.92401">
        <ele>1647.4000244141</ele>
        <time>2017-12-17T12:41:36Z</time>
      </trkpt>
      <trkpt lat="46.25268" lon="5.92401">
        <ele>1647.4000244141</ele>
        <time>2017-12-17T12:41:41Z</time>
      </trkpt>
      <trkpt lat="46.25268" lon="5.92401">
        <ele>1647.4000244141</ele>
        <time>2017-12-17T12:41:42Z</time>
      </trkpt>
      <trkpt lat="46.25268" lon="5.92401">
        <ele>1647.4000244141</ele>
        <time>2017-12-17T12:41:47Z</time>
      </trkpt>
      <trkpt lat="46.25268" lon="5.92401">
        <ele>1647.4000244141</ele>
        <time>2017-12-17T12:41:52Z</time>
      </trkpt>
      <trkpt lat="46.25268" lon="5.92401">
        <ele>1647.4000244141</ele>
        <time>2017-12-17T12:41:57Z</time>
      </trkpt>
      <trkpt lat="46.25268" lon="5.92401">
        <ele>1647.4000244141</ele>
        <time>2017-12-17T12:42:02Z</time>
      </trkpt>
      <trkpt lat="46.25268" lon="5.92401">
        <ele>1647.4000244141</ele>
        <time>2017-12-17T12:42:07Z</time>
      </trkpt>
      <trkpt lat="46.25268" lon="5.92401">
        <ele>1647.4000244141</ele>
        <time>2017-12-17T12:42:12Z</time>
      </trkpt>
      <trkpt lat="46.25268" lon="5.92401">
        <ele>1647.4000244141</ele>
        <time>2017-12-17T12:42:17Z</time>
      </trkpt>
      <trkpt lat="46.25268" lon="5.92401">
        <ele>1647.4000244141</ele>
        <time>2017-12-17T12:42:22Z</time>
      </trkpt>
      <trkpt lat="46.25268" lon="5.92401">
        <ele>1647.4000244141</ele>
        <time>2017-12-17T12:42:27Z</time>
      </trkpt>
      <trkpt lat="46.25268" lon="5.92401">
        <ele>1647.4000244141</ele>
        <time>2017-12-17T12:42:32Z</time>
      </trkpt>
      <trkpt lat="46.25268" lon="5.92401">
        <ele>1647.4000244141</ele>
        <time>2017-12-17T12:42:37Z</time>
      </trkpt>
      <trkpt lat="46.25268" lon="5.92401">
        <ele>1647.4000244141</ele>
        <time>2017-12-17T12:42:42Z</time>
      </trkpt>
      <trkpt lat="46.25268" lon="5.92401">
        <ele>1647.4000244141</ele>
        <time>2017-12-17T12:42:47Z</time>
      </trkpt>
      <trkpt lat="46.25268" lon="5.92401">
        <ele>1647.4000244141</ele>
        <time>2017-12-17T12:42:52Z</time>
      </trkpt>
      <trkpt lat="46.25268" lon="5.92401">
        <ele>1647.4000244141</ele>
        <time>2017-12-17T12:42:57Z</time>
      </trkpt>
      <trkpt lat="46.25273" lon="5.92411">
        <ele>1648.5999755859</ele>
        <time>2017-12-17T12:43:02Z</time>
      </trkpt>
      <trkpt lat="46.25273" lon="5.92411">
        <ele>1648.5999755859</ele>
        <time>2017-12-17T12:43:07Z</time>
      </trkpt>
      <trkpt lat="46.25273" lon="5.92411">
        <ele>1648.5999755859</ele>
        <time>2017-12-17T12:43:12Z</time>
      </trkpt>
      <trkpt lat="46.25283" lon="5.92422">
        <ele>1644.5999755859</ele>
        <time>2017-12-17T12:43:17Z</time>
      </trkpt>
      <trkpt lat="46.25286" lon="5.92426">
        <ele>1644.5999755859</ele>
        <time>2017-12-17T12:43:22Z</time>
      </trkpt>
      <trkpt lat="46.25294" lon="5.92433">
        <ele>1645.0999755859</ele>
        <time>2017-12-17T12:43:27Z</time>
      </trkpt>
      <trkpt lat="46.253" lon="5.92439">
        <ele>1645.5999755859</ele>
        <time>2017-12-17T12:43:32Z</time>
      </trkpt>
      <trkpt lat="46.25304" lon="5.92445">
        <ele>1645.8000488281</ele>
        <time>2017-12-17T12:43:37Z</time>
      </trkpt>
      <trkpt lat="46.25307" lon="5.9245">
        <ele>1646.4000244141</ele>
        <time>2017-12-17T12:43:42Z</time>
      </trkpt>
      <trkpt lat="46.25311" lon="5.92457">
        <ele>1647.0999755859</ele>
        <time>2017-12-17T12:43:47Z</time>
      </trkpt>
      <trkpt lat="46.25314" lon="5.92463">
        <ele>1647.9000244141</ele>
        <time>2017-12-17T12:43:52Z</time>
      </trkpt>
      <trkpt lat="46.25318" lon="5.92469">
        <ele>1648.5999755859</ele>
        <time>2017-12-17T12:43:57Z</time>
      </trkpt>
      <trkpt lat="46.25322" lon="5.92475">
        <ele>1649.3000488281</ele>
        <time>2017-12-17T12:44:02Z</time>
      </trkpt>
      <trkpt lat="46.25326" lon="5.9248">
        <ele>1649.5999755859</ele>
        <time>2017-12-17T12:44:07Z</time>
      </trkpt>
      <trkpt lat="46.25327" lon="5.92481">
        <ele>1649.5999755859</ele>
        <time>2017-12-17T12:44:12Z</time>
      </trkpt>
      <trkpt lat="46.25331" lon="5.92489">
        <ele>1649.5999755859</ele>
        <time>2017-12-17T12:44:17Z</time>
      </trkpt>
      <trkpt lat="46.25331" lon="5.92489">
        <ele>1649.5999755859</ele>
        <time>2017-12-17T12:44:22Z</time>
      </trkpt>
      <trkpt lat="46.25337" lon="5.92501">
        <ele>1649.8000488281</ele>
        <time>2017-12-17T12:44:27Z</time>
      </trkpt>
      <trkpt lat="46.25341" lon="5.92507">
        <ele>1650.8000488281</ele>
        <time>2017-12-17T12:44:32Z</time>
      </trkpt>
      <trkpt lat="46.25344" lon="5.92513">
        <ele>1652.1999511719</ele>
        <time>2017-12-17T12:44:37Z</time>
      </trkpt>
      <trkpt lat="46.25345" lon="5.92514">
        <ele>1652.4000244141</ele>
        <time>2017-12-17T12:44:42Z</time>
      </trkpt>
      <trkpt lat="46.25351" lon="5.92525">
        <ele>1655.3000488281</ele>
        <time>2017-12-17T12:44:47Z</time>
      </trkpt>
      <trkpt lat="46.25352" lon="5.92526">
        <ele>1655.4000244141</ele>
        <time>2017-12-17T12:44:52Z</time>
      </trkpt>
      <trkpt lat="46.25352" lon="5.92526">
        <ele>1655.4000244141</ele>
        <time>2017-12-17T12:44:57Z</time>
      </trkpt>
      <trkpt lat="46.25361" lon="5.92541">
        <ele>1659.0999755859</ele>
        <time>2017-12-17T12:45:02Z</time>
      </trkpt>
      <trkpt lat="46.25365" lon="5.92547">
        <ele>1660.0999755859</ele>
        <time>2017-12-17T12:45:07Z</time>
      </trkpt>
      <trkpt lat="46.25368" lon="5.92552">
        <ele>1660.3000488281</ele>
        <time>2017-12-17T12:45:12Z</time>
      </trkpt>
      <trkpt lat="46.25372" lon="5.92557">
        <ele>1660.5</ele>
        <time>2017-12-17T12:45:17Z</time>
      </trkpt>
      <trkpt lat="46.25372" lon="5.92557">
        <ele>1659.9000244141</ele>
        <time>2017-12-17T12:45:22Z</time>
      </trkpt>
      <trkpt lat="46.25372" lon="5.92557">
        <ele>1659.9000244141</ele>
        <time>2017-12-17T12:45:27Z</time>
      </trkpt>
      <trkpt lat="46.25381" lon="5.92566">
        <ele>1659.8000488281</ele>
        <time>2017-12-17T12:45:32Z</time>
      </trkpt>
      <trkpt lat="46.25381" lon="5.92566">
        <ele>1659.8000488281</ele>
        <time>2017-12-17T12:45:37Z</time>
      </trkpt>
      <trkpt lat="46.25387" lon="5.92572">
        <ele>1659.8000488281</ele>
        <time>2017-12-17T12:45:42Z</time>
      </trkpt>
      <trkpt lat="46.25387" lon="5.92572">
        <ele>1659.8000488281</ele>
        <time>2017-12-17T12:45:47Z</time>
      </trkpt>
      <trkpt lat="46.25387" lon="5.92572">
        <ele>1659.8000488281</ele>
        <time>2017-12-17T12:45:52Z</time>
      </trkpt>
      <trkpt lat="46.25395" lon="5.92581">
        <ele>1659.1999511719</ele>
        <time>2017-12-17T12:45:57Z</time>
      </trkpt>
      <trkpt lat="46.25395" lon="5.92581">
        <ele>1659.3000488281</ele>
        <time>2017-12-17T12:46:02Z</time>
      </trkpt>
      <trkpt lat="46.25395" lon="5.92581">
        <ele>1659.3000488281</ele>
        <time>2017-12-17T12:46:07Z</time>
      </trkpt>
      <trkpt lat="46.25395" lon="5.92581">
        <ele>1659.3000488281</ele>
        <time>2017-12-17T12:46:12Z</time>
      </trkpt>
      <trkpt lat="46.25395" lon="5.92581">
        <ele>1659.3000488281</ele>
        <time>2017-12-17T12:46:17Z</time>
      </trkpt>
      <trkpt lat="46.25395" lon="5.92581">
        <ele>1659.3000488281</ele>
        <time>2017-12-17T12:46:22Z</time>
      </trkpt>
      <trkpt lat="46.25395" lon="5.92581">
        <ele>1659.3000488281</ele>
        <time>2017-12-17T12:46:27Z</time>
      </trkpt>
      <trkpt lat="46.25395" lon="5.92581">
        <ele>1659.3000488281</ele>
        <time>2017-12-17T12:46:32Z</time>
      </trkpt>
      <trkpt lat="46.25395" lon="5.92581">
        <ele>1659.3000488281</ele>
        <time>2017-12-17T12:46:37Z</time>
      </trkpt>
      <trkpt lat="46.25395" lon="5.92581">
        <ele>1659.3000488281</ele>
        <time>2017-12-17T12:46:42Z</time>
      </trkpt>
      <trkpt lat="46.25395" lon="5.92581">
        <ele>1659.3000488281</ele>
        <time>2017-12-17T12:46:47Z</time>
      </trkpt>
      <trkpt lat="46.25395" lon="5.92581">
        <ele>1659.3000488281</ele>
        <time>2017-12-17T12:46:52Z</time>
      </trkpt>
      <trkpt lat="46.25395" lon="5.92581">
        <ele>1659.3000488281</ele>
        <time>2017-12-17T12:46:57Z</time>
      </trkpt>
      <trkpt lat="46.25395" lon="5.92581">
        <ele>1659.3000488281</ele>
        <time>2017-12-17T12:47:02Z</time>
      </trkpt>
      <trkpt lat="46.25406" lon="5.92578">
        <ele>1658.1999511719</ele>
        <time>2017-12-17T12:47:07Z</time>
      </trkpt>
      <trkpt lat="46.25412" lon="5.92578">
        <ele>1658.3000488281</ele>
        <time>2017-12-17T12:47:12Z</time>
      </trkpt>
      <trkpt lat="46.25415" lon="5.92579">
        <ele>1658.3000488281</ele>
        <time>2017-12-17T12:47:17Z</time>
      </trkpt>
      <trkpt lat="46.25415" lon="5.92579">
        <ele>1658.3000488281</ele>
        <time>2017-12-17T12:47:22Z</time>
      </trkpt>
      <trkpt lat="46.25422" lon="5.92581">
        <ele>1658</ele>
        <time>2017-12-17T12:47:27Z</time>
      </trkpt>
      <trkpt lat="46.25422" lon="5.92581">
        <ele>1658</ele>
        <time>2017-12-17T12:47:31Z</time>
      </trkpt>
      <trkpt lat="46.25422" lon="5.92581">
        <ele>1658</ele>
        <time>2017-12-17T12:47:36Z</time>
      </trkpt>
      <trkpt lat="46.25422" lon="5.92581">
        <ele>1658</ele>
        <time>2017-12-17T12:47:41Z</time>
      </trkpt>
      <trkpt lat="46.25422" lon="5.92581">
        <ele>1658</ele>
        <time>2017-12-17T12:47:46Z</time>
      </trkpt>
      <trkpt lat="46.25422" lon="5.92581">
        <ele>1658</ele>
        <time>2017-12-17T12:47:51Z</time>
      </trkpt>
      <trkpt lat="46.25422" lon="5.92581">
        <ele>1658</ele>
        <time>2017-12-17T12:47:56Z</time>
      </trkpt>
      <trkpt lat="46.25422" lon="5.92581">
        <ele>1658</ele>
        <time>2017-12-17T12:48:01Z</time>
      </trkpt>
      <trkpt lat="46.25422" lon="5.92581">
        <ele>1658</ele>
        <time>2017-12-17T12:48:06Z</time>
      </trkpt>
      <trkpt lat="46.25422" lon="5.92581">
        <ele>1658</ele>
        <time>2017-12-17T12:48:11Z</time>
      </trkpt>
      <trkpt lat="46.25422" lon="5.92581">
        <ele>1658</ele>
        <time>2017-12-17T12:48:16Z</time>
      </trkpt>
      <trkpt lat="46.25422" lon="5.92581">
        <ele>1658</ele>
        <time>2017-12-17T12:48:21Z</time>
      </trkpt>
      <trkpt lat="46.25422" lon="5.92581">
        <ele>1658</ele>
        <time>2017-12-17T12:48:26Z</time>
      </trkpt>
      <trkpt lat="46.25422" lon="5.92581">
        <ele>1658</ele>
        <time>2017-12-17T12:48:31Z</time>
      </trkpt>
      <trkpt lat="46.25422" lon="5.92581">
        <ele>1658</ele>
        <time>2017-12-17T12:48:36Z</time>
      </trkpt>
      <trkpt lat="46.25426" lon="5.9258">
        <ele>1657.5999755859</ele>
        <time>2017-12-17T12:48:41Z</time>
      </trkpt>
      <trkpt lat="46.25436" lon="5.9258">
        <ele>1656.1999511719</ele>
        <time>2017-12-17T12:48:46Z</time>
      </trkpt>
      <trkpt lat="46.25445" lon="5.92584">
        <ele>1655.4000244141</ele>
        <time>2017-12-17T12:48:51Z</time>
      </trkpt>
      <trkpt lat="46.2545" lon="5.92588">
        <ele>1654</ele>
        <time>2017-12-17T12:48:56Z</time>
      </trkpt>
      <trkpt lat="46.25458" lon="5.92596">
        <ele>1652</ele>
        <time>2017-12-17T12:49:01Z</time>
      </trkpt>
      <trkpt lat="46.25465" lon="5.92604">
        <ele>1650.5</ele>
        <time>2017-12-17T12:49:06Z</time>
      </trkpt>
      <trkpt lat="46.2547" lon="5.9261">
        <ele>1649.9000244141</ele>
        <time>2017-12-17T12:49:11Z</time>
      </trkpt>
      <trkpt lat="46.25479" lon="5.92618">
        <ele>1648.5999755859</ele>
        <time>2017-12-17T12:49:16Z</time>
      </trkpt>
      <trkpt lat="46.25487" lon="5.92623">
        <ele>1647.5999755859</ele>
        <time>2017-12-17T12:49:21Z</time>
      </trkpt>
      <trkpt lat="46.25496" lon="5.92626">
        <ele>1647.3000488281</ele>
        <time>2017-12-17T12:49:26Z</time>
      </trkpt>
      <trkpt lat="46.25504" lon="5.9263">
        <ele>1647.3000488281</ele>
        <time>2017-12-17T12:49:31Z</time>
      </trkpt>
      <trkpt lat="46.2551" lon="5.92633">
        <ele>1646.9000244141</ele>
        <time>2017-12-17T12:49:36Z</time>
      </trkpt>
      <trkpt lat="46.25515" lon="5.92636">
        <ele>1645.8000488281</ele>
        <time>2017-12-17T12:49:41Z</time>
      </trkpt>
      <trkpt lat="46.2552" lon="5.9264">
        <ele>1644.4000244141</ele>
        <time>2017-12-17T12:49:46Z</time>
      </trkpt>
      <trkpt lat="46.25525" lon="5.92643">
        <ele>1643.9000244141</ele>
        <time>2017-12-17T12:49:51Z</time>
      </trkpt>
      <trkpt lat="46.25531" lon="5.92645">
        <ele>1644.0999755859</ele>
        <time>2017-12-17T12:49:56Z</time>
      </trkpt>
      <trkpt lat="46.25536" lon="5.9265">
        <ele>1644.1999511719</ele>
        <time>2017-12-17T12:50:01Z</time>
      </trkpt>
      <trkpt lat="46.25541" lon="5.92656">
        <ele>1643.6999511719</ele>
        <time>2017-12-17T12:50:06Z</time>
      </trkpt>
      <trkpt lat="46.25543" lon="5.92664">
        <ele>1643.3000488281</ele>
        <time>2017-12-17T12:50:11Z</time>
      </trkpt>
      <trkpt lat="46.25547" lon="5.9267">
        <ele>1643.5</ele>
        <time>2017-12-17T12:50:16Z</time>
      </trkpt>
      <trkpt lat="46.25551" lon="5.92675">
        <ele>1643.4000244141</ele>
        <time>2017-12-17T12:50:21Z</time>
      </trkpt>
      <trkpt lat="46.25554" lon="5.9268">
        <ele>1643.1999511719</ele>
        <time>2017-12-17T12:50:26Z</time>
      </trkpt>
      <trkpt lat="46.25558" lon="5.92685">
        <ele>1643.8000488281</ele>
        <time>2017-12-17T12:50:31Z</time>
      </trkpt>
      <trkpt lat="46.25562" lon="5.92691">
        <ele>1643.8000488281</ele>
        <time>2017-12-17T12:50:36Z</time>
      </trkpt>
      <trkpt lat="46.25565" lon="5.92696">
        <ele>1644.0999755859</ele>
        <time>2017-12-17T12:50:41Z</time>
      </trkpt>
      <trkpt lat="46.25568" lon="5.92701">
        <ele>1644.4000244141</ele>
        <time>2017-12-17T12:50:46Z</time>
      </trkpt>
      <trkpt lat="46.25572" lon="5.92708">
        <ele>1646</ele>
        <time>2017-12-17T12:50:51Z</time>
      </trkpt>
      <trkpt lat="46.25576" lon="5.92714">
        <ele>1648</ele>
        <time>2017-12-17T12:50:56Z</time>
      </trkpt>
      <trkpt lat="46.2558" lon="5.92719">
        <ele>1650.3000488281</ele>
        <time>2017-12-17T12:51:01Z</time>
      </trkpt>
      <trkpt lat="46.25584" lon="5.92725">
        <ele>1652.1999511719</ele>
        <time>2017-12-17T12:51:06Z</time>
      </trkpt>
      <trkpt lat="46.25589" lon="5.92729">
        <ele>1654.5999755859</ele>
        <time>2017-12-17T12:51:11Z</time>
      </trkpt>
      <trkpt lat="46.25594" lon="5.92734">
        <ele>1656.4000244141</ele>
        <time>2017-12-17T12:51:16Z</time>
      </trkpt>
      <trkpt lat="46.25599" lon="5.9274">
        <ele>1657.8000488281</ele>
        <time>2017-12-17T12:51:21Z</time>
      </trkpt>
      <trkpt lat="46.25603" lon="5.92746">
        <ele>1658.6999511719</ele>
        <time>2017-12-17T12:51:26Z</time>
      </trkpt>
      <trkpt lat="46.25607" lon="5.9275">
        <ele>1659.3000488281</ele>
        <time>2017-12-17T12:51:31Z</time>
      </trkpt>
      <trkpt lat="46.25611" lon="5.92755">
        <ele>1659.6999511719</ele>
        <time>2017-12-17T12:51:36Z</time>
      </trkpt>
      <trkpt lat="46.25614" lon="5.9276">
        <ele>1661</ele>
        <time>2017-12-17T12:51:41Z</time>
      </trkpt>
      <trkpt lat="46.25617" lon="5.92764">
        <ele>1662</ele>
        <time>2017-12-17T12:51:46Z</time>
      </trkpt>
      <trkpt lat="46.25621" lon="5.9277">
        <ele>1663.1999511719</ele>
        <time>2017-12-17T12:51:51Z</time>
      </trkpt>
      <trkpt lat="46.25624" lon="5.92776">
        <ele>1664</ele>
        <time>2017-12-17T12:51:56Z</time>
      </trkpt>
      <trkpt lat="46.25625" lon="5.92783">
        <ele>1665.0999755859</ele>
        <time>2017-12-17T12:52:01Z</time>
      </trkpt>
      <trkpt lat="46.25626" lon="5.9279">
        <ele>1666.4000244141</ele>
        <time>2017-12-17T12:52:06Z</time>
      </trkpt>
      <trkpt lat="46.25625" lon="5.92797">
        <ele>1667.5</ele>
        <time>2017-12-17T12:52:11Z</time>
      </trkpt>
      <trkpt lat="46.25625" lon="5.92805">
        <ele>1668.6999511719</ele>
        <time>2017-12-17T12:52:16Z</time>
      </trkpt>
      <trkpt lat="46.25624" lon="5.92812">
        <ele>1670</ele>
        <time>2017-12-17T12:52:21Z</time>
      </trkpt>
      <trkpt lat="46.25624" lon="5.92818">
        <ele>1671.5999755859</ele>
        <time>2017-12-17T12:52:26Z</time>
      </trkpt>
      <trkpt lat="46.25624" lon="5.92819">
        <ele>1672</ele>
        <time>2017-12-17T12:52:31Z</time>
      </trkpt>
      <trkpt lat="46.25626" lon="5.9283">
        <ele>1674.1999511719</ele>
        <time>2017-12-17T12:52:36Z</time>
      </trkpt>
      <trkpt lat="46.25627" lon="5.92832">
        <ele>1674.6999511719</ele>
        <time>2017-12-17T12:52:41Z</time>
      </trkpt>
      <trkpt lat="46.25627" lon="5.92832">
        <ele>1674.6999511719</ele>
        <time>2017-12-17T12:52:46Z</time>
      </trkpt>
      <trkpt lat="46.25635" lon="5.92844">
        <ele>1677.9000244141</ele>
        <time>2017-12-17T12:52:51Z</time>
      </trkpt>
      <trkpt lat="46.25636" lon="5.92845">
        <ele>1678.1999511719</ele>
        <time>2017-12-17T12:52:56Z</time>
      </trkpt>
      <trkpt lat="46.25636" lon="5.92845">
        <ele>1678.1999511719</ele>
        <time>2017-12-17T12:53:01Z</time>
      </trkpt>
      <trkpt lat="46.25643" lon="5.92858">
        <ele>1681.1999511719</ele>
        <time>2017-12-17T12:53:06Z</time>
      </trkpt>
      <trkpt lat="46.25644" lon="5.92859">
        <ele>1681.5999755859</ele>
        <time>2017-12-17T12:53:11Z</time>
      </trkpt>
      <trkpt lat="46.25644" lon="5.92859">
        <ele>1681.5999755859</ele>
        <time>2017-12-17T12:53:15Z</time>
      </trkpt>
      <trkpt lat="46.25648" lon="5.92863">
        <ele>1682.3000488281</ele>
        <time>2017-12-17T12:53:20Z</time>
      </trkpt>
      <trkpt lat="46.2565" lon="5.92864">
        <ele>1682.4000244141</ele>
        <time>2017-12-17T12:53:25Z</time>
      </trkpt>
      <trkpt lat="46.2565" lon="5.92864">
        <ele>1682.4000244141</ele>
        <time>2017-12-17T12:53:30Z</time>
      </trkpt>
      <trkpt lat="46.2565" lon="5.92864">
        <ele>1682.4000244141</ele>
        <time>2017-12-17T12:53:35Z</time>
      </trkpt>
      <trkpt lat="46.25658" lon="5.92874">
        <ele>1682.5999755859</ele>
        <time>2017-12-17T12:53:40Z</time>
      </trkpt>
      <trkpt lat="46.25659" lon="5.92875">
        <ele>1682.6999511719</ele>
        <time>2017-12-17T12:53:45Z</time>
      </trkpt>
      <trkpt lat="46.25659" lon="5.92875">
        <ele>1682.6999511719</ele>
        <time>2017-12-17T12:53:50Z</time>
      </trkpt>
      <trkpt lat="46.25667" lon="5.92887">
        <ele>1683.5</ele>
        <time>2017-12-17T12:53:55Z</time>
      </trkpt>
      <trkpt lat="46.25667" lon="5.92887">
        <ele>1683.5</ele>
        <time>2017-12-17T12:54:00Z</time>
      </trkpt>
      <trkpt lat="46.25667" lon="5.92887">
        <ele>1683.5</ele>
        <time>2017-12-17T12:54:01Z</time>
      </trkpt>
      <trkpt lat="46.25667" lon="5.92887">
        <ele>1683.5</ele>
        <time>2017-12-17T12:54:06Z</time>
      </trkpt>
      <trkpt lat="46.25667" lon="5.92887">
        <ele>1683.5</ele>
        <time>2017-12-17T12:54:11Z</time>
      </trkpt>
      <trkpt lat="46.25667" lon="5.92887">
        <ele>1683.5</ele>
        <time>2017-12-17T12:54:16Z</time>
      </trkpt>
      <trkpt lat="46.25667" lon="5.92887">
        <ele>1683.5</ele>
        <time>2017-12-17T12:54:21Z</time>
      </trkpt>
      <trkpt lat="46.25667" lon="5.92887">
        <ele>1683.5</ele>
        <time>2017-12-17T12:54:26Z</time>
      </trkpt>
      <trkpt lat="46.25667" lon="5.92887">
        <ele>1683.5</ele>
        <time>2017-12-17T12:54:31Z</time>
      </trkpt>
      <trkpt lat="46.25667" lon="5.92887">
        <ele>1683.5</ele>
        <time>2017-12-17T12:54:37Z</time>
      </trkpt>
      <trkpt lat="46.25667" lon="5.92887">
        <ele>1683.5</ele>
        <time>2017-12-17T12:54:42Z</time>
      </trkpt>
      <trkpt lat="46.25667" lon="5.92887">
        <ele>1683.5</ele>
        <time>2017-12-17T12:54:47Z</time>
      </trkpt>
      <trkpt lat="46.25667" lon="5.92887">
        <ele>1683.5</ele>
        <time>2017-12-17T12:54:52Z</time>
      </trkpt>
      <trkpt lat="46.25667" lon="5.92887">
        <ele>1683.5</ele>
        <time>2017-12-17T12:54:57Z</time>
      </trkpt>
      <trkpt lat="46.25671" lon="5.92894">
        <ele>1681.8000488281</ele>
        <time>2017-12-17T12:55:02Z</time>
      </trkpt>
      <trkpt lat="46.25673" lon="5.92896">
        <ele>1681.5</ele>
        <time>2017-12-17T12:55:07Z</time>
      </trkpt>
      <trkpt lat="46.25673" lon="5.92896">
        <ele>1681.5</ele>
        <time>2017-12-17T12:55:12Z</time>
      </trkpt>
      <trkpt lat="46.2568" lon="5.92907">
        <ele>1682.5</ele>
        <time>2017-12-17T12:55:17Z</time>
      </trkpt>
      <trkpt lat="46.25681" lon="5.92908">
        <ele>1682.6999511719</ele>
        <time>2017-12-17T12:55:22Z</time>
      </trkpt>
      <trkpt lat="46.25681" lon="5.92908">
        <ele>1682.6999511719</ele>
        <time>2017-12-17T12:55:27Z</time>
      </trkpt>
      <trkpt lat="46.25689" lon="5.92919">
        <ele>1685</ele>
        <time>2017-12-17T12:55:32Z</time>
      </trkpt>
      <trkpt lat="46.25689" lon="5.9292">
        <ele>1685.1999511719</ele>
        <time>2017-12-17T12:55:37Z</time>
      </trkpt>
      <trkpt lat="46.25695" lon="5.92928">
        <ele>1686.9000244141</ele>
        <time>2017-12-17T12:55:42Z</time>
      </trkpt>
      <trkpt lat="46.25696" lon="5.92928">
        <ele>1687</ele>
        <time>2017-12-17T12:55:47Z</time>
      </trkpt>
      <trkpt lat="46.25696" lon="5.92928">
        <ele>1687</ele>
        <time>2017-12-17T12:55:52Z</time>
      </trkpt>
      <trkpt lat="46.25702" lon="5.92942">
        <ele>1689.3000488281</ele>
        <time>2017-12-17T12:55:57Z</time>
      </trkpt>
      <trkpt lat="46.25702" lon="5.92942">
        <ele>1689.5</ele>
        <time>2017-12-17T12:56:02Z</time>
      </trkpt>
      <trkpt lat="46.25702" lon="5.92942">
        <ele>1689.5</ele>
        <time>2017-12-17T12:56:07Z</time>
      </trkpt>
      <trkpt lat="46.25708" lon="5.92953">
        <ele>1691.8000488281</ele>
        <time>2017-12-17T12:56:12Z</time>
      </trkpt>
      <trkpt lat="46.25709" lon="5.92955">
        <ele>1692.0999755859</ele>
        <time>2017-12-17T12:56:17Z</time>
      </trkpt>
      <trkpt lat="46.25709" lon="5.92955">
        <ele>1692.0999755859</ele>
        <time>2017-12-17T12:56:22Z</time>
      </trkpt>
      <trkpt lat="46.25709" lon="5.92955">
        <ele>1692.0999755859</ele>
        <time>2017-12-17T12:56:27Z</time>
      </trkpt>
      <trkpt lat="46.25709" lon="5.92955">
        <ele>1692.0999755859</ele>
        <time>2017-12-17T12:56:28Z</time>
      </trkpt>
      <trkpt lat="46.25709" lon="5.92955">
        <ele>1692.0999755859</ele>
        <time>2017-12-17T12:56:33Z</time>
      </trkpt>
      <trkpt lat="46.25709" lon="5.92955">
        <ele>1692.0999755859</ele>
        <time>2017-12-17T12:56:38Z</time>
      </trkpt>
      <trkpt lat="46.25709" lon="5.92955">
        <ele>1692.0999755859</ele>
        <time>2017-12-17T12:56:43Z</time>
      </trkpt>
      <trkpt lat="46.25709" lon="5.92955">
        <ele>1692.0999755859</ele>
        <time>2017-12-17T12:56:48Z</time>
      </trkpt>
      <trkpt lat="46.25709" lon="5.92955">
        <ele>1692.0999755859</ele>
        <time>2017-12-17T12:56:53Z</time>
      </trkpt>
      <trkpt lat="46.25709" lon="5.92955">
        <ele>1692.0999755859</ele>
        <time>2017-12-17T12:56:58Z</time>
      </trkpt>
      <trkpt lat="46.25709" lon="5.92955">
        <ele>1692.0999755859</ele>
        <time>2017-12-17T12:57:03Z</time>
      </trkpt>
      <trkpt lat="46.25709" lon="5.92955">
        <ele>1692.0999755859</ele>
        <time>2017-12-17T12:57:04Z</time>
      </trkpt>
      <trkpt lat="46.25709" lon="5.92955">
        <ele>1692.0999755859</ele>
        <time>2017-12-17T12:57:09Z</time>
      </trkpt>
      <trkpt lat="46.25709" lon="5.92955">
        <ele>1692.0999755859</ele>
        <time>2017-12-17T12:57:13Z</time>
      </trkpt>
      <trkpt lat="46.25709" lon="5.92955">
        <ele>1692.0999755859</ele>
        <time>2017-12-17T12:57:18Z</time>
      </trkpt>
      <trkpt lat="46.25702" lon="5.92964">
        <ele>1695.6999511719</ele>
        <time>2017-12-17T12:57:23Z</time>
      </trkpt>
      <trkpt lat="46.25702" lon="5.92964">
        <ele>1695.6999511719</ele>
        <time>2017-12-17T12:57:28Z</time>
      </trkpt>
      <trkpt lat="46.25702" lon="5.92964">
        <ele>1695.6999511719</ele>
        <time>2017-12-17T12:57:33Z</time>
      </trkpt>
      <trkpt lat="46.25702" lon="5.92964">
        <ele>1695.6999511719</ele>
        <time>2017-12-17T12:57:38Z</time>
      </trkpt>
      <trkpt lat="46.25702" lon="5.92964">
        <ele>1695.6999511719</ele>
        <time>2017-12-17T12:57:39Z</time>
      </trkpt>
      <trkpt lat="46.25702" lon="5.92964">
        <ele>1695.6999511719</ele>
        <time>2017-12-17T12:57:44Z</time>
      </trkpt>
      <trkpt lat="46.25702" lon="5.92964">
        <ele>1695.6999511719</ele>
        <time>2017-12-17T12:57:49Z</time>
      </trkpt>
      <trkpt lat="46.25702" lon="5.92964">
        <ele>1695.6999511719</ele>
        <time>2017-12-17T12:57:54Z</time>
      </trkpt>
      <trkpt lat="46.25702" lon="5.92964">
        <ele>1695.6999511719</ele>
        <time>2017-12-17T12:57:59Z</time>
      </trkpt>
      <trkpt lat="46.25702" lon="5.92964">
        <ele>1695.6999511719</ele>
        <time>2017-12-17T12:58:04Z</time>
      </trkpt>
      <trkpt lat="46.25702" lon="5.92964">
        <ele>1695.6999511719</ele>
        <time>2017-12-17T12:58:09Z</time>
      </trkpt>
      <trkpt lat="46.25702" lon="5.92964">
        <ele>1695.6999511719</ele>
        <time>2017-12-17T12:58:14Z</time>
      </trkpt>
      <trkpt lat="46.25702" lon="5.92964">
        <ele>1695.6999511719</ele>
        <time>2017-12-17T12:58:19Z</time>
      </trkpt>
      <trkpt lat="46.25702" lon="5.92964">
        <ele>1695.6999511719</ele>
        <time>2017-12-17T12:58:24Z</time>
      </trkpt>
      <trkpt lat="46.25706" lon="5.92978">
        <ele>1700.0999755859</ele>
        <time>2017-12-17T12:58:29Z</time>
      </trkpt>
      <trkpt lat="46.25706" lon="5.92982">
        <ele>1700.6999511719</ele>
        <time>2017-12-17T12:58:34Z</time>
      </trkpt>
      <trkpt lat="46.25706" lon="5.92982">
        <ele>1700.6999511719</ele>
        <time>2017-12-17T12:58:39Z</time>
      </trkpt>
      <trkpt lat="46.25706" lon="5.92982">
        <ele>1700.6999511719</ele>
        <time>2017-12-17T12:58:44Z</time>
      </trkpt>
      <trkpt lat="46.25706" lon="5.92982">
        <ele>1700.6999511719</ele>
        <time>2017-12-17T12:58:49Z</time>
      </trkpt>
      <trkpt lat="46.25706" lon="5.92982">
        <ele>1700.6999511719</ele>
        <time>2017-12-17T12:58:54Z</time>
      </trkpt>
      <trkpt lat="46.25706" lon="5.92982">
        <ele>1700.6999511719</ele>
        <time>2017-12-17T12:58:59Z</time>
      </trkpt>
      <trkpt lat="46.25706" lon="5.92982">
        <ele>1700.6999511719</ele>
        <time>2017-12-17T12:59:04Z</time>
      </trkpt>
      <trkpt lat="46.25706" lon="5.92982">
        <ele>1700.6999511719</ele>
        <time>2017-12-17T12:59:06Z</time>
      </trkpt>
      <trkpt lat="46.25706" lon="5.92982">
        <ele>1700.6999511719</ele>
        <time>2017-12-17T12:59:11Z</time>
      </trkpt>
      <trkpt lat="46.25706" lon="5.92982">
        <ele>1700.6999511719</ele>
        <time>2017-12-17T12:59:16Z</time>
      </trkpt>
      <trkpt lat="46.25706" lon="5.92982">
        <ele>1700.6999511719</ele>
        <time>2017-12-17T12:59:21Z</time>
      </trkpt>
      <trkpt lat="46.25706" lon="5.92982">
        <ele>1700.6999511719</ele>
        <time>2017-12-17T12:59:26Z</time>
      </trkpt>
      <trkpt lat="46.25706" lon="5.92982">
        <ele>1700.6999511719</ele>
        <time>2017-12-17T12:59:31Z</time>
      </trkpt>
      <trkpt lat="46.25706" lon="5.92982">
        <ele>1700.6999511719</ele>
        <time>2017-12-17T12:59:36Z</time>
      </trkpt>
      <trkpt lat="46.25706" lon="5.92982">
        <ele>1700.6999511719</ele>
        <time>2017-12-17T12:59:41Z</time>
      </trkpt>
      <trkpt lat="46.25706" lon="5.92982">
        <ele>1700.6999511719</ele>
        <time>2017-12-17T12:59:46Z</time>
      </trkpt>
    </trkseg>
  </trk>
</gpx>